[[{"header":{"parameterUnit":"m.s-1","parameterCategory":1,"la1":30.6,"la2":29.2853,"lo1":-89.7004,"lo2":-87.6739,"dy":0.0162,"dx":0.0183,"nx":112,"ny":82,"refTime":"2024-03-25T12:00:00:Z","depth":0,"parameterNumber":2,"parameterNumberName":"U-component_of_WINDS"},"data":[0.0,0.0,0.0,0.0,0.0,0.0,0.0,0.0,0.0,0.0,0.0,0.0,0.0,0.0,0.0,0.0,0.0,0.0,0.0,0.0,0.0,0.0,0.0,0.0,0.0,0.0,0.0,0.0,0.0,0.0,0.0,0.0,0.0,0.0,0.0,0.0,0.0,0.0,0.0,0.0,0.0,0.0,0.0,0.0,0.0,0.0,0.0,0.0,0.0,0.0,0.0,0.0,0.0,0.0,0.0,0.0,0.0,0.0,0.0,0.0,0.0,0.0,0.0,0.0,0.0,0.0,0.0,0.0,0.0,0.0,0.0,0.0,0.0,0.0,0.0,0.0,0.0,0.0,0.0,0.0,0.0,0.0,0.0,0.0,0.0,0.0,0.0,0.0,0.0,0.0,0.0,2.7325,2.7734,2.8108,2.8465,2.8177,2.7714,2.7089,0.0,0.0,0.0,0.0,0.0,0.0,0.0,0.0,0.0,0.0,0.0,0.0,0.0,0.0,0.0,0.0,0.0,0.0,0.0,0.0,0.0,0.0,0.0,0.0,0.0,0.0,0.0,0.0,0.0,0.0,0.0,0.0,0.0,0.0,0.0,0.0,0.0,0.0,0.0,0.0,0.0,0.0,0.0,0.0,0.0,0.0,0.0,0.0,0.0,0.0,0.0,0.0,0.0,0.0,0.0,0.0,0.0,0.0,0.0,0.0,0.0,0.0,0.0,0.0,0.0,0.0,0.0,0.0,0.0,0.0,0.0,0.0,0.0,0.0,0.0,0.0,0.0,0.0,0.0,0.0,0.0,0.0,0.0,0.0,0.0,0.0,0.0,0.0,0.0,0.0,0.0,0.0,0.0,0.0,0.0,0.0,0.0,0.0,0.0,0.0,0.0,0.0,0.0,0.0,2.6953,2.7648,2.8376,2.8842,2.8897,2.886,2.8764,2.8654,0.0,0.0,0.0,0.0,0.0,0.0,0.0,0.0,0.0,0.0,0.0,0.0,0.0,0.0,0.0,0.0,0.0,0.0,0.0,0.0,0.0,0.0,0.0,0.0,0.0,0.0,0.0,0.0,0.0,0.0,0.0,0.0,0.0,0.0,0.0,0.0,0.0,0.0,0.0,0.0,0.0,0.0,0.0,0.0,0.0,0.0,0.0,0.0,0.0,0.0,0.0,0.0,0.0,0.0,0.0,0.0,0.0,0.0,0.0,0.0,0.0,0.0,0.0,0.0,0.0,0.0,0.0,0.0,0.0,0.0,0.0,0.0,0.0,0.0,0.0,0.0,0.0,0.0,0.0,0.0,0.0,0.0,0.0,0.0,0.0,0.0,0.0,0.0,0.0,0.0,0.0,0.0,0.0,0.0,0.0,0.0,0.0,0.0,0.0,0.0,0.0,0.0,0.0,2.7943,2.8239,2.8965,2.9381,2.96,2.96,2.96,2.9424,2.9027,2.835,0.0,0.0,0.0,0.0,0.0,0.0,0.0,0.0,0.0,0.0,0.0,0.0,0.0,0.0,0.0,0.0,0.0,0.0,0.0,0.0,0.0,0.0,0.0,0.0,0.0,0.0,0.0,0.0,0.0,0.0,0.0,0.0,0.0,0.0,0.0,0.0,0.0,0.0,0.0,0.0,0.0,0.0,0.0,0.0,0.0,0.0,0.0,0.0,0.0,0.0,0.0,0.0,0.0,0.0,0.0,0.0,0.0,0.0,0.0,0.0,0.0,0.0,0.0,0.0,0.0,0.0,0.0,0.0,0.0,0.0,0.0,0.0,0.0,0.0,0.0,0.0,0.0,0.0,0.0,0.0,0.0,0.0,0.0,0.0,0.0,0.0,0.0,0.0,0.0,0.0,0.0,0.0,0.0,0.0,0.0,0.0,0.0,0.0,0.0,0.0,0.0,0.0,2.9153,2.9474,3.0031,3.026,3.0352,3.0352,3.0352,3.0125,2.9542,2.9356,0.0,0.0,0.0,0.0,0.0,0.0,0.0,0.0,0.0,0.0,0.0,0.0,0.0,0.0,0.0,0.0,0.0,0.0,0.0,0.0,0.0,0.0,0.0,0.0,0.0,0.0,0.0,0.0,0.0,0.0,0.0,0.0,0.0,0.0,0.0,0.0,0.0,0.0,0.0,0.0,0.0,0.0,0.0,0.0,0.0,0.0,0.0,0.0,0.0,0.0,0.0,0.0,0.0,0.0,0.0,0.0,0.0,0.0,0.0,0.0,0.0,0.0,0.0,0.0,0.0,0.0,0.0,0.0,0.0,0.0,0.0,0.0,0.0,0.0,0.0,0.0,0.0,0.0,0.0,0.0,0.0,0.0,0.0,0.0,0.0,0.0,0.0,0.0,0.0,0.0,0.0,0.0,0.0,0.0,0.0,0.0,0.0,0.0,0.0,0.0,0.0,0.0,2.96,3.0031,3.0098,3.0717,3.1123,3.1123,3.1123,3.1099,3.1048,3.0395,0.0,0.0,0.0,0.0,0.0,0.0,0.0,0.0,0.0,0.0,0.0,0.0,0.0,0.0,0.0,0.0,0.0,0.0,0.0,0.0,0.0,0.0,0.0,0.0,0.0,0.0,0.0,0.0,0.0,0.0,0.0,0.0,0.0,0.0,0.0,0.0,0.0,0.0,0.0,0.0,0.0,0.0,0.0,0.0,0.0,0.0,0.0,0.0,0.0,0.0,0.0,0.0,0.0,0.0,0.0,0.0,0.0,0.0,0.0,0.0,0.0,0.0,0.0,0.0,0.0,0.0,0.0,0.0,0.0,0.0,0.0,0.0,0.0,0.0,0.0,0.0,0.0,0.0,0.0,0.0,0.0,0.0,0.0,0.0,0.0,0.0,0.0,0.0,0.0,0.0,0.0,0.0,0.0,0.0,0.0,0.0,0.0,0.0,0.0,0.0,0.0,0.0,3.0608,3.0784,0.0,3.1021,3.12,3.12,3.12,3.12,3.12,0.0,0.0,0.0,0.0,0.0,0.0,0.0,0.0,0.0,0.0,0.0,0.0,0.0,0.0,0.0,0.0,0.0,0.0,0.0,0.0,0.0,0.0,0.0,0.0,0.0,0.0,0.0,0.0,0.0,0.0,0.0,0.0,0.0,0.0,0.0,0.0,0.0,0.0,0.0,0.0,0.0,0.0,0.0,0.0,0.0,0.0,0.0,0.0,0.0,0.0,0.0,0.0,0.0,0.0,0.0,0.0,0.0,0.0,0.0,0.0,0.0,0.0,0.0,0.0,0.0,0.0,0.0,0.0,0.0,0.0,0.0,0.0,0.0,0.0,0.0,0.0,0.0,0.0,0.0,0.0,0.0,0.0,0.0,0.0,0.0,0.0,0.0,0.0,0.0,0.0,0.0,0.0,0.0,0.0,0.0,0.0,0.0,0.0,0.0,0.0,0.0,0.0,3.1149,3.12,3.1285,0.0,3.1556,3.1556,3.1556,3.1556,3.1454,3.1207,0.0,0.0,0.0,0.0,0.0,0.0,0.0,0.0,0.0,0.0,0.0,0.0,0.0,0.0,0.0,0.0,0.0,0.0,0.0,0.0,0.0,0.0,0.0,0.0,0.0,0.0,0.0,0.0,0.0,0.0,0.0,0.0,0.0,0.0,0.0,0.0,0.0,0.0,0.0,0.0,0.0,0.0,0.0,0.0,0.0,0.0,0.0,0.0,0.0,0.0,0.0,0.0,0.0,0.0,0.0,0.0,0.0,0.0,0.0,0.0,0.0,0.0,0.0,0.0,0.0,0.0,0.0,0.0,0.0,0.0,0.0,0.0,0.0,0.0,0.0,0.0,0.0,0.0,0.0,0.0,0.0,0.0,0.0,0.0,0.0,0.0,0.0,0.0,0.0,0.0,0.0,0.0,0.0,0.0,0.0,0.0,0.0,0.0,0.0,0.0,0.0,0.0,3.1207,3.1207,3.1488,3.2226,3.231,3.231,3.231,3.231,3.2005,0.0,0.0,0.0,0.0,0.0,0.0,0.0,0.0,0.0,0.0,0.0,0.0,0.0,0.0,0.0,0.0,0.0,0.0,0.0,0.0,0.0,0.0,0.0,0.0,0.0,0.0,0.0,0.0,0.0,0.0,0.0,0.0,0.0,0.0,0.0,0.0,0.0,0.0,0.0,0.0,0.0,0.0,0.0,0.0,0.0,0.0,0.0,0.0,0.0,0.0,0.0,0.0,0.0,0.0,0.0,0.0,0.0,0.0,0.0,0.0,0.0,0.0,0.0,0.0,0.0,0.0,0.0,0.0,0.0,0.0,0.0,0.0,0.0,0.0,0.0,0.0,0.0,0.0,0.0,0.0,0.0,0.0,0.0,0.0,0.0,0.0,0.0,0.0,0.0,0.0,0.0,0.0,0.0,0.0,0.0,0.0,0.0,0.0,0.0,0.0,0.0,0.0,0.0,3.1911,3.1989,3.2266,3.3,3.3068,3.3068,3.3068,3.3068,3.2757,3.2022,0.0,0.0,0.0,0.0,0.0,0.0,0.0,0.0,0.0,0.0,0.0,0.0,0.0,0.0,0.0,0.0,0.0,0.0,0.0,0.0,0.0,0.0,0.0,0.0,0.0,0.0,0.0,0.0,0.0,0.0,0.0,0.0,0.0,0.0,0.0,0.0,0.0,0.0,0.0,0.0,0.0,0.0,0.0,0.0,0.0,0.0,0.0,0.0,0.0,0.0,0.0,0.0,0.0,0.0,0.0,0.0,0.0,0.0,0.0,0.0,0.0,0.0,0.0,0.0,0.0,0.0,0.0,0.0,0.0,0.0,0.0,0.0,0.0,0.0,0.0,0.0,0.0,0.0,0.0,0.0,0.0,0.0,0.0,0.0,0.0,0.0,0.0,0.0,0.0,0.0,0.0,0.0,0.0,0.0,0.0,0.0,0.0,0.0,0.0,0.0,0.0,0.0,3.2638,3.274,3.3028,3.3761,3.3846,3.3846,3.3846,3.3846,3.3525,3.2791,0.0,0.0,0.0,0.0,0.0,0.0,0.0,0.0,0.0,0.0,0.0,0.0,0.0,0.0,0.0,0.0,0.0,0.0,0.0,0.0,0.0,0.0,0.0,0.0,0.0,0.0,0.0,0.0,0.0,0.0,0.0,0.0,0.0,0.0,0.0,0.0,0.0,0.0,0.0,0.0,0.0,0.0,0.0,0.0,0.0,0.0,0.0,0.0,0.0,0.0,0.0,0.0,0.0,0.0,0.0,0.0,0.0,0.0,0.0,0.0,0.0,0.0,0.0,0.0,0.0,0.0,0.0,0.0,0.0,0.0,0.0,0.0,0.0,0.0,0.0,0.0,0.0,0.0,0.0,0.0,0.0,0.0,0.0,0.0,0.0,0.0,0.0,0.0,0.0,0.0,0.0,0.0,0.0,0.0,0.0,0.0,0.0,0.0,0.0,0.0,0.0,0.0,3.3406,3.3497,3.3778,3.4523,3.4601,3.4601,3.4601,3.4601,3.4286,3.3558,0.0,0.0,0.0,0.0,0.0,0.0,0.0,0.0,0.0,0.0,0.0,0.0,0.0,0.0,0.0,0.0,0.0,0.0,0.0,0.0,0.0,0.0,0.0,0.0,0.0,0.0,0.0,0.0,0.0,0.0,0.0,0.0,0.0,0.0,0.0,0.0,0.0,0.0,0.0,0.0,0.0,0.0,0.0,0.0,0.0,0.0,0.0,0.0,0.0,0.0,0.0,0.0,0.0,0.0,0.0,0.0,0.0,0.0,0.0,0.0,2.5524,0.0,0.0,0.0,0.0,0.0,0.0,0.0,0.0,0.0,0.0,0.0,0.0,0.0,0.0,0.0,0.0,0.0,0.0,0.0,0.0,0.0,0.0,0.0,0.0,0.0,0.0,0.0,0.0,0.0,0.0,0.0,0.0,0.0,0.0,0.0,0.0,0.0,0.0,0.0,0.0,0.0,3.4167,3.428,3.4556,3.5289,3.5374,3.5374,3.5374,3.5374,3.5053,3.4303,3.428,0.0,0.0,0.0,0.0,0.0,0.0,0.0,0.0,0.0,0.0,0.0,0.0,0.0,0.0,0.0,0.0,0.0,0.0,0.0,0.0,0.0,0.0,0.0,0.0,0.0,0.0,0.0,0.0,0.0,0.0,0.0,0.0,0.0,0.0,0.0,0.0,0.0,0.0,0.0,0.0,0.0,0.0,0.0,0.0,0.0,0.0,0.0,0.0,0.0,0.0,0.0,0.0,0.0,0.0,0.0,0.0,0.0,0.0,0.0,0.0,2.6015,0.0,0.0,0.0,0.0,0.0,0.0,0.0,0.0,0.0,0.0,0.0,0.0,0.0,0.0,0.0,0.0,0.0,0.0,0.0,0.0,0.0,0.0,0.0,0.0,0.0,0.0,0.0,0.0,0.0,0.0,0.0,0.0,0.0,0.0,0.0,0.0,0.0,0.0,0.0,0.0,3.5464,3.5611,3.5887,3.6625,3.671,3.671,3.671,3.671,3.64,3.565,3.5611,0.0,0.0,0.0,0.0,0.0,0.0,0.0,0.0,0.0,0.0,0.0,0.0,0.0,0.0,0.0,0.0,0.0,0.0,0.0,0.0,0.0,0.0,0.0,0.0,0.0,0.0,0.0,0.0,0.0,0.0,0.0,0.0,0.0,0.0,0.0,0.0,0.0,0.0,0.0,0.0,0.0,0.0,0.0,0.0,0.0,0.0,0.0,0.0,0.0,0.0,0.0,0.0,0.0,2.6394,2.6673,2.6769,2.6769,2.6857,2.6988,2.7427,2.709,2.6332,2.7279,0.0,0.0,0.0,0.0,0.0,0.0,0.0,0.0,0.0,0.0,0.0,0.0,0.0,0.0,0.0,0.0,0.0,0.0,0.0,0.0,0.0,0.0,0.0,0.0,3.1945,3.1372,0.0,0.0,0.0,0.0,0.0,0.0,0.0,0.0,0.0,0.0,0.0,0.0,3.6616,3.6777,3.6966,3.7454,3.7509,3.7509,3.7509,3.7619,3.7422,3.6811,3.6912,3.6688,0.0,0.0,0.0,0.0,0.0,0.0,0.0,0.0,0.0,0.0,0.0,0.0,0.0,0.0,0.0,0.0,0.0,0.0,0.0,0.0,0.0,0.0,0.0,0.0,0.0,0.0,0.0,0.0,0.0,0.0,0.0,0.0,2.3595,2.3595,0.0,0.0,0.0,0.0,0.0,0.0,0.0,0.0,0.0,0.0,0.0,0.0,0.0,2.5737,2.633,2.6422,2.6764,2.7345,2.7405,2.7745,2.8319,2.8319,2.8634,2.9173,2.9252,0.0,2.5716,2.5863,0.0,0.0,0.0,0.0,0.0,0.0,0.0,0.0,0.0,0.0,0.0,0.0,0.0,0.0,0.0,0.0,0.0,0.0,0.0,0.0,0.0,0.0,3.278,3.2453,3.2335,3.2236,0.0,3.2637,3.3136,3.3237,3.3243,0.0,0.0,0.0,0.0,0.0,0.0,0.0,3.6683,3.6707,3.6514,3.5954,3.5902,3.5902,3.5902,3.6483,3.6823,3.6724,3.7378,3.7719,3.7589,3.6885,0.0,0.0,0.0,0.0,0.0,0.0,0.0,0.0,0.0,0.0,0.0,0.0,0.0,0.0,0.0,0.0,0.0,0.0,0.0,0.0,0.0,0.0,0.0,0.0,0.0,0.0,0.0,0.0,0.0,2.3595,2.3595,2.3595,2.3928,2.4156,0.0,0.0,0.0,0.0,0.0,0.0,0.0,0.0,0.0,2.6153,2.6886,2.7425,2.7709,2.8427,2.8949,2.9234,2.9609,2.994,3.0225,3.0225,3.0388,3.0673,3.0673,3.0,2.8889,2.8505,2.8289,2.8242,0.0,0.0,0.0,0.0,2.9042,2.9042,2.9042,2.9042,0.0,2.9042,0.0,0.0,0.0,0.0,0.0,0.0,0.0,0.0,0.0,0.0,3.2486,3.3329,3.3259,3.3345,3.4554,3.4714,3.4399,0.0,3.4106,3.4863,3.5614,0.0,0.0,0.0,0.0,3.6403,3.7212,3.6952,3.6749,3.6834,3.6853,3.6853,3.6853,3.7514,3.7748,3.734,3.8066,3.8125,3.7261,3.7348,3.7203,0.0,0.0,0.0,0.0,0.0,0.0,0.0,0.0,0.0,0.0,0.0,0.0,0.0,0.0,0.0,0.0,0.0,0.0,0.0,0.0,0.0,0.0,0.0,0.0,0.0,0.0,0.0,0.0,2.3744,2.3864,2.3864,2.4451,2.4859,0.0,0.0,0.0,0.0,0.0,0.0,2.6617,2.7108,2.7437,2.759,2.8562,2.925,2.9594,3.0552,3.1106,3.127,3.1764,3.2004,3.2004,3.2004,3.2004,3.2004,3.2004,3.2004,3.1943,3.1106,3.0477,3.0128,3.0584,3.0477,3.0142,3.0584,3.0755,3.0755,3.0755,3.0755,3.0755,3.0755,3.0755,3.0872,3.1473,0.0,0.0,0.0,0.0,3.225,3.2534,3.2547,3.2797,3.4112,3.4074,3.4202,3.5792,3.5721,3.5133,0.0,3.5021,3.5776,3.6313,0.0,0.0,0.0,0.0,3.6279,3.7341,3.702,3.6811,3.7173,3.7205,3.7294,3.7485,3.8189,3.8461,3.8097,3.8637,3.8543,3.7617,3.7769,3.7681,3.7306,0.0,0.0,0.0,0.0,0.0,0.0,0.0,0.0,0.0,0.0,0.0,0.0,0.0,0.0,0.0,0.0,0.0,0.0,0.0,0.0,0.0,0.0,0.0,0.0,0.0,0.0,0.0,0.0,0.0,2.4545,2.5139,0.0,0.0,0.0,0.0,2.7405,2.7495,2.8064,2.9324,2.9428,2.9713,3.0298,3.0372,3.1031,3.2288,3.2362,3.2721,3.335,3.338,3.3395,3.3395,3.3395,3.3395,3.3395,3.3395,3.3395,3.329,3.1988,3.1435,3.1406,3.1435,3.1435,3.1406,3.1435,3.1449,3.1449,3.1449,3.1449,3.1449,3.1449,3.1449,3.1563,3.2176,3.2353,0.0,0.0,3.3766,3.411,3.3576,3.4403,3.5253,3.4636,3.4464,3.448,3.4598,3.4569,3.4952,0.0,3.6027,3.5619,3.5642,0.0,3.5909,3.6646,3.6702,3.6643,3.6658,3.6629,3.6353,3.5685,3.5619,3.5894,3.66,3.7381,3.8147,3.8804,3.8885,3.9206,3.9902,3.855,3.815,3.8859,3.8203,0.0,0.0,0.0,0.0,0.0,0.0,0.0,0.0,0.0,0.0,0.0,0.0,0.0,0.0,0.0,0.0,0.0,0.0,0.0,0.0,0.0,0.0,0.0,0.0,0.0,0.0,0.0,0.0,2.5244,2.6213,0.0,2.6884,2.7662,2.8366,2.8845,2.9249,2.9669,3.0148,3.1001,3.1555,3.1779,3.2213,3.2662,3.314,3.3559,3.3919,3.4143,3.4577,3.4786,3.4786,3.4786,3.4786,3.4786,3.4786,3.4786,3.4756,3.4262,3.3559,3.2781,3.2781,3.2781,3.2781,3.2781,3.2781,3.2781,3.2781,3.2781,3.2781,3.2781,3.2781,3.2841,3.3049,3.3109,3.3154,3.3411,3.3634,3.3875,3.4088,3.4516,3.4927,3.5107,3.5151,3.5261,3.5751,3.5493,3.5446,3.6433,3.6458,3.6301,3.6254,3.6244,3.6499,3.7289,3.6561,3.6076,3.6538,3.6181,3.5798,3.5537,3.5504,3.5798,3.6538,3.6858,3.7556,3.8827,3.8456,3.8525,3.9302,3.8798,3.8639,3.892,3.8715,3.8616,0.0,0.0,0.0,0.0,0.0,0.0,0.0,0.0,0.0,0.0,0.0,0.0,0.0,0.0,0.0,0.0,0.0,0.0,0.0,0.0,0.0,0.0,0.0,0.0,0.0,0.0,2.6273,2.6273,2.7452,2.8349,2.856,2.9383,3.0102,3.0551,3.0956,3.127,3.1495,3.2347,3.2946,3.317,3.362,3.3964,3.4173,3.4622,3.4832,3.4847,3.5295,3.5504,3.5504,3.5504,3.5504,3.5504,3.5504,3.5504,3.5504,3.5504,3.4981,3.4173,3.4173,3.4173,3.4173,3.4173,3.4173,3.4173,3.4173,3.4173,3.4173,3.4173,3.4173,3.4173,3.4173,3.4173,3.4173,3.4173,3.4173,3.4277,3.4727,3.4832,3.4952,3.5385,3.5504,3.562,3.6133,3.5831,3.5636,3.6118,3.6259,3.6284,3.6245,3.6243,3.6415,3.6951,3.6148,3.5668,3.6165,3.5814,3.5504,3.5504,3.5504,3.5798,3.6538,3.6615,3.7143,3.8456,3.7819,3.7847,3.8867,3.8663,3.8772,3.9289,3.935,3.9372,3.9372,0.0,0.0,0.0,0.0,0.0,0.0,0.0,0.0,0.0,0.0,0.0,0.0,0.0,0.0,0.0,0.0,0.0,0.0,0.0,0.0,0.0,0.0,0.0,2.5854,2.6824,2.769,2.769,2.8873,2.9922,3.0507,3.0582,3.1121,3.2422,3.2542,3.2841,3.3499,3.3544,3.3859,3.4503,3.4518,3.4847,3.5489,3.5504,3.5519,3.5534,3.5534,3.5549,3.5564,3.5564,3.5564,3.5564,3.5564,3.5564,3.5564,3.5564,3.5564,3.5564,3.5519,3.5504,3.5504,3.5504,3.5504,3.5504,3.5504,3.5504,3.5504,3.5504,3.5504,3.5504,3.5504,3.5504,3.5504,3.5534,3.5534,3.5549,3.5548,3.5564,3.5564,3.5564,3.5564,3.5564,3.5564,3.5564,3.5564,3.5564,3.5564,3.5549,3.5518,3.5549,3.5564,3.5564,3.5564,0.0,3.5564,3.5564,3.5564,3.5564,3.5564,3.5858,3.66,3.6646,3.6982,3.7813,3.7071,3.7294,3.8832,3.8163,3.8486,4.0033,4.0083,4.0096,4.0096,0.0,0.0,0.0,0.0,0.0,0.0,0.0,0.0,0.0,0.0,0.0,0.0,0.0,0.0,0.0,0.0,0.0,0.0,0.0,0.0,0.0,2.7418,2.8588,2.7228,2.8575,2.9699,2.9699,3.0896,3.1779,3.1929,3.2392,3.2826,3.32,3.3679,3.4024,3.4218,3.4697,3.504,3.522,3.522,3.531,3.5504,3.5504,3.5744,3.6239,3.6239,3.6447,3.6881,3.6881,3.6881,3.6881,3.6881,3.6881,3.6881,3.6881,3.6881,3.6791,3.5863,3.5504,3.5504,3.5504,3.5504,3.5504,3.5504,3.5504,3.5504,3.5504,3.5504,3.5504,3.5504,3.5504,3.5609,3.6088,3.6239,3.6327,3.6761,3.6881,3.6881,3.6881,3.6881,3.6881,3.6881,3.6881,3.6881,3.6881,3.6881,3.6746,3.6297,3.6582,3.6881,3.6881,3.6881,0.0,3.6881,3.6881,3.6881,3.6881,3.6881,3.7201,3.7974,3.7519,3.7765,3.916,3.7542,3.7217,3.8763,3.7606,3.7658,3.9209,3.9795,4.0096,0.0,0.0,0.0,0.0,0.0,0.0,0.0,0.0,0.0,0.0,0.0,0.0,0.0,0.0,0.0,0.0,0.0,0.0,0.0,0.0,0.0,0.0,2.7965,2.9074,2.854,2.9879,3.1017,3.1301,3.2273,3.3036,3.3305,3.3694,3.4039,3.4322,3.4712,3.4922,3.4922,3.5295,3.5504,3.5504,3.5774,3.5923,3.5923,3.6178,3.6492,3.6881,3.6881,3.706,3.7387,3.7387,3.7387,3.7387,3.7387,3.7387,3.7387,3.7387,3.7387,0.0,0.0,0.0,0.0,0.0,3.6312,3.6312,3.6312,3.6312,3.6312,3.6312,3.6312,3.6312,3.6312,3.6312,3.6387,3.6761,3.6881,3.6956,3.7315,3.7387,3.7387,3.7387,3.7387,3.7387,3.7387,3.7387,3.7387,3.7387,3.7629,0.0,3.7362,3.7345,3.7387,3.7387,3.7387,3.7387,3.7387,3.7387,3.7387,3.7387,3.7387,3.7592,3.8066,3.7662,0.0,0.0,0.0,3.742,3.8669,3.7946,0.0,0.0,0.0,3.9769,4.0096,0.0,0.0,0.0,3.9017,3.8819,0.0,0.0,0.0,0.0,0.0,0.0,0.0,0.0,0.0,0.0,0.0,0.0,0.0,0.0,0.0,0.0,2.8411,2.9182,2.9712,3.0776,3.1723,3.2316,3.3183,3.3871,3.4248,3.4482,3.4767,3.5152,3.5375,3.5455,3.5343,0.0,0.0,0.0,0.0,3.6613,3.6613,3.7135,3.7449,3.7524,3.7524,3.7537,3.7644,3.7644,3.7644,3.7644,3.7644,3.7644,3.7644,3.7644,3.7644,3.7597,3.7464,3.7387,3.7387,3.7387,3.7387,3.7387,3.7387,0.0,0.0,3.7387,3.7387,3.7387,3.7387,3.7387,3.7419,3.7494,3.7524,3.7522,3.7614,3.7644,3.7644,3.7644,3.7644,3.7644,3.7644,3.7644,3.7644,3.7644,3.8108,3.8497,3.8497,3.8018,3.7644,3.7644,3.7644,3.7644,3.7644,3.7644,3.7644,3.7644,0.0,0.0,3.7644,3.7644,3.7644,3.7644,3.7537,3.7788,3.8431,3.8669,3.9121,3.99,3.9402,3.9538,4.035,4.035,4.035,4.035,4.018,4.0096,0.0,0.0,0.0,0.0,0.0,0.0,0.0,0.0,0.0,0.0,0.0,0.0,0.0,0.0,0.0,2.6897,2.8725,3.0239,3.0263,3.1028,3.1632,3.1761,3.3751,3.4548,3.311,3.4384,3.4707,3.3258,3.4608,3.5149,3.4329,3.5572,3.6314,3.6314,3.6911,3.724,3.724,3.7327,3.7674,3.8197,0.0,0.0,3.9017,3.9017,3.9017,3.9017,3.9017,3.9017,3.9017,3.9017,3.9017,3.8913,3.7821,3.7387,3.7387,3.7387,3.7387,3.7387,3.7387,3.7387,3.7387,3.7387,3.7387,3.7387,3.7387,3.7387,0.0,3.8048,3.8197,3.8332,3.8868,3.9017,3.9017,3.9017,3.9017,3.9017,3.9017,3.9017,3.9017,3.9017,3.9107,3.9212,3.9212,3.9092,3.9017,3.9017,3.9017,3.9017,3.9017,3.9017,3.9017,3.9017,3.9017,3.9017,3.9017,3.9017,3.9017,3.9017,3.8512,3.8027,3.7658,3.8291,3.9047,3.9889,4.0362,4.1009,4.1877,4.1877,4.1877,4.1843,4.0641,4.0096,0.0,0.0,0.0,0.0,0.0,0.0,0.0,0.0,0.0,0.0,0.0,2.5209,2.6045,0.0,2.797,2.7738,2.8851,2.9841,3.008,3.0849,3.1567,3.2046,3.3245,3.3668,3.2696,3.3481,3.365,3.2664,3.3761,3.4225,3.3723,3.4772,3.5393,3.5393,3.6516,3.7101,3.7101,3.7424,3.8043,3.8883,3.8353,3.8563,3.9406,3.9406,3.9406,3.9406,3.9406,3.9406,3.9406,3.9406,3.9406,3.9331,3.8658,3.8389,3.8389,3.8389,3.8389,3.8389,3.8389,3.8389,3.8389,3.8389,3.8389,3.8389,3.8389,3.8389,3.8464,3.8811,3.8901,3.899,3.9316,3.9406,3.9406,3.9406,3.9406,3.9496,3.9825,3.9885,4.0008,4.0337,4.0397,4.0397,4.0397,4.0397,4.0292,3.9963,4.0187,4.0397,4.0397,4.0397,4.0397,4.0397,4.0397,4.0397,4.0397,4.0397,4.0262,3.9915,3.9589,3.9095,3.8419,3.846,3.9105,4.0368,4.0425,4.1054,4.23,4.23,4.23,4.2283,4.1538,4.12,0.0,0.0,0.0,0.0,0.0,0.0,0.0,0.0,2.4343,2.5008,2.5473,2.5992,2.6688,2.7248,2.7896,2.8769,2.9007,2.9233,2.9729,3.0457,3.1199,3.1974,3.2375,3.2464,3.2101,3.2485,3.2593,3.2246,3.306,3.35,3.3283,3.4053,3.4491,3.4491,3.593,3.6673,3.6673,3.7423,3.8234,3.9086,3.8215,3.8364,3.9406,3.9311,3.9389,3.9601,3.9735,3.978,3.978,3.978,3.978,3.978,3.978,3.978,3.975,3.9496,3.9406,3.9406,3.9406,3.9406,3.9406,3.9406,3.9406,3.9421,3.9556,3.9586,3.9616,3.975,3.978,3.978,3.978,3.978,3.978,3.978,3.978,3.9948,4.0472,4.0591,4.0741,4.1298,4.1403,4.1403,4.1403,4.1508,4.1373,4.0696,4.1059,4.1403,4.1403,4.1403,4.1403,4.1403,4.1403,4.1403,4.1403,4.1403,4.1179,4.0621,4.0591,4.0352,3.981,3.926,3.9627,4.1039,4.0515,4.0993,4.2492,4.2492,4.2574,4.2756,4.2756,4.2587,2.1394,2.1757,0.0,2.2782,2.3374,2.3954,0.0,0.0,2.5005,2.6097,2.6361,2.6713,2.772,2.8355,2.8769,2.8875,2.9346,2.9716,2.9779,2.9895,2.9998,3.0094,3.1586,3.1956,3.0273,3.2054,3.2629,3.0955,3.2923,3.3805,3.292,3.4343,3.5187,3.5187,3.5895,3.6278,3.6278,3.7281,3.7847,3.7975,3.7847,3.8364,3.9385,3.9038,3.9396,4.0322,4.0924,4.1179,4.1179,4.1179,4.1179,4.1179,4.1179,4.1179,4.1025,3.9825,3.9406,3.9406,3.9406,3.9406,3.9406,3.9406,3.9406,3.9511,4.0113,4.0292,4.0412,4.1014,4.1179,4.1179,4.1179,4.1179,4.1179,4.1179,4.1179,4.1209,4.1268,4.1283,4.1313,4.1388,4.1403,4.1403,4.1403,4.1882,4.2066,4.1388,4.1343,4.1403,4.1403,4.1403,4.1403,4.1403,4.1403,4.1403,4.1403,4.1403,4.1373,4.1283,4.1283,4.1254,4.1179,4.1104,4.124,4.1596,4.1538,4.2055,4.3178,4.3178,4.3594,4.4344,4.4344,4.3602,2.2257,0.0,0.0,0.0,2.4277,2.4707,2.559,2.5791,2.6105,2.7211,2.767,2.8034,2.848,2.9032,2.9428,0.0,2.9641,2.9792,2.9792,2.9792,2.9792,2.9792,3.0495,3.0652,2.9888,3.099,3.1448,3.0647,3.2136,3.2895,3.2462,3.3454,3.4013,3.4013,3.4866,3.5319,3.5319,3.5762,3.6472,3.7394,3.6758,3.7537,3.9507,3.9348,3.9886,4.0962,4.0537,4.0752,4.1403,4.1403,4.1403,4.1403,4.1403,4.1403,4.1328,4.0771,4.0561,4.0561,4.0561,4.0561,4.0561,4.0561,4.0561,4.0606,4.0909,4.0965,4.1044,4.1328,4.1403,4.1403,4.1403,4.1403,4.1403,4.1403,4.1403,4.1508,4.1897,4.1972,4.2092,4.2447,4.2502,4.2502,4.2502,4.2746,4.2836,4.2551,4.2502,4.2502,4.2502,4.2502,4.2502,4.2502,4.2502,4.2502,4.2502,4.2502,4.2357,4.1987,4.1972,4.1807,4.1418,4.1403,4.1687,4.2277,4.2295,4.3029,4.4526,4.4526,4.4988,4.5887,4.5887,4.5531,2.3308,0.0,0.0,2.5096,2.5272,2.5561,2.6683,2.6952,2.7198,2.8134,2.8631,2.8938,2.912,2.9515,2.9792,2.9792,2.9792,2.9792,2.9792,2.9792,2.9842,2.9993,3.0018,3.008,3.0218,3.0595,3.0884,3.1027,3.1926,3.2453,3.2453,3.2855,3.3102,3.3102,3.386,3.4332,3.4489,3.4755,3.5574,3.6865,3.6085,3.6909,3.9161,3.9648,4.0453,4.1434,4.086,4.1126,4.1923,4.1923,4.1923,4.1923,4.1923,4.1923,4.1923,4.1923,4.1703,4.1403,4.1403,4.1403,4.1403,4.1403,4.1403,4.1433,4.1613,4.1673,4.1703,4.1882,4.1923,4.1923,4.1923,4.1923,4.1923,4.1923,4.1923,4.2058,4.2541,4.2646,4.2776,4.322,4.329,4.329,4.329,4.329,4.329,4.329,4.329,4.329,4.329,4.329,4.329,4.329,4.329,4.329,4.329,4.329,4.3115,4.269,4.2646,4.2436,4.1938,4.1923,4.2127,4.2622,4.2606,4.342,4.5032,4.5032,4.5636,4.68,4.68,4.68,0.0,0.0,2.5042,2.6172,2.6449,2.6738,2.7808,2.8059,2.8204,2.8769,2.8888,2.9082,2.9666,2.9779,2.9792,2.9792,2.9792,2.9792,2.9792,2.9792,2.9993,3.05,3.0575,3.0783,0.0,3.1381,3.1587,3.2106,3.2717,3.3077,3.3077,3.309,3.3102,3.3102,3.3133,3.3397,3.3925,3.4959,3.5756,3.6322,3.6301,3.6869,3.8014,3.9771,4.0933,4.1647,4.2726,4.321,4.323,4.323,4.323,4.323,4.323,4.323,4.323,4.323,4.2457,4.1403,4.1403,4.1403,4.1403,4.1403,4.1403,4.1523,4.2171,4.2366,4.2481,4.307,4.323,4.323,4.323,4.323,4.323,4.323,4.323,4.3265,4.326,4.326,4.3275,4.329,4.329,4.329,4.329,4.329,4.329,4.329,4.329,4.329,4.329,4.329,4.329,4.329,4.329,4.329,4.329,4.329,4.329,4.326,4.326,4.326,4.323,4.323,4.297,4.2419,4.2404,4.2974,4.4143,4.4143,4.5064,4.68,4.68,4.68,2.5197,0.0,2.6105,2.6846,2.7298,2.7745,2.8467,2.8631,2.8794,2.939,2.9503,2.9566,2.9754,2.9792,2.9792,2.9792,2.9792,2.9792,2.9792,3.0105,3.0387,3.0575,3.0922,0.0,0.0,0.0,0.0,3.2202,3.2776,3.3102,3.3102,3.3102,3.3266,3.3608,3.3621,3.3884,3.4427,3.4803,3.5248,3.5774,3.6944,3.7683,3.8046,3.8653,3.9491,4.0447,4.0031,4.0718,4.2173,4.2173,4.2609,4.329,4.329,4.329,4.329,4.329,4.304,4.2651,4.2651,4.2651,4.2651,4.2651,4.2651,4.2696,4.294,4.3015,4.3025,4.325,4.329,4.329,4.329,4.329,4.329,4.329,4.329,4.329,4.329,4.329,4.329,4.329,4.329,4.329,4.329,4.329,4.3439,4.3908,4.3574,4.329,4.329,4.329,4.329,4.329,4.329,4.329,4.329,4.329,4.329,4.329,4.329,4.329,4.329,4.329,4.3205,4.3015,4.3015,4.351,4.4556,4.4556,4.5204,4.6403,4.6403,4.675,2.6,2.6482,2.6947,2.7682,2.8134,2.853,2.9082,2.922,2.9321,2.9716,2.9792,2.9792,2.9792,2.9792,2.9792,2.9792,2.9792,2.9792,2.9792,3.0269,3.0663,3.0851,3.1361,3.1901,0.0,0.0,0.0,3.2516,3.2889,3.3102,3.3102,3.3291,3.3533,3.3884,3.4085,3.4439,3.4992,3.4992,3.5268,3.5843,3.696,3.7507,3.7494,3.7916,3.8514,3.9227,3.8894,3.961,4.1,4.1,4.1664,4.2684,4.2684,4.2941,4.329,4.329,4.329,4.329,4.329,4.329,4.329,4.329,4.329,4.329,4.329,4.329,4.329,4.329,4.329,4.329,4.329,4.329,4.329,4.329,4.329,4.329,4.329,4.329,4.329,4.329,4.3504,4.3668,4.3668,4.3863,4.4162,4.4601,4.4282,4.4012,4.4012,4.4012,4.4012,4.4012,4.4012,4.4012,4.4012,4.4012,4.4012,4.4012,4.4012,4.4012,4.4012,4.3788,4.3668,4.3668,4.3409,4.3791,4.4793,4.4793,4.5266,4.6208,4.6815,4.7411,2.701,2.7336,2.762,2.8643,2.8913,2.9095,2.9666,2.9792,2.9792,2.9792,2.9792,2.9792,0.0,0.0,2.9792,2.9792,2.9792,2.9804,2.9829,3.0306,3.0846,0.0,0.0,0.0,0.0,0.0,0.0,3.314,0.0,3.3102,3.314,3.3608,3.3922,3.3985,3.4477,3.5004,3.5533,3.5545,3.582,3.6405,3.6405,3.6405,3.6428,3.7517,3.8007,3.8075,3.9227,3.9746,3.9812,3.9812,4.049,4.1504,4.1504,4.2173,4.3135,4.319,4.321,4.323,4.327,4.329,4.329,4.329,4.329,4.329,4.329,4.329,4.329,4.329,4.329,4.329,4.329,4.329,4.329,4.329,4.329,4.3305,4.3334,4.3349,4.3349,4.3394,4.3923,4.4341,4.4341,4.4915,4.5349,4.5349,4.5379,4.5379,4.5304,4.5289,4.5289,4.5289,4.5289,4.5289,4.5289,4.5289,4.5289,4.5289,4.5289,4.5289,4.5289,4.4691,4.4341,4.4341,4.3728,4.3877,4.4826,4.4826,4.5284,4.6195,4.7782,4.8555,2.7223,2.7883,2.8555,2.8831,2.9233,2.9616,2.9754,2.9792,2.9792,2.9792,2.9792,2.9792,0.0,0.0,0.0,2.9792,2.9792,0.0,3.0344,3.0859,0.0,3.1938,0.0,3.2939,3.309,3.3102,0.0,0.0,3.3329,3.3278,3.3671,3.3822,3.4274,3.5079,3.5219,3.5581,3.6168,3.618,3.6243,3.6405,3.6405,3.6405,3.6405,3.6686,3.6826,3.6849,3.7163,3.7769,3.8559,3.8559,3.9258,4.0318,4.0318,4.0511,4.0866,4.1705,4.2029,4.2152,4.3016,4.329,4.329,4.329,4.329,4.329,4.329,4.329,4.329,4.329,4.329,4.329,4.329,4.329,4.329,4.329,4.329,4.3444,4.3938,4.4042,4.4192,4.4691,4.493,4.505,4.505,4.5603,4.6046,4.6046,4.6471,4.6426,4.5424,4.5289,4.5289,4.5289,4.5289,4.5289,4.5289,4.5289,4.5289,4.5289,4.5289,4.5289,4.5289,4.514,4.505,4.505,4.4885,4.4924,4.5173,4.5173,4.5299,4.5529,4.5975,4.6551,2.7871,2.8442,2.8969,2.9233,2.9553,2.9792,2.9792,2.9792,2.9792,2.9792,2.9792,0.0,0.0,0.0,0.0,0.0,0.0,0.0,3.0512,3.106,3.1599,0.0,3.2717,0.0,3.3102,3.3316,3.3592,0.0,3.3608,3.3684,3.4223,3.4465,3.4879,3.5483,3.5757,3.6056,3.6405,3.6405,3.6405,3.6405,3.6405,3.6405,3.6405,3.6405,3.6405,3.6405,0.0,3.6756,3.7345,3.7345,3.8052,3.9117,3.9117,3.9754,4.0724,4.1358,4.1912,4.2447,4.3076,4.329,4.329,4.329,4.329,4.329,4.329,4.329,4.329,4.329,4.329,4.329,4.329,4.3519,4.3743,4.3743,4.3967,4.4267,4.4661,4.4751,4.4945,4.5618,4.5738,4.5843,4.6127,4.6501,4.6734,4.6734,4.7048,4.704,4.6277,4.6187,4.6187,4.6187,4.6187,4.6187,4.6187,4.6187,4.6187,4.6187,4.6187,4.6187,4.6187,4.5903,4.5738,4.5738,4.5454,4.5289,4.5289,4.5289,4.5289,4.5325,4.604,4.6927,2.8631,2.8969,2.9145,2.9666,2.9792,2.9792,2.9792,2.9792,2.9792,2.9792,0.0,2.9792,2.9792,2.9792,2.9792,2.9792,0.0,3.0005,3.0633,3.111,3.1625,3.2252,3.2767,3.3128,3.3203,3.3621,3.396,3.411,3.4123,3.4324,3.4778,3.5245,3.5533,3.5631,3.6143,3.6405,3.6405,3.6405,3.6405,3.6405,3.6405,3.6405,3.6405,3.6405,3.6405,3.6405,3.6405,3.6405,3.6405,3.6405,3.6977,3.787,3.787,3.9112,4.0944,4.1091,4.1767,4.2664,4.2961,4.3076,4.3095,4.325,4.329,4.329,4.329,4.329,4.3324,4.3409,4.3424,4.3439,4.3549,4.3997,4.4431,4.4431,4.4885,4.5319,4.5409,4.5499,4.5738,4.6315,4.6435,4.6614,4.7204,4.7309,4.7309,4.7309,4.7309,4.7309,4.7309,4.7309,4.7309,4.7309,4.7309,4.7309,4.7309,4.7309,4.7309,4.7309,4.7309,4.7309,4.7309,4.6734,4.6435,4.6435,4.5858,4.5559,4.5559,4.5559,4.5559,4.5594,4.7063,4.8226,2.8731,2.9258,2.9666,2.9767,2.9792,2.9792,2.9792,2.9792,0.0,0.0,0.0,2.9792,2.9792,2.9792,2.9792,2.9792,0.0,0.0,0.0,0.0,3.1783,0.0,0.0,0.0,0.0,0.0,0.0,0.0,0.0,3.5257,3.5357,3.5445,3.5732,3.623,3.6344,3.6405,3.6405,3.6405,3.6405,3.6405,3.6405,3.6405,3.6405,3.6405,3.6405,3.6405,3.6405,0.0,3.6405,3.6405,3.6523,3.6698,3.6698,3.693,3.7415,3.8343,3.8823,3.9288,4.1218,4.1891,4.205,4.2981,4.329,4.329,4.329,4.329,4.3429,4.3967,4.4132,4.4252,4.4811,4.5035,4.5125,4.5125,4.5214,4.5454,4.6001,4.6576,4.6995,4.7115,4.713,4.7174,4.7279,4.7309,4.7309,4.7309,4.7309,4.7309,4.7309,4.7309,4.7309,4.7309,4.7309,4.7309,4.7309,4.7309,4.7309,4.7309,4.7309,4.7309,4.7309,4.7189,4.713,4.713,4.701,4.695,4.695,4.695,4.695,4.6965,4.7248,4.7485,2.9151,2.9578,2.9792,2.9792,2.9792,2.9792,2.9792,0.0,0.0,0.0,0.0,2.9792,2.9792,0.0,0.0,0.0,0.0,0.0,0.0,0.0,0.0,0.0,0.0,0.0,0.0,0.0,0.0,0.0,0.0,3.5968,3.5968,3.5968,3.6094,3.6405,3.6405,3.6405,3.6405,3.6405,3.6405,3.6405,3.6405,3.6405,3.6405,3.6405,3.6405,3.6405,3.6405,0.0,3.6405,3.6405,3.6405,3.6405,3.6405,3.6756,3.7345,3.7893,3.8491,3.9321,4.1398,4.2119,4.238,4.3866,4.4102,4.3818,4.3818,4.4057,4.4401,4.4736,4.4825,4.49,4.5214,4.5559,4.5807,4.5807,4.6097,4.6426,4.6734,4.7063,4.7309,4.7309,4.7309,4.7309,4.7309,4.7309,4.7309,4.7309,4.7309,4.7309,4.7309,4.7309,4.7309,4.7309,4.7309,4.7309,4.7309,4.7309,4.7309,4.7309,4.7309,4.7309,4.7309,4.7309,4.7309,4.7309,4.7309,4.7309,4.7309,4.7309,4.7309,4.7309,4.7309,4.7566,2.9327,2.9691,2.9792,2.9792,2.9792,2.9792,2.9792,2.9792,0.0,0.0,2.9792,2.9792,2.9792,0.0,0.0,0.0,0.0,0.0,0.0,0.0,0.0,0.0,0.0,0.0,0.0,0.0,0.0,0.0,0.0,0.0,3.6405,3.6405,3.6405,3.6405,3.6405,3.6405,3.6405,3.6405,3.6405,3.6405,3.6405,3.6405,3.6405,3.6405,3.6405,3.6405,3.6405,0.0,0.0,3.6405,3.6405,3.6405,3.6405,3.6953,3.7733,3.7733,3.8404,3.9552,4.124,4.1886,4.2258,4.3945,4.4487,4.4506,4.4506,4.4885,4.5334,4.5469,4.5514,4.5544,4.5678,4.6127,4.651,4.651,4.6935,4.7309,4.7309,4.7309,4.7309,4.7309,4.7309,4.7309,4.7309,4.7309,4.7309,4.7309,4.7309,4.7309,4.7309,4.7309,4.7309,4.7309,4.7309,4.7309,4.7309,4.7309,4.7309,4.7309,4.7309,4.7309,4.7309,4.7309,4.7309,4.7309,4.7309,4.7309,4.7309,4.7309,4.7309,4.7309,4.7309,4.7834,2.8819,2.9371,2.9792,2.9792,2.9792,2.9792,2.9792,0.0,0.0,2.9792,2.9792,2.9792,2.9792,2.9792,0.0,0.0,0.0,3.0168,0.0,0.0,0.0,0.0,0.0,0.0,0.0,0.0,0.0,0.0,0.0,3.6405,3.6405,3.6405,3.6405,3.6405,3.6405,3.6405,3.6405,3.6405,3.6405,3.6405,3.6405,3.6405,3.6405,3.6405,3.6405,3.6405,3.6405,0.0,0.0,3.6405,3.6405,3.6405,3.6405,3.6452,3.6557,3.6557,3.692,3.7613,3.8813,3.9601,4.0254,4.1457,4.3387,4.5214,4.5214,4.5244,4.5424,4.6031,4.6211,4.6345,4.6965,4.716,4.7219,4.7219,4.7264,4.7309,4.7309,4.7309,4.7309,4.7309,4.7309,4.7309,4.7309,4.7309,4.7309,4.7309,4.7309,4.7309,4.7309,4.7309,4.7309,4.7309,4.7309,4.7309,4.7309,4.7309,4.7309,4.7309,4.7309,4.7309,4.7309,4.7309,4.7309,4.7309,4.7309,4.7309,4.7309,4.7309,4.7309,4.7309,4.7309,4.7834,2.8668,2.9082,2.9352,2.9704,2.9792,2.9792,2.9792,0.0,2.9792,2.9792,2.9792,2.9792,2.9792,2.9792,2.9792,0.0,0.0,0.0,0.0,0.0,0.0,0.0,0.0,0.0,0.0,0.0,0.0,0.0,0.0,3.6405,3.6405,3.6405,3.6405,3.6405,3.6405,3.6405,3.6405,3.6405,3.6405,3.6405,3.6405,3.6405,3.6405,3.6405,3.6405,3.6405,3.6405,0.0,0.0,3.6405,3.6405,3.6405,3.6405,3.6595,3.6884,3.6884,3.7235,3.7909,3.9499,4.0192,4.0659,4.2203,4.3397,4.4285,4.4647,4.5588,4.6561,4.683,4.6899,4.6958,4.7234,4.7309,4.7309,4.7309,4.7309,4.7309,4.7309,4.7309,4.7309,4.7309,4.7309,4.7309,4.7309,4.7309,4.7309,4.7309,4.7309,4.7309,4.7309,4.7309,4.7309,4.7309,4.7309,4.7309,4.7309,4.7309,4.7309,4.7309,4.7309,4.7309,4.7309,4.7309,4.7309,4.7309,4.7309,4.7309,4.7309,4.7309,4.7309,4.7309,4.7309,4.7516,2.8185,2.8543,2.8769,2.9189,2.9302,2.934,0.0,0.0,2.9578,2.9754,2.9792,2.9792,2.9792,2.9792,2.9792,2.9792,2.9792,3.0168,3.1256,0.0,0.0,0.0,0.0,0.0,0.0,0.0,0.0,0.0,3.6405,3.6405,3.6405,3.6405,3.6405,3.6405,3.6405,3.6405,3.6405,3.6405,3.6405,3.6405,3.6405,3.6405,3.6405,3.6405,3.6405,3.6405,3.6405,0.0,0.0,3.6405,3.6405,3.643,3.6557,3.6859,3.7223,3.7386,3.7776,3.8465,3.9774,4.034,4.0684,4.1961,4.2617,4.3088,4.3888,4.5349,4.6829,4.7186,4.7309,4.7309,4.7309,4.7309,4.7309,4.7309,4.7309,4.7309,4.7309,4.7309,4.7309,4.7309,4.7309,4.7309,4.7309,4.7309,4.7309,4.7309,4.7309,4.7309,4.7309,4.7309,4.7309,4.7309,4.7309,4.7309,4.7309,4.7309,4.7309,4.7309,4.7309,4.7309,4.7309,4.7309,4.7309,4.7309,4.7309,4.7309,4.7309,4.7504,4.7593,4.7593,4.7803,4.7878,2.7173,2.7695,2.8109,2.8122,2.8122,2.826,0.0,0.0,2.9082,2.9679,2.9792,2.9792,2.9792,2.9792,2.9792,2.9792,2.9792,3.0168,3.1256,0.0,0.0,0.0,0.0,0.0,0.0,0.0,0.0,0.0,3.6405,0.0,3.6405,3.6405,3.6405,3.6405,3.6405,3.6405,3.6405,3.6405,3.6405,3.6405,3.6405,3.6405,3.6405,3.6405,3.6405,3.6405,0.0,0.0,0.0,3.6405,3.6405,3.6444,3.6984,3.7198,3.7273,3.7801,3.8366,3.8881,3.8919,3.9271,3.971,3.9736,4.0605,4.1862,4.3132,4.4396,4.5689,4.6953,4.7309,4.7309,4.7309,4.7309,4.7309,4.7309,4.7309,4.7309,4.7309,4.7309,4.7309,4.7309,4.7309,4.7309,4.7309,4.7309,4.7309,4.7309,4.7309,4.7309,4.7309,4.7309,4.7309,4.7309,4.7309,4.7309,4.7309,4.7309,4.7309,4.7309,4.7309,4.7309,4.7309,4.7309,4.7309,4.7309,4.7309,4.7309,4.7309,4.7952,4.8304,4.8319,4.8962,4.9284,2.6859,2.6921,2.6773,2.7832,2.8109,2.8129,2.8304,2.8643,2.8938,2.9145,2.9515,2.9792,2.9792,2.9792,2.9792,2.9792,2.9792,3.0168,0.0,0.0,0.0,0.0,0.0,0.0,0.0,0.0,0.0,3.6405,3.6405,3.6405,3.6405,3.6405,3.6405,3.6405,3.6405,3.6405,3.6405,3.6405,3.6405,3.6405,3.6405,3.6405,3.6405,3.6405,3.6405,0.0,0.0,0.0,0.0,3.6405,3.6405,3.6444,3.6997,3.7412,3.7814,3.8391,3.8982,3.9459,3.9459,3.9546,3.9697,3.9697,3.9981,4.0529,4.1813,4.3693,4.5666,4.6953,4.7309,4.7309,4.7309,4.7309,4.7309,4.7309,4.7309,4.7309,4.7309,4.7309,4.7309,4.7309,4.7309,4.7309,4.7309,4.7309,4.7309,4.7309,4.7309,4.7309,4.7309,4.7309,4.7309,4.7309,4.7309,4.7309,4.7309,4.7309,4.7309,4.7309,4.7309,4.7309,4.7309,4.7309,4.7519,4.7967,4.7982,4.8214,4.8663,4.8873,4.8977,4.8977,4.9187,4.9531,0.0,2.5577,2.5733,2.6693,2.6936,0.0,2.7673,2.7921,2.8187,2.8781,2.939,2.9792,2.9792,2.9792,2.9792,2.9792,2.9792,3.0168,0.0,0.0,0.0,0.0,0.0,0.0,0.0,0.0,3.6405,3.6405,3.6405,3.6405,3.6405,3.6405,3.6405,3.6405,3.6405,3.6405,3.6405,3.6405,3.6405,3.6405,3.6405,3.6405,3.6405,3.6405,3.6405,0.0,0.0,0.0,0.0,3.6405,3.6531,3.6746,3.7274,3.7839,3.8404,3.8994,3.9421,3.9697,3.9697,3.9697,3.9697,3.9697,4.0032,4.0554,4.1369,4.305,4.4941,4.6211,4.6594,4.6682,4.7186,4.7309,4.7309,4.7309,4.7309,4.7309,4.7309,4.7309,4.7309,4.7309,4.7309,4.7309,4.7309,4.7309,4.7309,4.7309,4.7309,4.7309,4.7309,4.7309,4.7309,4.7309,4.7534,4.7683,4.7683,4.7459,4.7309,4.7309,4.7534,4.7683,4.7683,4.7923,4.8259,4.8678,4.8678,4.8873,4.9292,4.9531,4.9763,5.0025,5.0025,5.0227,0.0,2.3736,2.4915,2.4969,2.4987,2.5385,2.6898,2.684,0.0,2.8525,2.9295,2.9702,2.9792,2.9792,2.9792,2.9792,2.9792,0.0,0.0,0.0,0.0,0.0,0.0,0.0,0.0,3.6405,3.6405,3.6405,3.6405,3.6405,3.6405,3.6405,3.6405,3.6405,3.6405,3.6405,3.6405,3.6405,3.6405,3.6405,3.6405,3.6405,3.6405,3.6405,3.6405,0.0,0.0,3.6405,0.0,3.6405,3.6708,3.7236,3.7789,3.8366,3.8957,3.9484,3.9697,3.9697,3.9697,3.9697,3.9697,3.9697,4.0503,4.1455,4.1455,4.2412,4.3764,4.4918,4.5335,4.5666,4.6851,4.7229,4.7309,4.7309,4.7309,4.7309,4.7309,4.7309,4.7309,4.7309,4.7309,4.7309,4.7309,4.7309,4.7309,4.7309,4.7309,4.7324,4.7369,4.7369,4.7399,4.7444,4.7997,4.8379,4.8379,4.7803,4.7444,4.7444,4.8012,4.8379,4.8379,4.8962,4.9307,4.9352,4.9396,4.9426,4.9426,4.9994,5.0592,5.1191,5.1191,5.1191,2.037,0.0,2.4036,2.4808,2.4987,2.53,0.0,2.6006,2.5935,0.0,0.0,2.8767,2.9643,2.9792,2.9792,2.9792,2.9792,3.0168,0.0,0.0,0.0,0.0,0.0,0.0,0.0,3.6405,3.6405,3.6405,3.6405,3.6405,3.6405,3.6405,3.6405,3.6405,3.6405,3.6405,3.6405,3.6405,3.6405,3.6405,3.6405,3.6405,3.6405,3.6405,3.6405,0.0,0.0,3.6405,3.6405,3.6405,3.6708,3.7236,3.7789,3.8366,3.8957,3.9484,3.9697,3.9697,3.9697,3.9697,3.9697,3.9697,3.9916,4.0147,4.0147,4.1715,4.3575,4.3858,4.4642,4.5471,4.5779,4.6572,4.7309,4.7309,4.7309,4.7309,4.7309,4.7309,4.7309,4.7309,4.7309,4.7309,4.7309,4.7309,4.7309,4.7309,4.7309,4.7489,4.7997,4.8057,4.8274,4.8783,4.8962,4.9052,4.9052,4.8917,4.8828,4.8828,4.8977,4.9052,4.9052,4.9224,4.9531,4.9979,5.0473,5.075,5.075,5.0892,5.1041,5.1191,5.1191,5.1191,2.0089,2.1531,2.3408,2.4135,2.4319,2.4766,2.6487,0.0,0.0,0.0,0.0,0.0,2.8917,2.9456,0.0,2.9106,2.9667,0.0,0.0,0.0,0.0,0.0,0.0,0.0,0.0,3.6405,3.6405,3.6405,3.6405,3.6405,3.6405,3.6405,3.6405,3.6405,3.6405,3.6405,3.6405,3.6405,3.6405,3.6405,3.6405,3.6405,3.6405,3.6405,3.6405,0.0,3.6405,3.6405,3.643,3.6658,3.7085,3.7613,3.8178,3.8743,3.9308,3.9584,3.9697,3.9697,3.9697,3.9697,3.9697,3.9697,3.9697,3.9697,3.9697,4.0642,4.1887,4.2461,4.3551,4.4665,4.5252,4.6344,4.7309,4.7309,4.7309,4.7309,4.7309,4.7309,4.7309,4.7309,4.7309,4.7309,4.7309,4.7309,4.7399,4.7713,4.7758,4.7997,4.8678,4.8768,4.8902,4.9247,4.9561,4.9703,4.9703,4.9987,4.9935,4.9344,4.9576,4.9703,4.9703,5.0002,5.0331,5.0652,5.1011,5.1191,5.1191,5.1191,5.1191,5.1191,5.1191,5.1191,2.0415,2.15,2.2778,2.3172,2.3442,2.4162,2.6328,0.0,0.0,0.0,0.0,0.0,0.0,0.0,0.0,0.0,0.0,0.0,0.0,0.0,0.0,0.0,0.0,0.0,3.6331,3.6405,3.6405,3.6405,3.6405,3.6405,3.6405,3.6405,3.6405,3.6405,3.6405,3.6405,3.6405,3.6405,3.6405,3.6405,3.6405,3.6405,3.6405,3.6405,3.6405,3.6405,0.0,0.0,3.6545,3.7022,3.7563,3.8191,3.8705,3.9233,3.9697,3.9697,3.9697,3.9697,3.9697,3.9697,3.9697,3.9697,3.9697,3.9697,3.9697,3.9697,3.9929,4.1007,4.2363,4.3764,4.4826,4.6211,4.7309,4.7309,4.7309,4.7309,4.7309,4.7309,4.7309,4.7309,4.7309,4.7309,4.7309,4.7384,4.7653,4.8214,4.8394,4.8693,4.9352,4.9441,4.9471,4.9576,5.0062,5.0345,5.0345,5.0877,5.075,4.9651,5.0054,5.0345,5.0345,5.0907,5.1191,5.1191,5.1191,5.1191,5.1191,5.1191,5.1191,5.1191,5.1191,5.1191,1.9585,2.0532,2.1735,2.2136,2.3174,2.4183,2.4593,0.0,0.0,0.0,0.0,0.0,0.0,0.0,0.0,0.0,0.0,0.0,0.0,0.0,0.0,0.0,0.0,3.5744,3.6331,3.6405,3.6405,3.6405,3.6405,3.6405,3.6405,3.6405,3.6405,3.6405,3.6405,3.6405,3.6405,3.6405,3.6405,3.6405,3.6405,3.6405,3.6405,3.6405,3.6405,3.6405,0.0,3.6645,3.7085,3.7173,3.7826,3.8768,3.8856,3.9233,3.9697,3.9697,3.9697,3.9697,3.9697,3.9697,3.9697,3.9697,3.9697,3.9697,3.9697,3.9697,3.9736,3.9929,4.169,4.3551,4.374,4.5539,4.7309,4.7309,4.7309,4.7309,4.7309,4.7309,4.7309,4.7309,4.7309,4.7309,4.7309,4.7773,4.8177,4.8267,4.8783,4.9381,4.9979,5.0069,5.0278,5.0855,5.0981,5.1041,5.1041,5.1131,5.1116,5.093,5.0996,5.1041,5.1041,5.1146,5.1191,5.1191,5.1191,5.1191,5.1191,5.1191,5.1191,5.1191,5.1191,5.1191,1.9612,2.065,2.1707,2.159,2.292,2.438,2.4848,0.0,0.0,0.0,0.0,0.0,0.0,0.0,0.0,0.0,0.0,0.0,0.0,0.0,0.0,0.0,0.0,3.6094,3.638,3.6405,3.6405,3.6405,3.6405,3.6405,3.6405,3.6405,3.6405,3.6405,3.6405,3.6405,3.6405,3.6405,3.6405,3.6405,3.6405,3.6405,3.6405,3.6405,3.6405,3.6405,0.0,3.6695,3.7235,3.75,3.8115,3.8931,3.922,3.9471,3.9697,3.9697,3.9697,3.9697,3.9697,3.9697,3.9697,3.9697,3.9697,3.9697,3.9697,3.9697,3.9697,3.9697,4.1032,4.2485,4.2485,4.3858,4.5426,4.6107,4.6277,4.6469,4.7142,4.7309,4.7309,4.7309,4.7309,4.7414,4.7773,4.8087,4.8521,4.9217,4.9598,5.0032,5.0667,5.0742,5.0862,5.1161,5.1191,5.1191,5.1191,5.1191,5.1191,5.1191,5.1191,5.1191,5.1191,5.1191,5.1191,5.1191,5.1191,5.1191,5.1191,5.1191,5.1191,5.1191,5.1191,5.1191,1.9786,2.0836,2.1736,2.145,0.0,2.4202,2.4739,0.0,0.0,0.0,0.0,0.0,0.0,0.0,0.0,0.0,0.0,0.0,0.0,3.4022,3.4703,3.4703,3.5715,3.6405,3.6405,3.6405,3.6405,3.6405,3.6405,3.6405,3.6405,3.6405,3.6405,3.6405,3.6405,3.6405,3.6405,3.6405,3.6405,3.6405,3.6405,3.6405,3.6405,3.6405,3.6405,3.6417,3.6519,3.6884,3.7425,3.7977,3.8542,3.9132,3.9534,3.9697,3.9697,3.9697,3.9697,3.9697,3.9697,3.9697,3.9697,3.9697,3.9697,3.9697,3.9697,3.9697,3.9697,3.9697,4.0415,4.1219,4.153,4.2762,4.4186,4.5161,4.5644,4.6107,4.7084,4.7309,4.7309,4.7309,4.7429,4.7698,4.8214,4.8536,4.909,5.0046,5.0315,5.0622,5.1131,5.1191,5.1191,5.1191,5.1191,5.1191,5.1191,5.1191,5.1191,5.1191,5.1191,5.1191,5.1191,5.1191,5.1191,5.1191,5.1191,5.1191,5.1191,5.1191,5.1191,5.1191,5.1191,5.1191,1.9786,2.0556,2.1349,2.1749,0.0,0.0,2.2825,0.0,0.0,0.0,0.0,0.0,0.0,0.0,0.0,0.0,0.0,3.2416,3.3027,0.0,3.4703,3.4703,3.5715,3.6405,3.6405,3.6405,3.6405,3.6405,3.6405,3.6405,3.6405,3.6405,3.6405,3.6405,3.6405,3.6405,3.6405,3.6405,3.6405,3.6405,3.6405,3.6405,3.6405,3.6405,3.6405,3.643,3.6934,3.7437,3.799,3.8592,3.9158,3.9634,3.9672,3.9697,3.9697,3.9697,3.9697,3.9697,3.9697,3.9697,3.9697,3.9697,3.9697,3.9697,3.9697,3.9697,3.9697,3.9697,3.9762,4.0096,4.1294,4.3432,4.5275,4.538,4.6299,4.7186,4.7287,4.7309,4.7309,4.7309,4.7803,4.8244,4.8304,4.9276,5.0076,5.0181,5.0727,5.1146,5.1191,5.1191,5.1191,5.1191,5.1191,5.1191,5.1191,5.1191,5.1191,5.1191,5.1191,5.1191,5.1191,5.1191,5.1191,5.1191,5.1191,5.1191,5.1191,5.1191,5.1191,5.1191,5.1191,5.1191,2.0214,2.1288,0.0,0.0,0.0,0.0,0.0,0.0,0.0,0.0,0.0,0.0,0.0,0.0,0.0,0.0,0.0,3.2851,3.3065,3.4022,3.4703,3.4703,3.5715,3.6405,3.6405,3.6405,3.6405,3.6405,3.6405,3.6405,3.6405,3.6405,3.6405,3.6405,3.6405,3.6405,3.6405,3.6405,3.6405,3.6405,3.6405,3.6405,3.6405,3.6405,3.6405,3.6443,3.6972,3.75,3.8052,3.8655,3.922,3.9697,3.9697,3.9697,3.9697,3.9697,3.9697,3.9697,3.9697,3.9697,3.9697,3.9697,3.9697,3.9697,3.9697,3.9697,3.9697,3.9697,3.9697,3.9813,4.0287,4.1715,4.3242,4.4022,4.5184,4.6344,4.7142,4.7309,4.7429,4.7833,4.8139,4.8551,4.9336,4.989,5.0353,5.0772,5.1041,5.1191,5.1191,5.1191,5.1191,5.1191,5.1191,5.1191,5.1191,5.1191,5.1191,5.1191,5.1191,5.1191,5.1191,5.1191,5.1191,5.1191,5.1191,5.1191,5.1191,5.1191,5.1191,5.1191,5.1191,5.1191,2.0625,2.1669,2.2501,0.0,0.0,0.0,0.0,0.0,0.0,0.0,0.0,0.0,0.0,0.0,0.0,0.0,3.17,3.2633,3.3047,3.4022,3.4703,3.4703,3.5715,3.6405,3.6405,3.6405,3.6405,3.6405,3.6405,3.6405,3.6405,3.6405,3.6405,3.6405,3.6405,3.6405,3.6405,3.6405,3.6405,3.6405,3.6405,3.6405,3.6405,3.6405,3.6482,3.667,3.7223,3.7764,3.8329,3.8919,3.9384,3.9697,3.9697,3.9697,3.9697,3.9697,3.9697,3.9697,3.9697,3.9697,3.9697,3.9697,3.9697,3.9697,3.9697,3.9697,3.9697,3.9697,3.9697,3.9697,3.9697,4.0642,4.1912,4.3194,4.448,4.5756,4.7019,4.7474,4.7743,4.8214,4.8611,4.9179,5.0046,5.0383,5.0682,5.1131,5.1191,5.1191,5.1191,5.1191,5.1191,5.1191,5.1191,5.1191,5.1191,5.1191,5.1191,5.1191,5.1191,5.1191,5.1191,5.1191,5.1191,5.1191,5.1191,5.1191,5.1191,5.1191,5.1191,5.1191,5.1191,5.1191,2.0956,2.1553,2.2003,0.0,0.0,0.0,0.0,0.0,0.0,0.0,0.0,0.0,0.0,0.0,0.0,3.0906,3.1201,3.1633,3.2905,3.4022,3.469,3.4703,3.5715,3.6405,3.6405,3.6405,3.6405,3.6405,3.6405,3.6405,3.6405,3.6405,3.6405,3.6405,3.6405,3.6405,3.6405,3.6405,3.6405,3.6405,3.6405,3.6405,3.6405,3.6405,3.6683,3.7235,3.7764,3.8329,3.8931,3.9497,3.9697,3.9697,3.9697,3.9697,3.9697,3.9697,3.9697,3.9697,3.9697,3.9697,3.9697,3.9697,3.9697,3.9697,3.9697,3.9697,3.9697,3.9697,3.9697,3.9697,3.9697,4.0655,4.1912,4.3194,4.448,4.5756,4.7019,4.7833,4.8304,4.8319,4.9336,5.0196,5.0196,5.0772,5.1191,5.1191,5.1191,5.1191,5.1191,5.1191,5.1191,5.1191,5.1191,5.1191,5.1191,5.1191,5.1191,5.1191,5.1191,5.1191,5.1191,5.1191,5.1191,5.1191,5.1191,5.1191,5.1191,5.1191,5.1191,5.1191,5.1191,5.1191,2.1054,2.208,0.0,0.0,0.0,0.0,0.0,0.0,0.0,0.0,0.0,0.0,0.0,0.0,0.0,2.9852,3.0653,3.1633,3.2905,3.3696,3.4286,3.4653,3.533,3.5931,3.6367,3.6405,3.6405,3.6405,3.6405,3.6405,3.6405,3.6405,3.6405,3.6405,3.6405,3.6405,3.6405,3.6405,3.6405,3.6405,3.6405,3.6405,3.6405,3.6405,3.6683,3.7235,3.7764,3.8329,3.8931,3.9497,3.9697,3.9697,3.9697,3.9697,3.9697,3.9697,3.9697,3.9697,3.9697,3.9697,3.9697,3.9697,3.9697,3.9697,3.9697,3.9697,3.9697,3.9697,3.9697,3.9697,3.9697,3.9981,4.0819,4.2978,4.448,4.5872,4.7636,4.8147,4.8566,4.9456,4.9949,5.0345,5.0832,5.1071,5.1191,5.1191,5.1191,5.1191,5.1191,5.1191,5.1191,5.1191,5.1191,5.1191,5.1191,5.1191,5.1191,5.1191,5.1191,5.1191,5.1191,5.1191,5.1191,5.1191,5.1191,5.1191,5.1191,5.1191,5.1191,5.1191,5.1191,5.1191,2.1357,2.2269,0.0,0.0,0.0,0.0,0.0,0.0,0.0,0.0,0.0,0.0,0.0,0.0,0.0,2.9875,3.0305,3.1089,3.284,3.3558,3.411,3.464,3.5157,3.5744,3.6331,3.6405,3.6405,3.6405,3.6405,3.6405,3.6405,3.6405,3.6405,3.6405,3.6405,3.6405,3.6405,3.6405,3.6405,3.6405,3.6405,3.6405,3.6417,3.6607,3.7009,3.755,3.8341,3.8868,3.9245,3.9585,3.9697,3.9697,3.9697,3.9697,3.9697,3.9697,3.9697,3.9697,3.9697,3.9697,3.9697,3.9697,3.9697,3.9697,3.9697,3.9697,3.9697,3.9697,3.9697,3.9697,3.9697,3.9697,4.0338,4.2882,4.4275,4.5634,4.783,4.8701,4.9276,5.0046,5.0428,5.0727,5.1131,5.1191,5.1191,5.1191,5.1191,5.1191,5.1191,5.1191,5.1191,5.1191,5.1191,5.1191,5.1191,5.1191,5.1191,5.1191,5.1191,5.1191,5.1191,5.1191,5.1191,5.1191,5.1191,5.1191,5.1191,5.1191,5.1191,5.1191,5.1191,5.1191,2.1768,0.0,0.0,0.0,0.0,0.0,0.0,0.0,0.0,0.0,0.0,0.0,0.0,0.0,2.6863,3.044,3.0135,3.0271,3.2754,3.353,3.4048,3.4628,3.5119,3.5682,3.6331,3.6405,3.6405,3.6405,3.6405,3.6405,3.6405,3.6405,3.6405,3.6405,3.6405,3.6405,3.6405,3.6405,3.6405,3.6405,3.6405,3.6405,3.643,3.6959,3.7513,3.814,3.922,3.9697,3.9697,3.9697,3.9697,3.9697,3.9697,3.9697,3.9697,3.9697,3.9697,3.9697,3.9697,3.9697,3.9697,3.9697,3.9697,3.9697,3.9697,3.9697,3.9697,3.9697,3.9697,3.9697,3.9697,3.9788,4.0491,4.2999,4.4049,4.5221,4.7822,4.9336,5.0211,5.0293,5.0787,5.1191,5.1191,5.1191,5.1191,5.1191,5.1191,5.1191,5.1191,5.1191,5.1191,5.1191,5.1191,5.1191,5.1191,5.1191,5.1191,5.1191,5.1191,5.1191,5.1191,5.1191,5.1191,5.1191,5.1191,5.1191,5.1191,5.1191,5.1191,5.1191,5.1191,5.1191,2.1768,2.2197,0.0,0.0,0.0,0.0,0.0,0.0,0.0,0.0,0.0,0.0,0.0,2.6572,2.661,2.9327,2.9567,3.0271,3.2754,3.3203,3.3621,3.459,3.4803,3.5255,3.6293,3.6405,3.6405,3.6405,3.6405,3.6405,3.6405,3.6405,3.6405,3.6405,3.6405,3.6405,3.6405,3.6405,3.6405,3.6405,3.6405,3.6405,3.643,3.6959,3.7751,3.8743,3.9396,3.9697,3.9697,3.9697,3.9697,3.9697,3.9697,3.9697,3.9697,3.9697,3.9697,3.9697,3.9697,3.9697,3.9697,3.9697,3.9697,3.9697,3.9697,3.9697,3.9697,3.9697,3.9697,3.9697,3.9697,4.044,4.171,4.3784,4.4401,4.5334,4.8422,4.9673,5.0368,5.0892,5.1101,5.1191,5.1191,5.1191,5.1191,5.1191,5.1191,5.1191,5.1191,5.1191,5.1191,5.1191,5.1191,5.1191,5.1191,5.1191,5.1191,5.1191,5.1191,5.1191,5.1191,5.1191,5.1191,5.1191,5.1191,5.1191,5.1191,5.1191,5.1191,5.1191,5.1191,5.1191,0.0,0.0,0.0,0.0,0.0,0.0,0.0,0.0,0.0,0.0,0.0,0.0,2.6572,2.6644,2.721,2.9085,2.9407,3.0271,3.2754,3.2568,3.2798,3.4497,3.4703,3.5152,3.6281,3.6405,3.6405,3.6405,3.6405,3.6405,3.6405,3.6405,3.6405,3.6405,3.6405,3.6405,3.6405,3.6405,3.6405,3.6405,3.6405,3.6658,3.7185,3.745,3.8191,3.9308,3.9572,3.9697,3.9697,3.9697,3.9697,3.9697,3.9697,3.9697,3.9697,3.9697,3.9697,3.9697,3.9697,3.9697,3.9697,3.9697,3.9697,3.9697,3.9697,3.9697,3.9697,3.9697,3.9697,3.9697,3.9697,4.0376,4.1652,4.3944,4.5202,4.659,4.9166,5.0219,5.0787,5.1131,5.1191,5.1191,5.1191,5.1191,5.1191,5.1191,5.1191,5.1191,5.1191,5.1191,5.1191,5.1191,5.1191,5.1191,5.1191,5.1191,5.1191,5.1191,5.1191,5.1191,5.1191,5.1191,5.1191,5.1191,5.1191,5.1191,5.1191,5.1191,5.1191,5.1191,5.1191,5.1191,0.0,0.0,0.0,0.0,0.0,0.0,0.0,0.0,0.0,0.0,0.0,2.5693,2.5693,2.673,2.8002,2.92,2.9556,3.0496,3.2776,3.2196,3.2309,3.4452,3.4703,3.5152,3.6281,3.6405,3.6405,3.6405,3.6405,3.6405,3.6405,3.6405,3.6405,3.6405,3.6405,3.6405,3.6405,3.6405,3.6405,3.6405,3.6482,3.7047,3.8002,3.8115,3.8718,3.9697,3.9697,3.9697,3.9697,3.9697,3.9697,3.9697,3.9697,3.9697,3.9697,3.9697,3.9697,3.9697,3.9697,3.9697,3.9697,3.9697,3.9697,3.9697,3.9697,3.9697,3.9697,3.9697,3.9697,3.9697,3.9697,4.0268,4.1492,4.4062,4.6138,4.8032,4.9816,5.0727,5.1191,5.1191,5.1191,5.1191,5.1191,5.1191,5.1191,5.1191,5.1191,5.1191,5.1191,5.1191,5.1191,5.1191,5.1191,5.1191,5.1191,5.1191,5.1191,5.1191,5.1191,5.1191,5.1191,5.1191,5.1191,5.1191,5.1191,5.1191,5.1191,5.1191,5.1191,5.1191,5.1191,5.1191,0.0,0.0,0.0,0.0,0.0,0.0,0.0,0.0,0.0,0.0,2.5693,2.5693,2.5693,2.673,2.8002,2.92,3.0271,3.1456,3.2896,3.2961,3.3296,3.4542,3.4703,3.5152,3.6281,3.6405,3.6405,3.6405,3.6405,3.6405,3.6405,3.6405,3.6405,3.6405,3.6405,3.6405,3.6405,3.6405,3.6405,3.6417,3.6871,3.74,3.8027,3.8555,3.912,3.9697,3.9697,3.9697,3.9697,3.9697,3.9697,3.9697,3.9697,3.9697,3.9697,3.9697,3.9697,3.9697,3.9697,3.9697,3.9697,3.9697,3.9697,3.9697,3.9697,3.9697,3.9697,3.9697,3.9697,3.9697,3.9697,4.0927,4.2682,4.4853,4.6765,4.8484,4.9897,5.0727,5.1191,5.1191,5.1191,5.1191,5.1191,5.1191,5.1191,5.1191,5.1191,5.1191,5.1191,5.1191,5.1191,5.1191,5.1191,5.1191,5.1191,5.1191,5.1191,5.1191,5.1191,5.1191,5.1191,5.1191,5.1191,5.1191,5.1191,5.1191,5.1191,5.1191,5.1191,5.1191,5.1191,5.1191,2.244,0.0,0.0,0.0,0.0,0.0,0.0,0.0,0.0,2.5234,2.5542,2.5693,2.5693,2.7281,2.8773,2.9315,3.0406,3.1633,3.2905,3.2784,3.3088,3.4535,3.4979,3.5468,3.6329,3.6405,3.6405,3.6405,3.6405,3.6405,3.6405,3.6405,3.6405,3.6405,3.6405,3.6405,3.6405,3.6405,3.6545,3.6846,3.7374,3.7939,3.8529,3.9095,3.9497,3.9697,3.9697,3.9697,3.9697,3.9697,3.9697,3.9697,3.9697,3.9697,3.9697,3.9697,3.9697,3.9697,3.9697,3.9697,3.9697,3.9697,3.9697,3.9697,3.9697,3.9697,3.9697,3.9697,3.9697,3.9772,4.0074,4.0946,4.2502,4.5283,4.6793,4.8151,5.0306,5.0981,5.1191,5.1191,5.1191,5.1191,5.1191,5.1191,5.1191,5.1191,5.1191,5.1191,5.1191,5.1191,5.1191,5.1191,5.1191,5.1191,5.1191,5.1191,5.1191,5.1191,5.1191,5.1191,5.1191,5.1191,5.1191,5.1191,5.1191,5.1191,5.1191,5.1191,5.1191,5.1191,5.1191,5.1191,0.0,0.0,0.0,0.0,0.0,0.0,0.0,0.0,2.4541,0.0,2.543,2.5693,2.5693,2.7733,2.9407,2.9407,3.0676,3.2008,3.2961,3.2796,3.3099,3.4537,3.5157,3.5744,3.6331,3.6405,3.6405,3.6405,3.6405,3.6405,3.6405,3.6405,3.6405,3.6405,3.6405,3.6405,3.6405,3.6405,3.6658,3.7223,3.7739,3.8316,3.8919,3.9472,3.9697,3.9697,3.9697,3.9697,3.9697,3.9697,3.9697,3.9697,3.9697,3.9697,3.9697,3.9697,3.9697,3.9697,3.9697,3.9697,3.9697,3.9697,3.9697,3.9697,3.9697,3.9697,3.9697,3.9697,3.9697,3.9823,4.0349,4.0901,4.2152,4.5503,4.6717,4.7847,5.0603,5.1191,5.1191,5.1191,5.1191,5.1191,5.1191,5.1191,5.1191,5.1191,5.1191,5.1191,5.1191,5.1191,5.1191,5.1191,5.1191,5.1191,5.1191,5.1191,5.1191,5.1191,5.1191,5.1191,5.1191,5.1191,5.1191,5.1191,5.1191,5.1191,5.1191,5.1191,5.1191,5.1191,5.1191,5.1191,0.0,0.0,0.0,0.0,0.0,0.0,0.0,0.0,0.0,2.5004,2.543,2.5693,2.5693,2.7733,2.9407,2.9407,3.1424,3.3025,3.3102,3.3502,3.4031,3.464,3.5157,3.5744,3.6331,3.6405,3.6405,3.6405,3.6405,3.6405,3.6405,3.6405,3.6405,3.6405,3.6405,3.6405,3.6405,3.6405,3.6658,3.7223,3.7739,3.8316,3.8919,3.9472,3.9697,3.9697,3.9697,3.9697,3.9697,3.9697,3.9697,3.9697,3.9697,3.9697,3.9697,3.9697,3.9697,3.9697,3.9697,3.9697,3.9697,3.9697,3.9697,3.9697,3.9697,3.9697,3.9697,3.9697,3.9697,3.9823,4.0349,4.0901,4.2152,4.5503,4.6717,4.7847,5.0603,5.1191,5.1191,5.1191,5.1191,5.1191,5.1191,5.1191,5.1191,5.1191,5.1191,5.1191,5.1191,5.1191,5.1191,5.1191,5.1191,5.1191,5.1191,5.1191,5.1191,5.1191,5.1191,5.1191,5.1191,5.1191,5.1191,5.1191,5.1191,5.1191,5.1191,5.1191,5.1191,5.1191,5.1191,5.1191,0.0,0.0,0.0,0.0,0.0,0.0,0.0,2.3893,2.4463,2.4619,2.5201,2.5941,2.6778,2.8296,2.9407,2.9407,3.149,3.3102,3.3102,3.3859,3.4477,3.4678,3.5516,3.6168,3.6392,3.6405,3.6405,3.6405,3.6405,3.6405,3.6405,3.6405,3.6405,3.6405,3.6405,3.6405,3.6405,3.6405,3.6833,3.7713,3.7914,3.8504,3.9434,3.9597,3.9697,3.9697,3.9697,3.9697,3.9697,3.9697,3.9697,3.9697,3.9697,3.9697,3.9697,3.9697,3.9697,3.9697,3.9697,3.9697,3.9697,3.9697,3.9697,3.9697,3.9697,3.9697,3.9697,3.9697,3.9697,3.9898,4.0788,4.1832,4.3583,4.7272,4.8964,5.0008,5.0988,5.1191,5.1191,5.1191,5.1191,5.1191,5.1191,5.1191,5.1191,5.1191,5.1191,5.1191,5.1191,5.1191,5.1191,5.1191,5.1191,5.1191,5.1191,5.1191,5.1191,5.1191,5.1191,5.1191,5.1191,5.1191,5.1191,5.1191,5.1191,5.1191,5.1191,5.1191,5.1191,5.1191,5.1191,5.1191,0.0,0.0,0.0,0.0,0.0,2.3091,2.3091,0.0,2.4248,2.4362,2.5,2.5812,2.6771,2.8308,2.9544,2.9954,3.1745,3.3102,3.3102,3.3872,3.449,3.4678,3.5529,3.618,3.6392,3.6405,3.6405,3.6405,3.6405,0.0,3.6405,3.6405,3.6405,3.6405,3.6405,3.6405,3.6405,3.6405,3.6934,3.8002,3.8002,3.8605,3.9697,3.9697,3.9697,3.9697,3.9697,3.9697,3.9697,3.9697,3.9697,3.9697,3.9697,3.9697,3.9697,3.9697,3.9697,3.9697,3.9697,3.9697,3.9697,3.9697,3.9697,3.9697,3.9697,3.9697,3.9697,3.9697,3.9823,4.0174,4.1076,4.2613,4.4697,4.7777,4.9543,5.065,5.1097,5.1191,5.1191,5.1191,5.1191,5.1191,5.1191,5.1191,5.1191,5.1191,5.1191,5.1191,5.1191,5.1191,5.1191,5.1191,5.1191,5.1191,5.1191,5.1191,5.1191,5.1191,5.1191,5.1191,5.1191,5.1191,5.1191,5.1191,5.1191,5.1191,5.1191,5.1191,5.1191,5.1191,5.1191,5.1191,0.0,0.0,0.0,0.0,0.0,0.0,2.3091,0.0,2.3906,2.4293,2.4779,2.5243,2.5707,2.777,2.9818,3.1033,3.2283,3.3102,3.3102,3.3558,3.411,3.464,3.5157,3.5744,3.6331,3.6405,3.6405,3.6405,3.6405,3.6405,3.6405,3.6405,3.6405,3.6405,3.6405,3.6405,3.6405,3.6405,3.6934,3.8002,3.8002,3.8605,3.9697,3.9697,3.9697,3.9697,3.9697,3.9697,3.9697,3.9697,3.9697,3.9697,3.9697,3.9697,3.9697,3.9697,3.9697,3.9697,3.9697,3.9697,3.9697,3.9697,3.9697,3.9697,3.9697,3.9697,3.9697,3.9697,4.0086,4.0651,4.1243,4.3179,4.5382,4.6811,4.82,4.9567,5.0917,5.1191,5.1191,5.1191,5.1191,5.1191,5.1191,5.1191,5.1191,5.1191,5.1191,5.1191,5.1191,5.1191,5.1191,5.1191,5.1191,5.1191,5.1191,5.1191,5.1191,5.1191,5.1191,5.1191,5.1191,5.1191,5.1191,5.1191,5.1191,5.1191,5.1191,5.1191,5.1191,5.1191,5.1191,5.1191,2.3091,0.0,0.0,0.0,0.0,0.0,2.3091,2.3454,2.3828,2.3935,2.4574,2.5678,2.7584,2.8738,3.009,3.2239,3.2862,3.3102,3.3102,3.3558,3.411,3.464,3.5157,3.5744,3.6331,3.6405,3.6405,0.0,3.6405,3.6405,3.6405,3.6405,3.6405,3.6405,3.6405,3.6405,3.6405,3.6405,3.6934,3.8002,3.8002,3.8605,3.9697,3.9697,3.9697,3.9697,3.9697,3.9697,3.9697,3.9697,3.9697,3.9697,3.9697,3.9697,3.9697,3.9697,3.9697,3.9697,3.9697,3.9697,3.9697,3.9697,3.9697,3.9697,3.9697,3.9697,3.9697,3.9697,4.0086,4.0952,4.2889,4.4188,4.5608,4.8049,4.8925,4.9567,5.0917,5.1191,5.1191,5.1191,5.1191,5.1191,5.1191,5.1191,5.1191,5.1191,5.1191,5.1191,5.1191,5.1191,5.1191,5.1191,5.1191,5.1191,5.1191,5.1191,5.1191,5.1191,5.1191,5.1191,5.1191,5.1191,5.1191,5.1191,5.1191,5.1191,5.1191,5.1191,5.1191,5.1191,5.1191,5.1191,0.0,0.0,0.0,0.0,0.0,0.0,2.3091,2.3308,2.3698,2.4333,2.4512,2.5244,2.7509,2.8598,2.9669,3.1288,3.2426,3.3102,3.3102,3.3379,3.3759,3.4289,3.4841,3.5393,3.5968,3.6243,3.6405,3.6405,3.6405,3.6405,3.6405,3.6405,3.6405,3.6405,3.6405,3.6405,3.6405,3.6607,3.7173,3.8002,3.8253,3.8831,3.9697,3.9697,3.9697,3.9697,3.9697,3.9697,3.9697,3.9697,3.9697,3.9697,3.9697,3.9697,3.9697,3.9697,3.9697,3.9697,3.9697,3.9697,3.9697,3.9697,3.9697,3.9697,3.9697,3.9697,3.9697,3.9697,4.0262,4.129,4.3204,4.3922,4.486,4.767,4.8314,4.8851,5.0784,5.1191,5.1191,5.1191,5.1191,5.1191,5.1191,5.1191,5.1191,5.1191,5.1191,5.1191,5.1191,5.1191,5.1191,5.1191,5.1191,5.1191,5.1191,5.1191,5.1191,5.1191,5.1191,5.1191,5.1191,5.1191,5.1191,5.1191,5.1191,5.1191,5.1191,5.1191,5.1191,5.1191,5.1191,5.1191,0.0,0.0,0.0,0.0,0.0,0.0,2.3091,2.3091,2.3495,2.4853,2.4422,2.4431,2.6485,2.7814,2.8802,2.9488,3.1446,3.2939,3.3068,3.3102,3.3303,3.3834,3.4314,3.4853,3.5445,3.5994,3.6318,3.6405,3.6405,3.6405,3.6405,3.6405,3.6405,3.6405,3.6405,3.6405,3.6405,3.6934,3.7462,3.8015,3.8617,3.9183,3.9697,3.9697,3.9697,3.9697,3.9697,3.9697,3.9697,3.9697,3.9697,3.9697,3.9697,3.9697,3.9697,3.9697,3.9697,3.9697,3.9697,3.9697,3.9697,3.9697,3.9697,3.9697,3.9697,3.9697,3.9722,3.9835,4.0549,4.1566,4.2685,4.3113,4.3879,4.6487,4.7223,4.8049,5.065,5.1191,5.1191,5.1191,5.1191,5.1191,5.1191,5.1191,5.1191,5.1191,5.1191,5.1191,5.1191,5.1191,5.1191,5.1191,5.1191,5.1191,5.1191,5.1191,5.1191,5.1191,5.1191,5.1191,5.1191,5.1191,5.1191,5.1191,5.1191,5.1191,5.1191,5.1191,5.1191,5.1191,5.1191,5.1191,0.0,0.0,0.0,0.0,0.0,0.0,2.3091,2.3091,2.3186,2.3495,2.3668,2.4613,2.7316,2.7529,2.8055,3.046,3.1245,3.1931,3.2961,3.3102,3.3303,3.3834,3.3997,3.4427,3.5408,3.5596,3.5893,3.6367,3.6405,3.6405,3.6405,3.6405,3.6405,3.6405,3.6405,3.6405,3.6405,3.6934,3.7462,3.8015,3.8617,3.9183,3.9697,3.9697,3.9697,3.9697,3.9697,3.9697,3.9697,3.9697,3.9697,3.9697,3.9697,3.9697,3.9697,3.9697,3.9697,3.9697,3.9697,3.9697,3.9697,3.9697,3.9697,3.9697,3.9697,3.9697,3.9885,4.0738,4.1152,4.1566,4.2685,4.381,4.5021,4.6695,4.7974,4.9235,5.0855,5.1191,5.1191,5.1191,5.1191,5.1191,5.1191,5.1191,5.1191,5.1191,5.1191,5.1191,5.1191,5.1191,5.1191,5.1191,5.1191,5.1191,5.1191,5.1191,5.1191,5.1191,5.1191,5.1191,5.1191,5.1191,5.1191,5.1191,5.1191,5.1191,5.1191,5.1191,5.1191,5.1191,5.1191,5.1191,0.0,0.0,0.0,2.3091,0.0,0.0,0.0,2.3529,2.4113,2.4681,2.4524,2.5139,2.7949,2.7929,2.8221,3.0429,3.1564,3.2382,3.3004,3.3102,3.3203,3.3479,3.3734,3.411,3.4653,3.5182,3.5744,3.6344,3.6405,3.6405,3.6405,3.6405,3.6405,3.6405,3.6405,3.6405,3.6405,3.721,3.7739,3.8015,3.8868,3.9446,3.9697,3.9697,3.9697,3.9697,3.9697,3.9697,3.9697,3.9697,3.9697,3.9697,3.9697,3.9697,3.9697,3.9697,3.9697,3.9697,3.9697,3.9697,3.9697,3.9697,3.9697,3.9697,3.9697,3.9885,4.0275,4.1076,4.1516,4.1932,4.2788,4.3492,4.4522,4.6617,4.7645,4.8713,5.076,5.1191,5.1191,5.1191,5.1191,5.1191,5.1191,5.1191,5.1191,5.1191,5.1191,5.1191,5.1191,5.1191,5.1191,5.1191,5.1191,5.1191,5.1191,5.1191,5.1191,5.1191,5.1191,5.1191,5.1191,5.1191,5.1191,5.1191,5.1191,5.1191,5.1191,5.1191,5.1191,5.1191,5.1191,5.1191,0.0,0.0,0.0,0.0,0.0,2.3091,0.0,0.0,0.0,0.0,0.0,0.0,0.0,0.0,0.0,0.0,0.0,0.0,0.0,3.2886,0.0,3.3102,3.347,3.3784,3.3884,3.4879,3.5707,3.6193,3.6318,3.6405,3.6405,3.6405,3.6405,3.6405,3.6405,3.6405,3.6405,3.745,3.8002,3.8015,3.9157,3.9697,3.9697,3.9697,3.9697,3.9697,3.9697,3.9697,3.9697,3.9697,3.9697,3.9697,3.9697,3.9697,3.9697,3.9697,3.9697,3.9697,3.9697,3.9697,3.9697,3.9697,3.9697,3.9697,3.9697,4.0074,4.06,4.1152,4.1731,4.2338,4.2864,4.3184,4.4016,4.6513,4.7299,4.8175,5.065,5.1191,5.1191,5.1191,5.1191,5.1191,5.1191,5.1191,5.1191,5.1191,5.1191,5.1191,5.1191,5.1191,5.1191,5.1191,5.1191,5.1191,5.1191,5.1191,5.1191,5.1191,5.1191,5.1191,5.1191,5.1191,5.1191,5.1191,5.1191,5.1191,5.1191,5.1191,5.1191,5.1191,5.1191,5.1191,0.0,0.0,0.0,0.0,2.3091,0.0,0.0,0.0,2.3616,2.4755,0.0,0.0,0.0,0.0,0.0,0.0,0.0,0.0,3.0718,3.2096,3.3102,3.3102,3.3153,3.3391,3.3847,3.4879,3.552,3.5596,3.6094,3.6405,3.6405,3.6405,3.6405,3.6405,3.6405,3.6405,3.6405,3.745,3.8002,3.8015,3.9157,3.9697,3.9697,3.9697,3.9697,3.9697,3.9697,3.9697,3.9697,3.9697,3.9697,3.9697,3.9697,3.9697,3.9697,3.9697,3.9697,3.9697,3.9697,3.9697,3.9697,3.9697,3.9697,3.9697,3.9697,4.0074,4.06,4.1152,4.1731,4.2338,4.2864,4.3879,4.5169,4.6747,4.8049,4.9357,5.0878,5.1191,5.1191,5.1191,5.1191,5.1191,5.1191,5.1191,5.1191,5.1191,5.1191,5.1191,5.1191,5.1191,5.1191,5.1191,5.1191,5.1191,5.1191,5.1191,5.1191,5.1191,5.1191,5.1191,5.1191,5.1191,5.1191,5.1191,5.1191,5.1191,5.1191,5.1191,5.1191,5.1191,5.1191,5.1191,0.0,0.0,0.0,0.0,0.0,0.0,2.3091,0.0,2.52,0.0,0.0,0.0,0.0,0.0,0.0,0.0,3.0157,0.0,0.0,0.0,3.3102,0.0,0.0,0.0,3.3847,3.4324,3.4828,3.5445,3.5732,3.6031,3.6392,3.6405,3.6405,3.6405,3.6405,3.6405,3.6405,3.745,3.8002,3.8015,3.9157,3.9697,3.9697,3.9697,3.9697,3.9697,3.9697,3.9697,3.9697,3.9697,3.9697,3.9697,3.9697,3.9697,3.9697,3.9697,3.9697,3.9697,3.9697,3.9697,3.9697,3.9697,3.9697,3.9697,3.9697,4.03,4.1014,4.1252,4.1957,4.2713,4.2951,4.3989,4.5356,4.6759,4.8175,4.9567,5.0917,5.1191,5.1191,5.1191,5.1191,5.1191,5.1191,5.1191,5.1191,5.1191,5.1191,5.1191,5.1191,5.1191,5.1191,5.1191,5.1191,5.1191,5.1191,5.1191,5.1191,5.1191,5.1191,5.1191,5.1191,5.1191,5.1191,5.1191,5.1191,5.1191,5.1191,5.1191,5.1191,5.1191,5.1191,5.1191,2.3091,0.0,0.0,0.0,0.0,0.0,0.0,0.0,0.0,0.0,0.0,0.0,0.0,0.0,0.0,0.0,0.0,3.1805,0.0,3.2478,0.0,0.0,0.0,0.0,0.0,3.3809,3.4276,3.5207,3.542,3.5757,3.638,3.6405,3.6405,3.6405,3.6405,3.6405,3.6405,3.745,3.8002,3.8015,3.9157,3.9697,3.9697,3.9697,3.9697,3.9697,3.9697,3.9697,3.9697,3.9697,3.9697,3.9697,3.9697,3.9697,3.9697,3.9697,3.9697,3.9697,3.9697,3.9697,3.9697,3.9697,3.9697,3.9697,3.9697,4.0437,4.1315,4.1315,4.2133,4.3002,4.3002,4.3727,4.4887,4.6695,4.7873,4.9098,5.0831,5.1191,5.1191,5.1191,5.1191,5.1191,5.1191,5.1191,5.1191,5.1191,5.1191,5.1191,5.1191,5.1191,5.1191,5.1191,5.1191,5.1191,5.1191,5.1191,5.1191,5.1191,5.1191,5.1191,5.1191,5.1191,5.1191,5.1191,5.1191,5.1191,5.1191,5.1191,5.1191,5.1191,5.1191,5.1191,0.0,0.0,0.0,2.3091,0.0,0.0,0.0,0.0,2.3507,0.0,0.0,0.0,0.0,0.0,0.0,0.0,0.0,0.0,0.0,0.0,0.0,0.0,0.0,0.0,0.0,3.3605,3.4135,0.0,3.5217,3.5757,3.638,3.6405,3.6405,3.6405,3.6405,3.6405,3.6405,3.745,3.8002,3.8015,3.9157,3.9697,3.9697,3.9697,3.9697,3.9697,3.9697,3.9697,3.9697,3.9697,3.9697,3.9697,3.9697,3.9697,3.9697,3.9697,3.9697,3.9697,3.9697,3.9697,3.9697,3.9697,3.9697,3.9697,3.9697,4.0437,4.1315,4.1315,4.2133,4.3002,4.3002,4.303,4.3755,4.6461,4.712,4.7923,5.0627,5.1191,5.1191,5.1191,5.1191,5.1191,5.1191,5.1191,5.1191,5.1191,5.1191,5.1191,5.1191,5.1191,5.1191,5.1191,5.1191,5.1191,5.1191,5.1191,5.1191,5.1191,5.1191,5.1191,5.1191,5.1191,5.1191,5.1191,5.1191,5.1191,5.1191,5.1191,5.1191,5.1191,5.1191,5.1191,0.0,0.0,2.3962,2.3962,0.0,0.0,0.0,0.0,0.0,0.0,0.0,0.0,0.0,0.0,0.0,0.0,0.0,0.0,0.0,0.0,0.0,0.0,0.0,0.0,0.0,0.0,0.0,0.0,3.4665,0.0,3.5769,3.618,3.6405,3.6405,3.6405,3.6405,3.6405,3.7122,3.7651,3.8015,3.8806,3.9371,3.9697,3.9697,3.9697,3.9697,3.9697,3.9697,3.9697,3.9697,3.9697,3.9697,3.9697,3.9697,3.9697,3.9697,3.9697,3.9697,3.9697,3.9697,3.9697,3.9697,3.9697,3.976,4.0124,4.0725,4.139,4.1769,4.2436,4.3002,4.3002,4.4345,4.5938,4.6863,4.8489,5.0056,5.0988,5.1191,5.1191,5.1191,5.1191,5.1191,5.1191,5.1191,5.1191,5.1191,5.1191,5.1191,5.1191,5.1191,5.1191,5.1191,5.1191,5.1191,5.1191,5.1191,5.1191,5.1191,5.1191,5.1191,5.1191,5.1191,5.1191,5.1191,5.1191,5.1191,5.1191,5.1191,5.1191,5.1191,5.1191,5.1191,2.4391,2.4391,0.0,2.4391,2.4391,0.0,2.4391,0.0,2.5731,0.0,0.0,0.0,0.0,0.0,0.0,0.0,0.0,0.0,0.0,3.1951,0.0,0.0,0.0,0.0,0.0,0.0,0.0,0.0,0.0,0.0,0.0,3.6056,3.6405,3.6405,3.6405,3.6405,3.6405,3.6934,3.7462,3.8015,3.8617,3.9183,3.9697,3.9697,3.9697,3.9697,3.9697,3.9697,3.9697,3.9697,3.9697,3.9697,3.9697,3.9697,3.9697,3.9697,3.9697,3.9697,3.9697,3.9697,3.9697,3.9697,3.9697,3.9798,4.035,4.0876,4.1428,4.2022,4.2575,4.3002,4.3002,4.4657,4.6487,4.6966,4.8851,5.0627,5.1097,5.1191,5.1191,5.1191,5.1191,5.1191,5.1191,5.1191,5.1191,5.1191,5.1191,5.1191,5.1191,5.1191,5.1191,5.1191,5.1191,5.1191,5.1191,5.1191,5.1191,5.1191,5.1191,5.1191,5.1191,5.1191,5.1191,5.1191,5.1191,5.1191,5.1191,5.1191,5.1191,5.1191,5.1191,5.1191]},{"header":{"parameterUnit":"m.s-1","parameterCategory":1,"la1":30.6,"la2":29.2853,"lo1":-89.7004,"lo2":-87.6739,"dy":0.0162,"dx":0.0183,"nx":112,"ny":82,"refTime":"2024-03-25T12:00:00:Z","depth":0,"parameterNumber":3,"parameterNumberName":"V-component_of_WINDS"},"data":[0.0,0.0,0.0,0.0,0.0,0.0,0.0,0.0,0.0,0.0,0.0,0.0,0.0,0.0,0.0,0.0,0.0,0.0,0.0,0.0,0.0,0.0,0.0,0.0,0.0,0.0,0.0,0.0,0.0,0.0,0.0,0.0,0.0,0.0,0.0,0.0,0.0,0.0,0.0,0.0,0.0,0.0,0.0,0.0,0.0,0.0,0.0,0.0,0.0,0.0,0.0,0.0,0.0,0.0,0.0,0.0,0.0,0.0,0.0,0.0,0.0,0.0,0.0,0.0,0.0,0.0,0.0,0.0,0.0,0.0,0.0,0.0,0.0,0.0,0.0,0.0,0.0,0.0,0.0,0.0,0.0,0.0,0.0,0.0,0.0,0.0,0.0,0.0,0.0,0.0,0.0,1.4548,1.5512,1.5923,1.5235,1.58,1.6021,1.562,0.0,0.0,0.0,0.0,0.0,0.0,0.0,0.0,0.0,0.0,0.0,0.0,0.0,0.0,0.0,0.0,0.0,0.0,0.0,0.0,0.0,0.0,0.0,0.0,0.0,0.0,0.0,0.0,0.0,0.0,0.0,0.0,0.0,0.0,0.0,0.0,0.0,0.0,0.0,0.0,0.0,0.0,0.0,0.0,0.0,0.0,0.0,0.0,0.0,0.0,0.0,0.0,0.0,0.0,0.0,0.0,0.0,0.0,0.0,0.0,0.0,0.0,0.0,0.0,0.0,0.0,0.0,0.0,0.0,0.0,0.0,0.0,0.0,0.0,0.0,0.0,0.0,0.0,0.0,0.0,0.0,0.0,0.0,0.0,0.0,0.0,0.0,0.0,0.0,0.0,0.0,0.0,0.0,0.0,0.0,0.0,0.0,0.0,0.0,0.0,0.0,0.0,0.0,0.0,1.5503,1.5782,1.628,1.6568,1.6432,1.6536,1.6586,1.6502,0.0,0.0,0.0,0.0,0.0,0.0,0.0,0.0,0.0,0.0,0.0,0.0,0.0,0.0,0.0,0.0,0.0,0.0,0.0,0.0,0.0,0.0,0.0,0.0,0.0,0.0,0.0,0.0,0.0,0.0,0.0,0.0,0.0,0.0,0.0,0.0,0.0,0.0,0.0,0.0,0.0,0.0,0.0,0.0,0.0,0.0,0.0,0.0,0.0,0.0,0.0,0.0,0.0,0.0,0.0,0.0,0.0,0.0,0.0,0.0,0.0,0.0,0.0,0.0,0.0,0.0,0.0,0.0,0.0,0.0,0.0,0.0,0.0,0.0,0.0,0.0,0.0,0.0,0.0,0.0,0.0,0.0,0.0,0.0,0.0,0.0,0.0,0.0,0.0,0.0,0.0,0.0,0.0,0.0,0.0,0.0,0.0,0.0,0.0,0.0,0.0,0.0,0.0,1.6093,1.6283,1.6744,1.6963,1.709,1.709,1.709,1.6966,1.6716,1.6326,0.0,0.0,0.0,0.0,0.0,0.0,0.0,0.0,0.0,0.0,0.0,0.0,0.0,0.0,0.0,0.0,0.0,0.0,0.0,0.0,0.0,0.0,0.0,0.0,0.0,0.0,0.0,0.0,0.0,0.0,0.0,0.0,0.0,0.0,0.0,0.0,0.0,0.0,0.0,0.0,0.0,0.0,0.0,0.0,0.0,0.0,0.0,0.0,0.0,0.0,0.0,0.0,0.0,0.0,0.0,0.0,0.0,0.0,0.0,0.0,0.0,0.0,0.0,0.0,0.0,0.0,0.0,0.0,0.0,0.0,0.0,0.0,0.0,0.0,0.0,0.0,0.0,0.0,0.0,0.0,0.0,0.0,0.0,0.0,0.0,0.0,0.0,0.0,0.0,0.0,0.0,0.0,0.0,0.0,0.0,0.0,0.0,0.0,0.0,0.0,0.0,0.0,1.681,1.6996,1.736,1.7471,1.7546,1.7546,1.7546,1.7393,1.7035,1.6927,0.0,0.0,0.0,0.0,0.0,0.0,0.0,0.0,0.0,0.0,0.0,0.0,0.0,0.0,0.0,0.0,0.0,0.0,0.0,0.0,0.0,0.0,0.0,0.0,0.0,0.0,0.0,0.0,0.0,0.0,0.0,0.0,0.0,0.0,0.0,0.0,0.0,0.0,0.0,0.0,0.0,0.0,0.0,0.0,0.0,0.0,0.0,0.0,0.0,0.0,0.0,0.0,0.0,0.0,0.0,0.0,0.0,0.0,0.0,0.0,0.0,0.0,0.0,0.0,0.0,0.0,0.0,0.0,0.0,0.0,0.0,0.0,0.0,0.0,0.0,0.0,0.0,0.0,0.0,0.0,0.0,0.0,0.0,0.0,0.0,0.0,0.0,0.0,0.0,0.0,0.0,0.0,0.0,0.0,0.0,0.0,0.0,0.0,0.0,0.0,0.0,0.0,1.709,1.736,1.7399,1.7734,1.7969,1.7969,1.7969,1.7932,1.7903,1.7549,0.0,0.0,0.0,0.0,0.0,0.0,0.0,0.0,0.0,0.0,0.0,0.0,0.0,0.0,0.0,0.0,0.0,0.0,0.0,0.0,0.0,0.0,0.0,0.0,0.0,0.0,0.0,0.0,0.0,0.0,0.0,0.0,0.0,0.0,0.0,0.0,0.0,0.0,0.0,0.0,0.0,0.0,0.0,0.0,0.0,0.0,0.0,0.0,0.0,0.0,0.0,0.0,0.0,0.0,0.0,0.0,0.0,0.0,0.0,0.0,0.0,0.0,0.0,0.0,0.0,0.0,0.0,0.0,0.0,0.0,0.0,0.0,0.0,0.0,0.0,0.0,0.0,0.0,0.0,0.0,0.0,0.0,0.0,0.0,0.0,0.0,0.0,0.0,0.0,0.0,0.0,0.0,0.0,0.0,0.0,0.0,0.0,0.0,0.0,0.0,0.0,0.0,1.7649,1.7773,0.0,1.791,1.7991,1.7991,1.7991,1.7991,1.7991,0.0,0.0,0.0,0.0,0.0,0.0,0.0,0.0,0.0,0.0,0.0,0.0,0.0,0.0,0.0,0.0,0.0,0.0,0.0,0.0,0.0,0.0,0.0,0.0,0.0,0.0,0.0,0.0,0.0,0.0,0.0,0.0,0.0,0.0,0.0,0.0,0.0,0.0,0.0,0.0,0.0,0.0,0.0,0.0,0.0,0.0,0.0,0.0,0.0,0.0,0.0,0.0,0.0,0.0,0.0,0.0,0.0,0.0,0.0,0.0,0.0,0.0,0.0,0.0,0.0,0.0,0.0,0.0,0.0,0.0,0.0,0.0,0.0,0.0,0.0,0.0,0.0,0.0,0.0,0.0,0.0,0.0,0.0,0.0,0.0,0.0,0.0,0.0,0.0,0.0,0.0,0.0,0.0,0.0,0.0,0.0,0.0,0.0,0.0,0.0,0.0,0.0,1.7961,1.7991,1.804,0.0,1.8196,1.8196,1.8196,1.8196,1.8137,1.8018,0.0,0.0,0.0,0.0,0.0,0.0,0.0,0.0,0.0,0.0,0.0,0.0,0.0,0.0,0.0,0.0,0.0,0.0,0.0,0.0,0.0,0.0,0.0,0.0,0.0,0.0,0.0,0.0,0.0,0.0,0.0,0.0,0.0,0.0,0.0,0.0,0.0,0.0,0.0,0.0,0.0,0.0,0.0,0.0,0.0,0.0,0.0,0.0,0.0,0.0,0.0,0.0,0.0,0.0,0.0,0.0,0.0,0.0,0.0,0.0,0.0,0.0,0.0,0.0,0.0,0.0,0.0,0.0,0.0,0.0,0.0,0.0,0.0,0.0,0.0,0.0,0.0,0.0,0.0,0.0,0.0,0.0,0.0,0.0,0.0,0.0,0.0,0.0,0.0,0.0,0.0,0.0,0.0,0.0,0.0,0.0,0.0,0.0,0.0,0.0,0.0,0.0,1.8018,1.8018,1.8157,1.8559,1.8607,1.8607,1.8607,1.8607,1.8432,0.0,0.0,0.0,0.0,0.0,0.0,0.0,0.0,0.0,0.0,0.0,0.0,0.0,0.0,0.0,0.0,0.0,0.0,0.0,0.0,0.0,0.0,0.0,0.0,0.0,0.0,0.0,0.0,0.0,0.0,0.0,0.0,0.0,0.0,0.0,0.0,0.0,0.0,0.0,0.0,0.0,0.0,0.0,0.0,0.0,0.0,0.0,0.0,0.0,0.0,0.0,0.0,0.0,0.0,0.0,0.0,0.0,0.0,0.0,0.0,0.0,0.0,0.0,0.0,0.0,0.0,0.0,0.0,0.0,0.0,0.0,0.0,0.0,0.0,0.0,0.0,0.0,0.0,0.0,0.0,0.0,0.0,0.0,0.0,0.0,0.0,0.0,0.0,0.0,0.0,0.0,0.0,0.0,0.0,0.0,0.0,0.0,0.0,0.0,0.0,0.0,0.0,0.0,1.8401,1.8422,1.8605,1.9053,1.9092,1.9092,1.9092,1.9092,1.8888,1.8442,0.0,0.0,0.0,0.0,0.0,0.0,0.0,0.0,0.0,0.0,0.0,0.0,0.0,0.0,0.0,0.0,0.0,0.0,0.0,0.0,0.0,0.0,0.0,0.0,0.0,0.0,0.0,0.0,0.0,0.0,0.0,0.0,0.0,0.0,0.0,0.0,0.0,0.0,0.0,0.0,0.0,0.0,0.0,0.0,0.0,0.0,0.0,0.0,0.0,0.0,0.0,0.0,0.0,0.0,0.0,0.0,0.0,0.0,0.0,0.0,0.0,0.0,0.0,0.0,0.0,0.0,0.0,0.0,0.0,0.0,0.0,0.0,0.0,0.0,0.0,0.0,0.0,0.0,0.0,0.0,0.0,0.0,0.0,0.0,0.0,0.0,0.0,0.0,0.0,0.0,0.0,0.0,0.0,0.0,0.0,0.0,0.0,0.0,0.0,0.0,0.0,0.0,1.882,1.8879,1.9044,1.9492,1.9541,1.9541,1.9541,1.9541,1.9355,1.8908,0.0,0.0,0.0,0.0,0.0,0.0,0.0,0.0,0.0,0.0,0.0,0.0,0.0,0.0,0.0,0.0,0.0,0.0,0.0,0.0,0.0,0.0,0.0,0.0,0.0,0.0,0.0,0.0,0.0,0.0,0.0,0.0,0.0,0.0,0.0,0.0,0.0,0.0,0.0,0.0,0.0,0.0,0.0,0.0,0.0,0.0,0.0,0.0,0.0,0.0,0.0,0.0,0.0,0.0,0.0,0.0,0.0,0.0,0.0,0.0,0.0,0.0,0.0,0.0,0.0,0.0,0.0,0.0,0.0,0.0,0.0,0.0,0.0,0.0,0.0,0.0,0.0,0.0,0.0,0.0,0.0,0.0,0.0,0.0,0.0,0.0,0.0,0.0,0.0,0.0,0.0,0.0,0.0,0.0,0.0,0.0,0.0,0.0,0.0,0.0,0.0,0.0,1.9287,1.9364,1.9502,1.9932,1.9952,1.9952,1.9952,1.9952,1.9795,1.9375,0.0,0.0,0.0,0.0,0.0,0.0,0.0,0.0,0.0,0.0,0.0,0.0,0.0,0.0,0.0,0.0,0.0,0.0,0.0,0.0,0.0,0.0,0.0,0.0,0.0,0.0,0.0,0.0,0.0,0.0,0.0,0.0,0.0,0.0,0.0,0.0,0.0,0.0,0.0,0.0,0.0,0.0,0.0,0.0,0.0,0.0,0.0,0.0,0.0,0.0,0.0,0.0,0.0,0.0,0.0,0.0,0.0,0.0,0.0,0.0,1.8164,0.0,0.0,0.0,0.0,0.0,0.0,0.0,0.0,0.0,0.0,0.0,0.0,0.0,0.0,0.0,0.0,0.0,0.0,0.0,0.0,0.0,0.0,0.0,0.0,0.0,0.0,0.0,0.0,0.0,0.0,0.0,0.0,0.0,0.0,0.0,0.0,0.0,0.0,0.0,0.0,0.0,1.9727,1.9766,1.9951,2.04,2.0449,2.0449,2.0449,2.0449,2.0263,1.9805,1.9766,0.0,0.0,0.0,0.0,0.0,0.0,0.0,0.0,0.0,0.0,0.0,0.0,0.0,0.0,0.0,0.0,0.0,0.0,0.0,0.0,0.0,0.0,0.0,0.0,0.0,0.0,0.0,0.0,0.0,0.0,0.0,0.0,0.0,0.0,0.0,0.0,0.0,0.0,0.0,0.0,0.0,0.0,0.0,0.0,0.0,0.0,0.0,0.0,0.0,0.0,0.0,0.0,0.0,0.0,0.0,0.0,0.0,0.0,0.0,0.0,1.8621,0.0,0.0,0.0,0.0,0.0,0.0,0.0,0.0,0.0,0.0,0.0,0.0,0.0,0.0,0.0,0.0,0.0,0.0,0.0,0.0,0.0,0.0,0.0,0.0,0.0,0.0,0.0,0.0,0.0,0.0,0.0,0.0,0.0,0.0,0.0,0.0,0.0,0.0,0.0,0.0,2.0449,2.0508,2.0693,2.1172,2.1221,2.1221,2.1221,2.1221,2.1016,2.0557,2.0508,0.0,0.0,0.0,0.0,0.0,0.0,0.0,0.0,0.0,0.0,0.0,0.0,0.0,0.0,0.0,0.0,0.0,0.0,0.0,0.0,0.0,0.0,0.0,0.0,0.0,0.0,0.0,0.0,0.0,0.0,0.0,0.0,0.0,0.0,0.0,0.0,0.0,0.0,0.0,0.0,0.0,0.0,0.0,0.0,0.0,0.0,0.0,0.0,0.0,0.0,0.0,0.0,0.0,2.1159,2.0933,2.1032,2.1032,2.1078,2.1133,2.0527,2.039,2.0481,1.9168,0.0,0.0,0.0,0.0,0.0,0.0,0.0,0.0,0.0,0.0,0.0,0.0,0.0,0.0,0.0,0.0,0.0,0.0,0.0,0.0,0.0,0.0,0.0,0.0,1.9528,1.9675,0.0,0.0,0.0,0.0,0.0,0.0,0.0,0.0,0.0,0.0,0.0,0.0,2.1461,2.161,2.1829,2.2421,2.2482,2.2482,2.2482,2.2298,2.2016,2.1629,2.1418,2.1182,0.0,0.0,0.0,0.0,0.0,0.0,0.0,0.0,0.0,0.0,0.0,0.0,0.0,0.0,0.0,0.0,0.0,0.0,0.0,0.0,0.0,0.0,0.0,0.0,0.0,0.0,0.0,0.0,0.0,0.0,0.0,0.0,1.9798,1.9798,0.0,0.0,0.0,0.0,0.0,0.0,0.0,0.0,0.0,0.0,0.0,0.0,0.0,2.162,2.2069,2.2171,2.2433,2.2895,2.2792,2.3024,2.3526,2.3526,2.3788,2.4209,2.4114,0.0,2.1341,2.1131,0.0,0.0,0.0,0.0,0.0,0.0,0.0,0.0,0.0,0.0,0.0,0.0,0.0,0.0,0.0,0.0,0.0,0.0,0.0,0.0,0.0,0.0,1.9429,2.0304,2.06,2.0611,0.0,1.9707,1.9131,1.9189,1.9217,0.0,0.0,0.0,0.0,0.0,0.0,0.0,2.3006,2.3188,2.3599,2.4653,2.4762,2.4762,2.4762,2.3862,2.3261,2.3199,2.232,2.1777,2.1729,2.1269,0.0,0.0,0.0,0.0,0.0,0.0,0.0,0.0,0.0,0.0,0.0,0.0,0.0,0.0,0.0,0.0,0.0,0.0,0.0,0.0,0.0,0.0,0.0,0.0,0.0,0.0,0.0,0.0,0.0,1.9798,1.9798,1.9798,2.01,2.0314,0.0,0.0,0.0,0.0,0.0,0.0,0.0,0.0,0.0,2.1945,2.256,2.3012,2.3251,2.3853,2.4264,2.4503,2.4845,2.515,2.5418,2.5418,2.5527,2.5766,2.5766,2.5201,2.4214,2.3083,2.273,2.2819,0.0,0.0,0.0,0.0,2.1662,2.1662,2.1662,2.1662,0.0,2.1662,0.0,0.0,0.0,0.0,0.0,0.0,0.0,0.0,0.0,0.0,2.2249,2.2746,2.3261,2.3376,2.2493,2.2463,2.2446,0.0,2.0824,2.0434,2.1691,0.0,0.0,0.0,0.0,2.3556,2.385,2.4429,2.508,2.5851,2.5925,2.5925,2.5925,2.4889,2.4135,2.3903,2.2844,2.2401,2.2778,2.2027,2.1887,0.0,0.0,0.0,0.0,0.0,0.0,0.0,0.0,0.0,0.0,0.0,0.0,0.0,0.0,0.0,0.0,0.0,0.0,0.0,0.0,0.0,0.0,0.0,0.0,0.0,0.0,0.0,0.0,1.9924,2.0024,2.0024,2.054,2.0905,0.0,0.0,0.0,0.0,0.0,0.0,2.2334,2.2721,2.2997,2.315,2.3966,2.4544,2.4833,2.5636,2.6101,2.6239,2.6683,2.6914,2.6914,2.6914,2.6914,2.6914,2.6914,2.6914,2.6774,2.4993,2.4652,2.5169,2.4519,2.4652,2.5152,2.4519,2.4273,2.4273,2.4273,2.4273,2.4273,2.4273,2.4273,2.4093,2.3236,0.0,0.0,0.0,0.0,2.303,2.4101,2.4442,2.463,2.4955,2.5531,2.5686,2.4542,2.4954,2.5176,0.0,2.2635,2.2247,2.3694,0.0,0.0,0.0,0.0,2.5315,2.5217,2.5892,2.6623,2.7287,2.7342,2.7221,2.6924,2.588,2.4977,2.4388,2.3561,2.3188,2.3392,2.2806,2.2725,2.3226,0.0,0.0,0.0,0.0,0.0,0.0,0.0,0.0,0.0,0.0,0.0,0.0,0.0,0.0,0.0,0.0,0.0,0.0,0.0,0.0,0.0,0.0,0.0,0.0,0.0,0.0,0.0,0.0,0.0,2.0641,2.1118,0.0,0.0,0.0,0.0,2.2945,2.302,2.3496,2.4578,2.4666,2.4904,2.5423,2.5485,2.6038,2.7123,2.7185,2.7457,2.7984,2.8009,2.8021,2.8021,2.8021,2.8021,2.8021,2.8021,2.8021,2.7934,2.6811,2.6377,2.6411,2.6377,2.6377,2.6411,2.6377,2.636,2.636,2.636,2.636,2.636,2.636,2.636,2.6193,2.5309,2.5051,0.0,0.0,2.5128,2.4925,2.725,2.6518,2.5378,2.6278,2.6535,2.6547,2.6458,2.6496,2.5922,0.0,2.4301,2.4998,2.5102,0.0,2.5231,2.5541,2.5699,2.6288,2.7718,2.7948,2.8402,2.9514,2.9624,2.9197,2.8116,2.7035,2.5943,2.484,2.4713,2.4202,2.3153,2.3739,2.3608,2.2577,2.2112,0.0,0.0,0.0,0.0,0.0,0.0,0.0,0.0,0.0,0.0,0.0,0.0,0.0,0.0,0.0,0.0,0.0,0.0,0.0,0.0,0.0,0.0,0.0,0.0,0.0,0.0,0.0,0.0,2.1206,2.1995,0.0,2.2533,2.3185,2.3775,2.4177,2.4515,2.4895,2.5297,2.6013,2.6507,2.6695,2.703,2.7406,2.7808,2.816,2.843,2.8618,2.9013,2.9189,2.9189,2.9189,2.9189,2.9189,2.9189,2.9189,2.9164,2.8781,2.819,2.7537,2.7537,2.7537,2.7537,2.7537,2.7537,2.7537,2.7537,2.7537,2.7537,2.7537,2.7537,2.7466,2.7153,2.7081,2.7118,2.7298,2.7085,2.7096,2.8288,2.8106,2.7751,2.8493,2.8656,2.8458,2.7713,2.8137,2.8227,2.6744,2.5976,2.5893,2.6888,2.7065,2.6885,2.6323,2.7457,2.8313,2.8132,2.8747,2.9346,2.9753,2.9792,2.9346,2.8195,2.7743,2.6758,2.4914,2.5483,2.5378,2.4232,2.445,2.4409,2.3996,2.2862,2.2295,0.0,0.0,0.0,0.0,0.0,0.0,0.0,0.0,0.0,0.0,0.0,0.0,0.0,0.0,0.0,0.0,0.0,0.0,0.0,0.0,0.0,0.0,0.0,0.0,0.0,0.0,2.2046,2.2046,2.301,2.3735,2.3938,2.4628,2.5231,2.5607,2.5975,2.6239,2.6427,2.7173,2.7645,2.7833,2.8179,2.8467,2.8674,2.9019,2.9195,2.9208,2.9616,2.9792,2.9792,2.9792,2.9792,2.9792,2.9792,2.9792,2.9792,2.9792,2.9352,2.8674,2.8674,2.8674,2.8674,2.8674,2.8674,2.8674,2.8674,2.8674,2.8674,2.8674,2.8674,2.8674,2.8674,2.8674,2.8674,2.8674,2.8674,2.8762,2.9107,2.9195,2.9296,2.9691,2.9792,2.9592,2.8838,2.9275,2.9573,2.8826,2.7854,2.7466,2.8509,2.8668,2.8418,2.7718,2.885,2.9534,2.8767,2.9326,2.9792,2.9792,2.9792,2.9346,2.8195,2.8096,2.7328,2.5483,2.6419,2.6378,2.4851,2.5168,2.4999,2.4253,2.3208,2.2703,2.2703,0.0,0.0,0.0,0.0,0.0,0.0,0.0,0.0,0.0,0.0,0.0,0.0,0.0,0.0,0.0,0.0,0.0,0.0,0.0,0.0,0.0,0.0,0.0,2.1694,2.2483,2.3183,2.3183,2.4173,2.508,2.5598,2.5661,2.6143,2.7236,2.7336,2.7587,2.8109,2.8147,2.838,2.8919,2.8932,2.9208,2.9779,2.9792,2.9804,2.9817,2.9817,2.9829,2.9842,2.9842,2.9842,2.9842,2.9842,2.9842,2.9842,2.9842,2.9842,2.9842,2.9804,2.9792,2.9792,2.9792,2.9792,2.9792,2.9792,2.9792,2.9792,2.9792,2.9792,2.9792,2.9792,2.9792,2.9792,2.9817,2.9817,2.9829,2.9861,2.9842,2.9842,2.9842,2.9842,2.9842,2.9842,2.9842,2.9842,2.9842,2.9842,2.9829,2.9836,2.9829,2.9842,2.9842,2.9842,0.0,2.9842,2.9842,2.9842,2.9842,2.9842,2.9395,2.8243,2.8183,2.7742,2.6631,2.7557,2.7189,2.4978,2.5954,2.5473,2.32,2.3113,2.3091,2.3091,0.0,0.0,0.0,0.0,0.0,0.0,0.0,0.0,0.0,0.0,0.0,0.0,0.0,0.0,0.0,0.0,0.0,0.0,0.0,0.0,0.0,2.4365,2.3935,2.2822,2.3951,2.4921,2.4921,2.5925,2.6666,2.6821,2.718,2.7544,2.7858,2.8229,2.8518,2.8681,2.9082,2.9402,2.9553,2.9553,2.9628,2.9792,2.9792,2.9993,3.0374,3.0374,3.0583,3.0947,3.0947,3.0947,3.0947,3.0947,3.0947,3.0947,3.0947,3.0947,3.0871,3.0093,2.9792,2.9792,2.9792,2.9792,2.9792,2.9792,2.9792,2.9792,2.9792,2.9792,2.9792,2.9792,2.9792,2.988,3.0281,3.0374,3.0482,3.0846,3.0947,3.0947,3.0947,3.0947,3.0947,3.0947,3.0947,3.0947,3.0947,3.0947,3.0834,3.0457,3.0696,3.0947,3.0947,3.0947,0.0,3.0947,3.0947,3.0947,3.0947,3.0947,3.053,2.9436,3.0045,2.9672,2.7772,2.9068,2.8914,2.6703,2.7291,2.6614,2.4382,2.3529,2.3091,0.0,0.0,0.0,0.0,0.0,0.0,0.0,0.0,0.0,0.0,0.0,0.0,0.0,0.0,0.0,0.0,0.0,0.0,0.0,0.0,0.0,0.0,2.6625,2.6467,2.6095,2.6002,2.6055,2.6293,2.711,2.772,2.7946,2.8242,2.853,2.88,2.9095,2.927,2.927,2.9616,2.9792,2.9792,3.0018,3.0143,3.0143,3.0357,3.062,3.0947,3.0947,3.1097,3.1406,3.1406,3.1406,3.1406,3.1406,3.1406,3.1406,3.1406,3.1406,0.0,0.0,0.0,0.0,0.0,3.047,3.047,3.047,3.047,3.047,3.047,3.047,3.047,3.047,3.047,3.0532,3.0846,3.0947,3.1009,3.1311,3.1406,3.1406,3.1406,3.1406,3.1406,3.1406,3.1406,3.1406,3.1406,3.1574,0.0,3.1315,3.1336,3.1406,3.1406,3.1406,3.1406,3.1406,3.1406,3.1406,3.1406,3.1406,3.1161,3.0517,3.1046,0.0,0.0,0.0,3.0168,2.8418,2.7983,0.0,0.0,0.0,2.3572,2.3091,0.0,0.0,0.0,2.2498,2.2412,0.0,0.0,0.0,0.0,0.0,0.0,0.0,0.0,0.0,0.0,0.0,0.0,0.0,0.0,0.0,0.0,2.9038,2.9567,3.0334,2.8511,2.7274,2.7753,2.8091,2.8547,2.925,2.9126,2.9303,3.0056,2.9914,2.985,2.9953,0.0,0.0,0.0,0.0,3.0688,3.0688,3.116,3.1424,3.1486,3.1486,3.1532,3.1587,3.1587,3.1587,3.1587,3.1587,3.1587,3.1587,3.1587,3.1587,3.1582,3.1436,3.1406,3.1406,3.1406,3.1406,3.1406,3.1406,0.0,0.0,3.1406,3.1406,3.1406,3.1406,3.1406,3.1399,3.1461,3.1486,3.152,3.1562,3.1587,3.1587,3.1587,3.1587,3.1587,3.1587,3.1587,3.1587,3.1587,3.1976,3.2303,3.2303,3.1901,3.1587,3.1587,3.1587,3.1587,3.1587,3.1587,3.1587,3.1587,0.0,0.0,3.1587,3.1587,3.1587,3.1587,3.1532,3.1046,3.0025,2.8451,2.7044,2.588,2.5283,2.4407,2.3237,2.3237,2.3237,2.3237,2.314,2.3091,0.0,0.0,0.0,0.0,0.0,0.0,0.0,0.0,0.0,0.0,0.0,0.0,0.0,0.0,0.0,3.0602,3.0737,3.1075,3.2347,3.1505,3.0814,3.0906,3.0058,3.0098,3.173,3.0521,3.0303,3.1942,3.0652,3.012,3.0876,3.0617,3.0437,3.0437,3.0972,3.1248,3.1248,3.1356,3.1612,3.2051,0.0,0.0,3.2776,3.2776,3.2776,3.2776,3.2776,3.2776,3.2776,3.2776,3.2776,3.2688,3.1771,3.1406,3.1406,3.1406,3.1406,3.1406,3.1406,3.1406,3.1406,3.1406,3.1406,3.1406,3.1406,3.1406,0.0,3.1926,3.2051,3.2164,3.265,3.2776,3.2776,3.2776,3.2776,3.2776,3.2776,3.2776,3.2776,3.2776,3.2851,3.2939,3.2939,3.2839,3.2776,3.2776,3.2776,3.2776,3.2776,3.2776,3.2776,3.2776,3.2776,3.2776,3.2776,3.2776,3.2776,3.2776,3.2315,3.1768,3.1112,2.995,2.8729,2.7479,2.6494,2.5408,2.4147,2.4147,2.4147,2.4128,2.3435,2.3091,0.0,0.0,0.0,0.0,0.0,0.0,0.0,0.0,0.0,0.0,0.0,2.8809,2.9764,0.0,3.1269,3.2765,3.2863,3.3106,3.4149,3.3482,3.2725,3.2256,3.1617,3.1568,3.2518,3.1737,3.1586,3.2522,3.2038,3.1915,3.2389,3.2532,3.2609,3.2609,3.2592,3.2608,3.2608,3.2892,3.2925,3.2663,3.3193,3.3339,3.3102,3.3102,3.3102,3.3102,3.3102,3.3102,3.3102,3.3102,3.3102,3.304,3.2474,3.2248,3.2248,3.2248,3.2248,3.2248,3.2248,3.2248,3.2248,3.2248,3.2248,3.2248,3.2248,3.2248,3.2311,3.2566,3.2641,3.2717,3.3027,3.3102,3.3102,3.3102,3.3102,3.3178,3.3454,3.3504,3.3571,3.3847,3.3897,3.3897,3.3897,3.3897,3.3809,3.3533,3.3721,3.3897,3.3897,3.3897,3.3897,3.3897,3.3897,3.3897,3.3897,3.3897,3.3784,3.353,3.3219,3.2805,3.2273,3.1458,3.0176,2.8397,2.7525,2.6217,2.4391,2.4391,2.4391,2.4381,2.3952,2.3757,0.0,0.0,0.0,0.0,0.0,0.0,0.0,0.0,2.9011,2.9804,3.0357,3.0942,3.1735,3.2437,3.3245,3.4323,3.4607,3.4877,3.5429,3.4806,3.401,3.3255,3.2837,3.2749,3.3133,3.2949,3.2951,3.3319,3.3642,3.3867,3.4054,3.4502,3.4755,3.4755,3.4433,3.4273,3.4273,3.4556,3.4275,3.342,3.4296,3.4129,3.3102,3.3427,3.3456,3.3266,3.3379,3.3416,3.3416,3.3416,3.3416,3.3416,3.3416,3.3416,3.3391,3.3178,3.3102,3.3102,3.3102,3.3102,3.3102,3.3102,3.3102,3.3115,3.3228,3.3253,3.3278,3.3391,3.3416,3.3416,3.3416,3.3416,3.3416,3.3416,3.3416,3.352,3.396,3.406,3.4186,3.4615,3.4703,3.4703,3.4703,3.4791,3.4678,3.4148,3.4414,3.4703,3.4703,3.4703,3.4703,3.4703,3.4703,3.4703,3.4703,3.4703,3.4515,3.4085,3.406,3.3859,3.3442,3.2943,3.1662,2.9476,2.8966,2.7487,2.503,2.503,2.4891,2.4654,2.4654,2.4557,2.5468,2.5929,0.0,2.721,2.7887,2.8547,0.0,0.0,2.9832,3.1032,3.1346,3.1765,3.3036,3.3829,3.4323,3.4488,3.5012,3.5415,3.5489,3.5392,3.5279,3.5197,3.365,3.3272,3.5017,3.4149,3.4196,3.5925,3.5074,3.4854,3.5691,3.5447,3.5302,3.5302,3.5699,3.5923,3.5923,3.5109,3.4643,3.4532,3.4643,3.4129,3.3158,3.4576,3.4702,3.3834,3.4301,3.4515,3.4515,3.4515,3.4515,3.4515,3.4515,3.4515,3.4424,3.3454,3.3102,3.3102,3.3102,3.3102,3.3102,3.3102,3.3102,3.319,3.3658,3.3809,3.3909,3.4377,3.4515,3.4515,3.4515,3.4515,3.4515,3.4515,3.4515,3.454,3.459,3.4603,3.4628,3.469,3.4703,3.4703,3.4703,3.5104,3.5219,3.469,3.4653,3.4703,3.4703,3.4703,3.4703,3.4703,3.4703,3.4703,3.4703,3.4703,3.4678,3.4603,3.4603,3.4577,3.4515,3.4452,3.3582,3.1774,3.1658,3.0171,2.7243,2.7243,2.6649,2.5538,2.5538,2.5142,2.6554,0.0,0.0,0.0,2.8964,2.9445,3.0463,3.0702,3.1076,3.2392,3.2976,3.341,3.3979,3.4637,3.507,0.0,3.5325,3.5504,3.5504,3.5504,3.5504,3.5504,3.4773,3.4608,3.5423,3.5377,3.5624,3.6443,3.6684,3.6978,3.7385,3.7605,3.7734,3.7734,3.7349,3.7137,3.7137,3.671,3.6393,3.6151,3.6798,3.6368,3.5107,3.578,3.5444,3.4409,3.5355,3.5347,3.4703,3.4703,3.4703,3.4703,3.4703,3.4703,3.464,3.4211,3.4035,3.4035,3.4035,3.4035,3.4035,3.4035,3.4035,3.4073,3.4289,3.4374,3.4402,3.464,3.4703,3.4703,3.4703,3.4703,3.4703,3.4703,3.4703,3.4791,3.5117,3.518,3.528,3.5617,3.5703,3.5703,3.5703,3.5868,3.5943,3.5705,3.5703,3.5703,3.5703,3.5703,3.5703,3.5703,3.5703,3.5703,3.5703,3.5703,3.5542,3.5192,3.518,3.5042,3.4715,3.4703,3.4022,3.2587,3.2564,3.1191,2.84,2.84,2.7738,2.6459,2.6459,2.6254,2.7839,0.0,0.0,2.9909,3.0118,3.0462,3.1764,3.2049,3.2377,3.3529,3.4158,3.4563,3.4742,3.5175,3.5504,3.5504,3.5504,3.5504,3.5504,3.5504,3.5564,3.5744,3.5774,3.5848,3.6013,3.6462,3.6806,3.7017,3.8048,3.8676,3.8676,3.9155,3.9406,3.9406,3.8653,3.834,3.8514,3.8221,3.8024,3.7926,3.8696,3.8346,3.696,3.6811,3.6305,3.5662,3.623,3.5987,3.5177,3.5177,3.5177,3.5177,3.5177,3.5177,3.5177,3.5177,3.4954,3.4703,3.4703,3.4703,3.4703,3.4703,3.4703,3.4728,3.4879,3.4929,3.4954,3.5104,3.5177,3.5177,3.5177,3.5177,3.5177,3.5177,3.5177,3.529,3.5656,3.5744,3.5893,3.6306,3.6405,3.6405,3.6405,3.6405,3.6405,3.6405,3.6405,3.6405,3.6405,3.6405,3.6405,3.6405,3.6405,3.6405,3.6405,3.6405,3.6218,3.5782,3.5744,3.5569,3.519,3.5177,3.4688,3.3638,3.3626,3.2276,2.9524,2.9524,2.8655,2.6986,2.6986,2.6986,0.0,0.0,2.9877,3.1122,3.1451,3.1795,3.314,3.344,3.3649,3.4323,3.4503,3.4697,3.5355,3.5489,3.5504,3.5504,3.5504,3.5504,3.5504,3.5504,3.5744,3.6389,3.6479,3.6686,0.0,3.7357,3.7644,3.8305,3.899,3.9376,3.9376,3.9391,3.9406,3.9406,3.9355,3.9669,4.0296,3.9298,3.9106,3.9726,3.9746,3.9193,3.8138,3.7536,3.7549,3.7954,3.6856,3.6378,3.6355,3.6355,3.6355,3.6355,3.6355,3.6355,3.6355,3.6355,3.5665,3.4703,3.4703,3.4703,3.4703,3.4703,3.4703,3.4803,3.5307,3.547,3.5606,3.618,3.6355,3.6355,3.6355,3.6355,3.6355,3.6355,3.6355,3.6344,3.638,3.638,3.6392,3.6405,3.6405,3.6405,3.6405,3.6405,3.6405,3.6405,3.6405,3.6405,3.6405,3.6405,3.6405,3.6405,3.6405,3.6405,3.6405,3.6405,3.6405,3.638,3.638,3.638,3.6355,3.6355,3.6056,3.5437,3.5424,3.3916,3.0838,3.0838,2.951,2.6986,2.6986,2.6986,3.0028,0.0,3.1076,3.1959,3.2497,3.3066,3.3964,3.4158,3.4353,3.5026,3.516,3.5235,3.5459,3.5504,3.5504,3.5504,3.5504,3.5504,3.5504,3.5878,3.6254,3.6479,3.6851,0.0,0.0,0.0,0.0,3.8377,3.9017,3.9406,3.9406,3.9406,3.9601,4.0053,4.0068,4.0382,4.1074,4.0704,4.0863,4.1518,4.1166,4.081,4.0444,4.0245,3.9837,3.9316,3.9683,3.8979,3.7517,3.7517,3.708,3.6405,3.6405,3.6405,3.6405,3.6405,3.6155,3.5828,3.5828,3.5828,3.5828,3.5828,3.5828,3.5866,3.6031,3.6094,3.6143,3.6331,3.6405,3.6405,3.6405,3.6405,3.6405,3.6405,3.6405,3.6405,3.6405,3.6405,3.6405,3.6405,3.6405,3.6405,3.6405,3.6405,3.6531,3.6884,3.6644,3.6405,3.6405,3.6405,3.6405,3.6405,3.6405,3.6405,3.6405,3.6405,3.6405,3.6405,3.6405,3.6405,3.6405,3.6405,3.6293,3.6094,3.6094,3.5155,3.3234,3.3234,3.2281,3.0532,3.0532,3.0034,3.0986,3.1525,3.2078,3.2991,3.3529,3.4039,3.4697,3.4862,3.4982,3.5415,3.5504,3.5504,3.5504,3.5504,3.5504,3.5504,3.5504,3.5504,3.5504,3.6073,3.6583,3.6808,3.7375,3.8018,0.0,0.0,0.0,3.8751,3.9152,3.9406,3.9406,3.9631,3.9963,4.0382,4.0621,4.1089,4.1747,4.1747,4.2077,4.2716,4.2377,4.2208,4.2193,4.1788,4.1211,4.0532,4.0852,4.0131,3.8738,3.8738,3.8052,3.7023,3.7023,3.6756,3.6405,3.6405,3.6405,3.6405,3.6405,3.6405,3.6405,3.6405,3.6405,3.6405,3.6405,3.6405,3.6405,3.6405,3.6405,3.6405,3.6405,3.6405,3.6405,3.6405,3.6405,3.6405,3.6405,3.6405,3.6405,3.6405,3.6545,3.6683,3.6683,3.6846,3.7097,3.7425,3.7198,3.6972,3.6972,3.6972,3.6972,3.6972,3.6972,3.6972,3.6972,3.6972,3.6972,3.6972,3.6972,3.6972,3.6972,3.6783,3.6683,3.6683,3.6505,3.5739,3.441,3.441,3.3687,3.228,3.1987,3.1381,3.2153,3.2542,3.2916,3.4173,3.4533,3.4712,3.5355,3.5504,3.5504,3.5504,3.5504,3.5504,0.0,0.0,3.5504,3.5504,3.5504,3.5519,3.5549,3.6118,3.6761,0.0,0.0,0.0,0.0,0.0,0.0,3.9451,0.0,3.9406,3.9451,4.0053,4.0427,4.0502,4.1134,4.1762,4.244,4.2455,4.2735,4.329,4.329,4.329,4.327,4.2173,4.1705,4.1643,4.0532,4.0051,3.9986,3.9986,3.9271,3.8198,3.8198,3.7517,3.6557,3.6523,3.6499,3.6476,3.6428,3.6405,3.6405,3.6405,3.6405,3.6405,3.6405,3.6405,3.6405,3.6405,3.6405,3.6405,3.6405,3.6405,3.6405,3.6405,3.6405,3.6417,3.6443,3.6455,3.6455,3.6493,3.6896,3.7248,3.7248,3.7688,3.8052,3.8052,3.8078,3.8078,3.8015,3.8002,3.8002,3.8002,3.8002,3.8002,3.8002,3.8002,3.8002,3.8002,3.8002,3.8002,3.8002,3.75,3.7248,3.7248,3.6733,3.5849,3.4591,3.4591,3.3892,3.2572,3.1739,3.1307,3.2407,3.323,3.4069,3.4398,3.4877,3.5295,3.5459,3.5504,3.5504,3.5504,3.5504,3.5504,0.0,0.0,0.0,3.5504,3.5504,0.0,3.6163,3.6776,0.0,3.8063,0.0,3.9212,3.9391,3.9406,0.0,0.0,3.9675,3.9616,4.0127,4.0307,4.0846,4.1852,4.2066,4.2451,4.3055,4.307,4.3145,4.329,4.329,4.329,4.329,4.3001,4.288,4.286,4.2563,4.1947,4.1169,4.1169,4.0476,3.9448,3.9448,3.9249,3.8908,3.8007,3.7678,3.754,3.6698,3.6405,3.6405,3.6405,3.6405,3.6405,3.6405,3.6405,3.6405,3.6405,3.6405,3.6405,3.6405,3.6405,3.6405,3.6405,3.6405,3.6494,3.6909,3.6997,3.7122,3.75,3.7701,3.7801,3.7801,3.8266,3.868,3.868,3.8994,3.8956,3.8115,3.8002,3.8002,3.8002,3.8002,3.8002,3.8002,3.8002,3.8002,3.8002,3.8002,3.8002,3.8002,3.7877,3.7801,3.7801,3.7663,3.7404,3.7072,3.7072,3.6887,3.6541,3.6325,3.568,3.3215,3.3934,3.4563,3.4877,3.522,3.5504,3.5504,3.5504,3.5504,3.5504,3.5504,0.0,0.0,0.0,0.0,0.0,0.0,0.0,3.6404,3.7015,3.7659,0.0,3.899,0.0,3.9406,3.966,3.9989,0.0,4.0053,4.0142,4.0786,4.1119,4.1613,4.2381,4.2661,4.297,4.329,4.329,4.329,4.329,4.329,4.329,4.329,4.329,4.329,4.329,0.0,4.2941,4.2351,4.2351,4.1664,4.0639,4.0639,4.0015,3.9028,3.8356,3.7779,3.7266,3.6628,3.6405,3.6405,3.6405,3.6405,3.6405,3.6405,3.6405,3.6405,3.6405,3.6405,3.6405,3.6405,3.6557,3.6746,3.6746,3.6934,3.7185,3.7475,3.755,3.7713,3.8278,3.8379,3.8467,3.8705,3.9019,3.9258,3.9258,3.9522,3.9471,3.8831,3.8755,3.8755,3.8755,3.8755,3.8755,3.8755,3.8755,3.8755,3.8755,3.8755,3.8755,3.8755,3.8517,3.8379,3.8379,3.814,3.8002,3.8002,3.8002,3.8002,3.799,3.7616,3.6663,3.4158,3.4563,3.4772,3.5355,3.5504,3.5504,3.5504,3.5504,3.5504,3.5504,0.0,3.5504,3.5504,3.5504,3.5504,3.5504,0.0,3.5759,3.6507,3.7075,3.7689,3.8437,3.905,3.9436,3.9526,4.0068,4.0472,4.0651,4.0666,4.0905,4.1493,4.2096,4.244,4.2511,4.3025,4.329,4.329,4.329,4.329,4.329,4.329,4.329,4.329,4.329,4.329,4.329,4.329,4.329,4.329,4.329,4.2725,4.1829,4.1829,4.059,3.8769,3.8613,3.7939,3.7047,3.6732,3.6628,3.6604,3.6452,3.6405,3.6405,3.6405,3.6405,3.6394,3.6505,3.6518,3.6531,3.6582,3.6959,3.7323,3.7323,3.7663,3.8027,3.8103,3.8178,3.8379,3.8906,3.9007,3.9158,3.9609,3.9697,3.9697,3.9697,3.9697,3.9697,3.9697,3.9697,3.9697,3.9697,3.9697,3.9697,3.9697,3.9697,3.9697,3.9697,3.9697,3.9697,3.9697,3.9258,3.9007,3.9007,3.8479,3.8228,3.8228,3.8228,3.8228,3.8216,3.7436,3.6382,3.4278,3.4907,3.5355,3.5474,3.5504,3.5504,3.5504,3.5504,0.0,0.0,0.0,3.5504,3.5504,3.5504,3.5504,3.5504,0.0,0.0,0.0,0.0,3.7836,0.0,0.0,0.0,0.0,0.0,0.0,0.0,0.0,4.2111,4.2231,4.2336,4.2631,4.313,4.3265,4.329,4.329,4.329,4.329,4.329,4.329,4.329,4.329,4.329,4.329,4.329,4.329,0.0,4.329,4.329,4.319,4.3016,4.3016,4.2765,4.229,4.1343,4.0866,4.0419,3.8478,3.7802,3.7655,3.6709,3.6405,3.6405,3.6405,3.6405,3.6482,3.6934,3.7072,3.7173,3.76,3.7789,3.7864,3.7864,3.7939,3.814,3.8642,3.9082,3.9433,3.9534,3.9546,3.9584,3.9672,3.9697,3.9697,3.9697,3.9697,3.9697,3.9697,3.9697,3.9697,3.9697,3.9697,3.9697,3.9697,3.9697,3.9697,3.9697,3.9697,3.9697,3.9697,3.9597,3.9546,3.9546,3.9446,3.9396,3.9396,3.9396,3.9396,3.9408,3.9252,3.9057,3.4741,3.525,3.5504,3.5504,3.5504,3.5504,3.5504,0.0,0.0,0.0,0.0,3.5504,3.5504,0.0,0.0,0.0,0.0,0.0,0.0,0.0,0.0,0.0,0.0,0.0,0.0,0.0,0.0,0.0,0.0,4.2865,4.2865,4.2865,4.3015,4.329,4.329,4.329,4.329,4.329,4.329,4.329,4.329,4.329,4.329,4.329,4.329,4.329,4.329,0.0,4.329,4.329,4.329,4.329,4.329,4.2941,4.2351,4.1809,4.1232,4.0496,3.9028,3.851,3.8368,3.7507,3.7047,3.6808,3.6808,3.7009,3.7298,3.7538,3.7613,3.7676,3.7939,3.8228,3.8479,3.8479,3.868,3.8956,3.9258,3.9534,3.9697,3.9697,3.9697,3.9697,3.9697,3.9697,3.9697,3.9697,3.9697,3.9697,3.9697,3.9697,3.9697,3.9697,3.9697,3.9697,3.9697,3.9697,3.9697,3.9697,3.9697,3.9697,3.9697,3.9697,3.9697,3.9697,3.9697,3.9697,3.9697,3.9697,3.9697,3.9697,3.9697,3.9297,3.4951,3.5385,3.5504,3.5504,3.5504,3.5504,3.5504,3.5504,0.0,0.0,3.5504,3.5504,3.5504,0.0,0.0,0.0,0.0,0.0,0.0,0.0,0.0,0.0,0.0,0.0,0.0,0.0,0.0,0.0,0.0,0.0,4.329,4.329,4.329,4.329,4.329,4.329,4.329,4.329,4.329,4.329,4.329,4.329,4.329,4.329,4.329,4.329,4.329,0.0,0.0,4.329,4.329,4.329,4.329,4.2745,4.1953,4.1953,4.15,4.0734,3.9956,3.9791,3.9796,3.9051,3.8163,3.7386,3.7386,3.7663,3.804,3.8153,3.8191,3.8216,3.8329,3.8705,3.907,3.907,3.9383,3.9697,3.9697,3.9697,3.9697,3.9697,3.9697,3.9697,3.9697,3.9697,3.9697,3.9697,3.9697,3.9697,3.9697,3.9697,3.9697,3.9697,3.9697,3.9697,3.9697,3.9697,3.9697,3.9697,3.9697,3.9697,3.9697,3.9697,3.9697,3.9697,3.9697,3.9697,3.9697,3.9697,3.9697,3.9697,3.9697,3.8908,3.4383,3.5042,3.5504,3.5504,3.5504,3.5504,3.5504,0.0,0.0,3.5504,3.5504,3.5504,3.5504,3.5504,0.0,0.0,0.0,3.5953,0.0,0.0,0.0,0.0,0.0,0.0,0.0,0.0,0.0,0.0,0.0,4.329,4.329,4.329,4.329,4.329,4.329,4.329,4.329,4.329,4.329,4.329,4.329,4.329,4.329,4.329,4.329,4.329,4.329,0.0,0.0,4.329,4.329,4.329,4.329,4.325,4.3135,4.3135,4.3468,4.3749,4.2636,4.2653,4.2979,4.182,3.9844,3.7939,3.7939,3.7965,3.8115,3.8668,3.8818,3.8931,3.9408,3.9572,3.9622,3.9622,3.9659,3.9697,3.9697,3.9697,3.9697,3.9697,3.9697,3.9697,3.9697,3.9697,3.9697,3.9697,3.9697,3.9697,3.9697,3.9697,3.9697,3.9697,3.9697,3.9697,3.9697,3.9697,3.9697,3.9697,3.9697,3.9697,3.9697,3.9697,3.9697,3.9697,3.9697,3.9697,3.9697,3.9697,3.9697,3.9697,3.9697,3.8908,3.4203,3.4697,3.4981,3.54,3.5504,3.5504,3.5504,0.0,3.5504,3.5504,3.5504,3.5504,3.5504,3.5504,3.5504,0.0,0.0,0.0,0.0,0.0,0.0,0.0,0.0,0.0,0.0,0.0,0.0,0.0,0.0,4.329,4.329,4.329,4.329,4.329,4.329,4.329,4.329,4.329,4.329,4.329,4.329,4.329,4.329,4.329,4.329,4.329,4.329,0.0,0.0,4.329,4.329,4.329,4.329,4.3564,4.3908,4.3908,4.4326,4.478,4.3964,4.3862,4.3937,4.3087,4.2137,4.1116,4.0024,3.9368,3.9069,3.9295,3.9396,3.9446,3.9634,3.9697,3.9697,3.9697,3.9697,3.9697,3.9697,3.9697,3.9697,3.9697,3.9697,3.9697,3.9697,3.9697,3.9697,3.9697,3.9697,3.9697,3.9697,3.9697,3.9697,3.9697,3.9697,3.9697,3.9697,3.9697,3.9697,3.9697,3.9697,3.9697,3.9697,3.9697,3.9697,3.9697,3.9697,3.9697,3.9697,3.9697,3.9697,3.9697,3.9697,3.9388,3.3589,3.4054,3.4323,3.4786,3.4921,3.4966,0.0,0.0,3.525,3.5459,3.5504,3.5504,3.5504,3.5504,3.5504,3.5504,3.5504,3.5953,3.7208,0.0,0.0,0.0,0.0,0.0,0.0,0.0,0.0,0.0,4.329,4.329,4.329,4.329,4.329,4.329,4.329,4.329,4.329,4.329,4.329,4.329,4.329,4.329,4.329,4.329,4.329,4.329,4.329,0.0,0.0,4.329,4.329,4.3319,4.3519,4.3878,4.4311,4.4506,4.502,4.5538,4.5105,4.5098,4.5184,4.4752,4.4373,4.3751,4.2106,4.0967,4.0173,3.9813,3.9697,3.9697,3.9697,3.9697,3.9697,3.9697,3.9697,3.9697,3.9697,3.9697,3.9697,3.9697,3.9697,3.9697,3.9697,3.9697,3.9697,3.9697,3.9697,3.9697,3.9697,3.9697,3.9697,3.9697,3.9697,3.9697,3.9697,3.9697,3.9697,3.9697,3.9697,3.9697,3.9697,3.9697,3.9697,3.9697,3.9697,3.9697,3.9697,3.986,3.9936,3.9936,4.0111,4.0174,3.2347,3.3006,3.3499,3.3514,3.3514,3.3679,0.0,0.0,3.4697,3.537,3.5504,3.5504,3.5504,3.5504,3.5504,3.5504,3.5504,3.5953,3.7208,0.0,0.0,0.0,0.0,0.0,0.0,0.0,0.0,0.0,4.329,0.0,4.329,4.329,4.329,4.329,4.329,4.329,4.329,4.329,4.329,4.329,4.329,4.329,4.329,4.329,4.329,4.329,0.0,0.0,0.0,4.329,4.329,4.3384,4.4027,4.4282,4.4371,4.505,4.5723,4.6285,4.6279,4.6698,4.7273,4.7251,4.6403,4.5138,4.3844,4.2593,4.1319,4.0057,3.9697,3.9697,3.9697,3.9697,3.9697,3.9697,3.9697,3.9697,3.9697,3.9697,3.9697,3.9697,3.9697,3.9697,3.9697,3.9697,3.9697,3.9697,3.9697,3.9697,3.9697,3.9697,3.9697,3.9697,3.9697,3.9697,3.9697,3.9697,3.9697,3.9697,3.9697,3.9697,3.9697,3.9697,3.9697,3.9697,3.9697,3.9697,3.9697,4.0237,4.0487,4.0499,4.1039,4.1263,3.233,3.2987,3.3508,3.3502,3.3499,3.356,3.3769,3.4173,3.4563,3.4772,3.5175,3.5504,3.5504,3.5504,3.5504,3.5504,3.5504,3.5953,0.0,0.0,0.0,0.0,0.0,0.0,0.0,0.0,0.0,4.329,4.329,4.329,4.329,4.329,4.329,4.329,4.329,4.329,4.329,4.329,4.329,4.329,4.329,4.329,4.329,4.329,4.329,0.0,0.0,0.0,0.0,4.329,4.329,4.3384,4.4042,4.4586,4.5065,4.5753,4.6405,4.6973,4.6973,4.713,4.7309,4.7309,4.7019,4.6469,4.5184,4.3313,4.1344,4.0057,3.9697,3.9697,3.9697,3.9697,3.9697,3.9697,3.9697,3.9697,3.9697,3.9697,3.9697,3.9697,3.9697,3.9697,3.9697,3.9697,3.9697,3.9697,3.9697,3.9697,3.9697,3.9697,3.9697,3.9697,3.9697,3.9697,3.9697,3.9697,3.9697,3.9697,3.9697,3.9697,3.9697,3.9697,3.9873,4.0249,4.0262,4.0411,4.0788,4.0964,4.1051,4.1051,4.1227,4.1516,0.0,3.281,3.3159,3.3147,3.3152,0.0,3.3126,3.3834,3.45,3.4491,3.5026,3.5504,3.5504,3.5504,3.5504,3.5504,3.5504,3.5953,0.0,0.0,0.0,0.0,0.0,0.0,0.0,0.0,4.329,4.329,4.329,4.329,4.329,4.329,4.329,4.329,4.329,4.329,4.329,4.329,4.329,4.329,4.329,4.329,4.329,4.329,4.329,0.0,0.0,0.0,0.0,4.329,4.3439,4.3743,4.4421,4.5095,4.5768,4.642,4.6929,4.7309,4.7309,4.7309,4.7309,4.7309,4.6975,4.6447,4.5644,4.3952,4.2046,4.0794,4.0415,4.0313,3.9813,3.9697,3.9697,3.9697,3.9697,3.9697,3.9697,3.9697,3.9697,3.9697,3.9697,3.9697,3.9697,3.9697,3.9697,3.9697,3.9697,3.9697,3.9697,3.9697,3.9697,3.9697,3.9885,4.0011,4.0011,3.9823,3.9697,3.9697,3.9885,4.0011,4.0011,4.0212,4.0449,4.08,4.08,4.0964,4.1315,4.1516,4.1756,4.193,4.193,4.2145,0.0,3.2632,3.2654,3.2614,3.26,3.2564,3.2449,3.3555,0.0,3.445,3.5029,3.5554,3.5504,3.5504,3.5504,3.5504,3.5504,0.0,0.0,0.0,0.0,0.0,0.0,0.0,0.0,4.329,4.329,4.329,4.329,4.329,4.329,4.329,4.329,4.329,4.329,4.329,4.329,4.329,4.329,4.329,4.329,4.329,4.329,4.329,4.329,0.0,0.0,4.329,0.0,4.329,4.3698,4.4377,4.5035,4.5723,4.6375,4.7055,4.7309,4.7309,4.7309,4.7309,4.7309,4.7309,4.6491,4.5539,4.5539,4.4595,4.3242,4.207,4.1678,4.1344,4.0147,3.9762,3.9697,3.9697,3.9697,3.9697,3.9697,3.9697,3.9697,3.9697,3.9697,3.9697,3.9697,3.9697,3.9697,3.9697,3.9697,3.971,3.9747,3.9747,3.9772,3.981,4.0275,4.0549,4.0549,4.0111,3.981,3.981,4.0287,4.0549,4.0549,4.1039,4.1327,4.1365,4.1403,4.1428,4.1428,4.1997,4.2499,4.3002,4.3002,4.3002,3.2757,0.0,3.3235,3.2736,3.26,3.2456,0.0,3.3664,3.5089,0.0,0.0,3.6165,3.5603,3.5504,3.5504,3.5504,3.5504,3.5953,0.0,0.0,0.0,0.0,0.0,0.0,0.0,4.329,4.329,4.329,4.329,4.329,4.329,4.329,4.329,4.329,4.329,4.329,4.329,4.329,4.329,4.329,4.329,4.329,4.329,4.329,4.329,0.0,0.0,4.329,4.329,4.329,4.3698,4.4377,4.5035,4.5723,4.6375,4.7055,4.7309,4.7309,4.7309,4.7309,4.7309,4.7309,4.7099,4.6851,4.6851,4.5275,4.3432,4.3146,4.2363,4.153,4.1219,4.044,3.9697,3.9697,3.9697,3.9697,3.9697,3.9697,3.9697,3.9697,3.9697,3.9697,3.9697,3.9697,3.9697,3.9697,3.9697,3.9848,4.0275,4.0325,4.0462,4.0888,4.1039,4.1114,4.1114,4.1001,4.0926,4.0926,4.1051,4.1114,4.1114,4.1213,4.1516,4.1984,4.2399,4.2585,4.2585,4.275,4.2876,4.3002,4.3002,4.3002,3.2701,3.3037,3.3083,3.3066,3.3053,3.2866,3.2131,0.0,0.0,0.0,0.0,0.0,3.607,3.5733,0.0,3.5943,3.5989,0.0,0.0,0.0,0.0,0.0,0.0,0.0,0.0,4.329,4.329,4.329,4.329,4.329,4.329,4.329,4.329,4.329,4.329,4.329,4.329,4.329,4.329,4.329,4.329,4.329,4.329,4.329,4.329,0.0,4.329,4.329,4.3319,4.3638,4.4147,4.4825,4.5499,4.6172,4.6794,4.7174,4.7309,4.7309,4.7309,4.7309,4.7309,4.7309,4.7309,4.7309,4.7309,4.6344,4.5115,4.4549,4.3456,4.2339,4.1739,4.0642,3.9697,3.9697,3.9697,3.9697,3.9697,3.9697,3.9697,3.9697,3.9697,3.9697,3.9697,3.9697,3.9772,4.0036,4.0074,4.0275,4.08,4.0876,4.0989,4.1277,4.1541,4.1706,4.1706,4.1944,4.1854,4.1313,4.1553,4.1706,4.1706,4.1957,4.2233,4.2549,4.2851,4.3002,4.3002,4.3002,4.3002,4.3002,4.3002,4.3002,3.2591,3.2637,3.2834,3.3558,3.3752,3.3601,3.2988,0.0,0.0,0.0,0.0,0.0,0.0,0.0,0.0,0.0,0.0,0.0,0.0,0.0,0.0,0.0,0.0,0.0,4.325,4.329,4.329,4.329,4.329,4.329,4.329,4.329,4.329,4.329,4.329,4.329,4.329,4.329,4.329,4.329,4.329,4.329,4.329,4.329,4.329,4.329,0.0,0.0,4.3504,4.4072,4.4766,4.5514,4.6076,4.6704,4.7309,4.7309,4.7309,4.7309,4.7309,4.7309,4.7309,4.7309,4.7309,4.7309,4.7309,4.7309,4.7062,4.5995,4.4642,4.3242,4.2168,4.0794,3.9697,3.9697,3.9697,3.9697,3.9697,3.9697,3.9697,3.9697,3.9697,3.9697,3.9697,3.976,3.9986,4.0411,4.0562,4.0813,4.1365,4.144,4.1465,4.1553,4.2007,4.2338,4.2338,4.2738,4.2585,4.1616,4.2047,4.2338,4.2338,4.2763,4.3002,4.3002,4.3002,4.3002,4.3002,4.3002,4.3002,4.3002,4.3002,4.3002,3.296,3.33,3.3509,3.425,3.4479,3.4497,3.4398,0.0,0.0,0.0,0.0,0.0,0.0,0.0,0.0,0.0,0.0,0.0,0.0,0.0,0.0,0.0,0.0,4.2646,4.325,4.329,4.329,4.329,4.329,4.329,4.329,4.329,4.329,4.329,4.329,4.329,4.329,4.329,4.329,4.329,4.329,4.329,4.329,4.329,4.329,4.329,0.0,4.3624,4.4147,4.4252,4.5029,4.6151,4.6256,4.6704,4.7309,4.7309,4.7309,4.7309,4.7309,4.7309,4.7309,4.7309,4.7309,4.7309,4.7309,4.7309,4.7251,4.7062,4.5298,4.3456,4.3266,4.1455,3.9697,3.9697,3.9697,3.9697,3.9697,3.9697,3.9697,3.9697,3.9697,3.9697,3.9697,4.0086,4.0425,4.0501,4.0888,4.139,4.1984,4.206,4.2235,4.2672,4.2826,4.2876,4.2876,4.2951,4.2939,4.2735,4.2838,4.2876,4.2876,4.2964,4.3002,4.3002,4.3002,4.3002,4.3002,4.3002,4.3002,4.3002,4.3002,4.3002,3.3714,3.4029,3.4362,3.5492,3.5209,3.4859,3.5652,0.0,0.0,0.0,0.0,0.0,0.0,0.0,0.0,0.0,0.0,0.0,0.0,0.0,0.0,0.0,0.0,4.3015,4.326,4.329,4.329,4.329,4.329,4.329,4.329,4.329,4.329,4.329,4.329,4.329,4.329,4.329,4.329,4.329,4.329,4.329,4.329,4.329,4.329,4.329,0.0,4.3683,4.4326,4.4691,4.5424,4.6345,4.6689,4.704,4.7309,4.7309,4.7309,4.7309,4.7309,4.7309,4.7309,4.7309,4.7309,4.7309,4.7309,4.7309,4.7309,4.7309,4.5973,4.4526,4.4526,4.3146,4.1579,4.0882,4.0718,4.0529,3.9865,3.9697,3.9697,3.9697,3.9697,3.9785,4.0086,4.035,4.0714,4.1343,4.1618,4.1982,4.2562,4.2625,4.2725,4.2977,4.3002,4.3002,4.3002,4.3002,4.3002,4.3002,4.3002,4.3002,4.3002,4.3002,4.3002,4.3002,4.3002,4.3002,4.3002,4.3002,4.3002,4.3002,4.3002,4.3002,3.4313,3.4806,3.5426,3.6735,0.0,3.5504,3.698,0.0,0.0,0.0,0.0,0.0,0.0,0.0,0.0,0.0,0.0,0.0,0.0,4.0546,4.1403,4.1403,4.2517,4.329,4.329,4.329,4.329,4.329,4.329,4.329,4.329,4.329,4.329,4.329,4.329,4.329,4.329,4.329,4.329,4.329,4.329,4.329,4.329,4.329,4.329,4.3305,4.3474,4.3908,4.4601,4.5259,4.5933,4.6585,4.7115,4.7309,4.7309,4.7309,4.7309,4.7309,4.7309,4.7309,4.7309,4.7309,4.7309,4.7309,4.7309,4.7309,4.7309,4.7309,4.6594,4.5779,4.5471,4.4233,4.281,4.1838,4.1369,4.0882,3.9904,3.9697,3.9697,3.9697,3.9798,4.0023,4.0411,4.0727,4.1191,4.2087,4.2313,4.2524,4.2951,4.3002,4.3002,4.3002,4.3002,4.3002,4.3002,4.3002,4.3002,4.3002,4.3002,4.3002,4.3002,4.3002,4.3002,4.3002,4.3002,4.3002,4.3002,4.3002,4.3002,4.3002,4.3002,4.3002,3.4313,3.556,3.6839,3.7623,0.0,0.0,3.8509,0.0,0.0,0.0,0.0,0.0,0.0,0.0,0.0,0.0,0.0,3.8631,3.9316,0.0,4.1403,4.1403,4.2517,4.329,4.329,4.329,4.329,4.329,4.329,4.329,4.329,4.329,4.329,4.329,4.329,4.329,4.329,4.329,4.329,4.329,4.329,4.329,4.329,4.329,4.329,4.3319,4.3967,4.4616,4.5274,4.5942,4.6614,4.7234,4.7279,4.7309,4.7309,4.7309,4.7309,4.7309,4.7309,4.7309,4.7309,4.7309,4.7309,4.7309,4.7309,4.7309,4.7309,4.7309,4.7229,4.6894,4.5711,4.3575,4.1715,4.1629,4.0693,3.9813,3.9723,3.9697,3.9697,3.9697,4.0111,4.0437,4.0487,4.1394,4.2112,4.22,4.2612,4.2964,4.3002,4.3002,4.3002,4.3002,4.3002,4.3002,4.3002,4.3002,4.3002,4.3002,4.3002,4.3002,4.3002,4.3002,4.3002,4.3002,4.3002,4.3002,4.3002,4.3002,4.3002,4.3002,4.3002,4.3002,3.4968,3.5605,0.0,0.0,0.0,0.0,0.0,0.0,0.0,0.0,0.0,0.0,0.0,0.0,0.0,0.0,0.0,3.9107,3.9361,4.0546,4.1403,4.1403,4.2517,4.329,4.329,4.329,4.329,4.329,4.329,4.329,4.329,4.329,4.329,4.329,4.329,4.329,4.329,4.329,4.329,4.329,4.329,4.329,4.329,4.329,4.329,4.3334,4.4012,4.4691,4.5349,4.6016,4.6689,4.7309,4.7309,4.7309,4.7309,4.7309,4.7309,4.7309,4.7309,4.7309,4.7309,4.7309,4.7309,4.7309,4.7309,4.7309,4.7309,4.7309,4.7309,4.7186,4.6704,4.5275,4.3764,4.2978,4.1813,4.0642,3.9865,3.9697,3.9798,4.0136,4.0349,4.0739,4.1444,4.1909,4.2298,4.265,4.2876,4.3002,4.3002,4.3002,4.3002,4.3002,4.3002,4.3002,4.3002,4.3002,4.3002,4.3002,4.3002,4.3002,4.3002,4.3002,4.3002,4.3002,4.3002,4.3002,4.3002,4.3002,4.3002,4.3002,4.3002,4.3002,3.5723,3.6152,3.6629,0.0,0.0,0.0,0.0,0.0,0.0,0.0,0.0,0.0,0.0,0.0,0.0,0.0,3.9897,3.972,3.9427,4.0546,4.1403,4.1403,4.2517,4.329,4.329,4.329,4.329,4.329,4.329,4.329,4.329,4.329,4.329,4.329,4.329,4.329,4.329,4.329,4.329,4.329,4.329,4.329,4.329,4.329,4.3429,4.3653,4.4311,4.5005,4.5678,4.633,4.6884,4.7309,4.7309,4.7309,4.7309,4.7309,4.7309,4.7309,4.7309,4.7309,4.7309,4.7309,4.7309,4.7309,4.7309,4.7309,4.7309,4.7309,4.7309,4.7309,4.7309,4.6344,4.5092,4.3811,4.2533,4.1244,3.9981,3.9835,4.0061,4.0411,4.0789,4.1266,4.2087,4.2323,4.2575,4.2951,4.3002,4.3002,4.3002,4.3002,4.3002,4.3002,4.3002,4.3002,4.3002,4.3002,4.3002,4.3002,4.3002,4.3002,4.3002,4.3002,4.3002,4.3002,4.3002,4.3002,4.3002,4.3002,4.3002,4.3002,4.3002,4.3002,3.6389,3.733,3.8063,0.0,0.0,0.0,0.0,0.0,0.0,0.0,0.0,0.0,0.0,0.0,0.0,4.0735,4.0707,4.0397,3.952,4.0546,4.1388,4.1403,4.2517,4.329,4.329,4.329,4.329,4.329,4.329,4.329,4.329,4.329,4.329,4.329,4.329,4.329,4.329,4.329,4.329,4.329,4.329,4.329,4.329,4.329,4.3668,4.4326,4.5005,4.5678,4.6345,4.7018,4.7309,4.7309,4.7309,4.7309,4.7309,4.7309,4.7309,4.7309,4.7309,4.7309,4.7309,4.7309,4.7309,4.7309,4.7309,4.7309,4.7309,4.7309,4.7309,4.7309,4.7309,4.6358,4.5092,4.3811,4.2533,4.1244,3.9981,4.0136,4.0487,4.0499,4.1444,4.2213,4.2213,4.265,4.3002,4.3002,4.3002,4.3002,4.3002,4.3002,4.3002,4.3002,4.3002,4.3002,4.3002,4.3002,4.3002,4.3002,4.3002,4.3002,4.3002,4.3002,4.3002,4.3002,4.3002,4.3002,4.3002,4.3002,4.3002,4.3002,4.3002,4.3002,3.6513,3.693,0.0,0.0,0.0,0.0,0.0,0.0,0.0,0.0,0.0,0.0,0.0,0.0,0.0,4.161,4.1097,4.0397,3.952,4.0157,4.0861,4.1343,4.2152,4.2821,4.3245,4.329,4.329,4.329,4.329,4.329,4.329,4.329,4.329,4.329,4.329,4.329,4.329,4.329,4.329,4.329,4.329,4.329,4.329,4.329,4.3668,4.4326,4.5005,4.5678,4.6345,4.7018,4.7309,4.7309,4.7309,4.7309,4.7309,4.7309,4.7309,4.7309,4.7309,4.7309,4.7309,4.7309,4.7309,4.7309,4.7309,4.7309,4.7309,4.7309,4.7309,4.7309,4.7309,4.7019,4.6188,4.4022,4.2533,4.1349,4.0461,4.04,4.0752,4.1544,4.1959,4.2338,4.27,4.2901,4.3002,4.3002,4.3002,4.3002,4.3002,4.3002,4.3002,4.3002,4.3002,4.3002,4.3002,4.3002,4.3002,4.3002,4.3002,4.3002,4.3002,4.3002,4.3002,4.3002,4.3002,4.3002,4.3002,4.3002,4.3002,4.3002,4.3002,4.3002,3.7038,3.7431,0.0,0.0,0.0,0.0,0.0,0.0,0.0,0.0,0.0,0.0,0.0,0.0,0.0,4.1642,4.133,4.0792,3.9574,3.9993,4.0651,4.1328,4.1991,4.2646,4.325,4.329,4.329,4.329,4.329,4.329,4.329,4.329,4.329,4.329,4.329,4.329,4.329,4.329,4.329,4.329,4.329,4.329,4.3305,4.3579,4.4057,4.4751,4.5693,4.6322,4.6719,4.7123,4.7309,4.7309,4.7309,4.7309,4.7309,4.7309,4.7309,4.7309,4.7309,4.7309,4.7309,4.7309,4.7309,4.7309,4.7309,4.7309,4.7309,4.7309,4.7309,4.7309,4.7309,4.7309,4.666,4.4116,4.3083,4.2276,4.0805,4.0865,4.1394,4.2087,4.2361,4.2612,4.2951,4.3002,4.3002,4.3002,4.3002,4.3002,4.3002,4.3002,4.3002,4.3002,4.3002,4.3002,4.3002,4.3002,4.3002,4.3002,4.3002,4.3002,4.3002,4.3002,4.3002,4.3002,4.3002,4.3002,4.3002,4.3002,4.3002,4.3002,4.3002,4.3002,3.7702,0.0,0.0,0.0,0.0,0.0,0.0,0.0,0.0,0.0,0.0,0.0,0.0,0.0,4.3783,4.1231,4.1478,4.1379,3.9646,3.9915,4.0576,4.1313,4.1946,4.2571,4.325,4.329,4.329,4.329,4.329,4.329,4.329,4.329,4.329,4.329,4.329,4.329,4.329,4.329,4.329,4.329,4.329,4.329,4.3319,4.3997,4.4706,4.5454,4.6741,4.7309,4.7309,4.7309,4.7309,4.7309,4.7309,4.7309,4.7309,4.7309,4.7309,4.7309,4.7309,4.7309,4.7309,4.7309,4.7309,4.7309,4.7309,4.7309,4.7309,4.7309,4.7309,4.7309,4.7309,4.7207,4.6528,4.4139,4.3953,4.3622,4.1115,4.1444,4.2225,4.2248,4.2663,4.3002,4.3002,4.3002,4.3002,4.3002,4.3002,4.3002,4.3002,4.3002,4.3002,4.3002,4.3002,4.3002,4.3002,4.3002,4.3002,4.3002,4.3002,4.3002,4.3002,4.3002,4.3002,4.3002,4.3002,4.3002,4.3002,4.3002,4.3002,4.3002,4.3002,4.3002,3.7702,3.8447,0.0,0.0,0.0,0.0,0.0,0.0,0.0,0.0,0.0,0.0,0.0,4.4006,4.396,4.2029,4.1885,4.1379,3.9646,3.9526,4.0068,4.1268,4.1523,4.2062,4.3205,4.329,4.329,4.329,4.329,4.329,4.329,4.329,4.329,4.329,4.329,4.329,4.329,4.329,4.329,4.329,4.329,4.329,4.3319,4.3997,4.494,4.6121,4.695,4.7309,4.7309,4.7309,4.7309,4.7309,4.7309,4.7309,4.7309,4.7309,4.7309,4.7309,4.7309,4.7309,4.7309,4.7309,4.7309,4.7309,4.7309,4.7309,4.7309,4.7309,4.7309,4.7309,4.7309,4.6572,4.5518,4.4409,4.4208,4.3731,4.1585,4.1681,4.2311,4.275,4.2926,4.3002,4.3002,4.3002,4.3002,4.3002,4.3002,4.3002,4.3002,4.3002,4.3002,4.3002,4.3002,4.3002,4.3002,4.3002,4.3002,4.3002,4.3002,4.3002,4.3002,4.3002,4.3002,4.3002,4.3002,4.3002,4.3002,4.3002,4.3002,4.3002,4.3002,4.3002,0.0,0.0,0.0,0.0,0.0,0.0,0.0,0.0,0.0,0.0,0.0,0.0,4.4006,4.3962,4.3545,4.2221,4.1997,4.1379,3.9646,3.9773,4.0367,4.1295,4.1403,4.1893,4.319,4.329,4.329,4.329,4.329,4.329,4.329,4.329,4.329,4.329,4.329,4.329,4.329,4.329,4.329,4.329,4.329,4.3638,4.4267,4.4631,4.5514,4.6794,4.716,4.7309,4.7309,4.7309,4.7309,4.7309,4.7309,4.7309,4.7309,4.7309,4.7309,4.7309,4.7309,4.7309,4.7309,4.7309,4.7309,4.7309,4.7309,4.7309,4.7309,4.7309,4.7309,4.7309,4.7309,4.7066,4.6361,4.4717,4.4034,4.3399,4.2038,4.2185,4.2663,4.2951,4.3002,4.3002,4.3002,4.3002,4.3002,4.3002,4.3002,4.3002,4.3002,4.3002,4.3002,4.3002,4.3002,4.3002,4.3002,4.3002,4.3002,4.3002,4.3002,4.3002,4.3002,4.3002,4.3002,4.3002,4.3002,4.3002,4.3002,4.3002,4.3002,4.3002,4.3002,4.3002,0.0,0.0,0.0,0.0,0.0,0.0,0.0,0.0,0.0,0.0,0.0,4.4615,4.4615,4.3887,4.3017,4.2141,4.1869,4.1213,3.9628,4.0025,4.0709,4.1333,4.1403,4.1893,4.319,4.329,4.329,4.329,4.329,4.329,4.329,4.329,4.329,4.329,4.329,4.329,4.329,4.329,4.329,4.329,4.3429,4.4102,4.5289,4.5424,4.6142,4.7309,4.7309,4.7309,4.7309,4.7309,4.7309,4.7309,4.7309,4.7309,4.7309,4.7309,4.7309,4.7309,4.7309,4.7309,4.7309,4.7309,4.7309,4.7309,4.7309,4.7309,4.7309,4.7309,4.7309,4.7309,4.7309,4.762,4.7365,4.4985,4.3879,4.3154,4.2359,4.2612,4.3002,4.3002,4.3002,4.3002,4.3002,4.3002,4.3002,4.3002,4.3002,4.3002,4.3002,4.3002,4.3002,4.3002,4.3002,4.3002,4.3002,4.3002,4.3002,4.3002,4.3002,4.3002,4.3002,4.3002,4.3002,4.3002,4.3002,4.3002,4.3002,4.3002,4.3002,4.3002,4.3002,4.3002,0.0,0.0,0.0,0.0,0.0,0.0,0.0,0.0,0.0,0.0,4.4615,4.4615,4.4615,4.3887,4.3017,4.2141,4.1379,4.0535,3.9553,3.9499,4.0034,4.1257,4.1403,4.1893,4.319,4.329,4.329,4.329,4.329,4.329,4.329,4.329,4.329,4.329,4.329,4.329,4.329,4.329,4.329,4.3305,4.3893,4.4571,4.5319,4.5897,4.657,4.7309,4.7309,4.7309,4.7309,4.7309,4.7309,4.7309,4.7309,4.7309,4.7309,4.7309,4.7309,4.7309,4.7309,4.7309,4.7309,4.7309,4.7309,4.7309,4.7309,4.7309,4.7309,4.7309,4.7309,4.7309,4.7309,4.6977,4.6376,4.5246,4.4524,4.3703,4.2475,4.2612,4.3002,4.3002,4.3002,4.3002,4.3002,4.3002,4.3002,4.3002,4.3002,4.3002,4.3002,4.3002,4.3002,4.3002,4.3002,4.3002,4.3002,4.3002,4.3002,4.3002,4.3002,4.3002,4.3002,4.3002,4.3002,4.3002,4.3002,4.3002,4.3002,4.3002,4.3002,4.3002,4.3002,4.3002,3.8916,0.0,0.0,0.0,0.0,0.0,0.0,0.0,0.0,4.3707,4.4296,4.4615,4.4615,4.3501,4.2458,4.2062,4.128,4.0397,3.952,4.0126,4.0861,4.134,4.1733,4.2316,4.32,4.329,4.329,4.329,4.329,4.329,4.329,4.329,4.329,4.329,4.329,4.329,4.329,4.329,4.3504,4.3863,4.4541,4.5214,4.5867,4.654,4.7018,4.7309,4.7309,4.7309,4.7309,4.7309,4.7309,4.7309,4.7309,4.7309,4.7309,4.7309,4.7309,4.7309,4.7309,4.7309,4.7309,4.7309,4.7309,4.7309,4.7309,4.7309,4.7309,4.7309,4.7309,4.7399,4.7758,4.7941,4.7619,4.603,4.5733,4.5247,4.3108,4.2826,4.3002,4.3002,4.3002,4.3002,4.3002,4.3002,4.3002,4.3002,4.3002,4.3002,4.3002,4.3002,4.3002,4.3002,4.3002,4.3002,4.3002,4.3002,4.3002,4.3002,4.3002,4.3002,4.3002,4.3002,4.3002,4.3002,4.3002,4.3002,4.3002,4.3002,4.3002,4.3002,4.3002,4.3002,0.0,0.0,0.0,0.0,0.0,0.0,0.0,0.0,4.2506,0.0,4.4045,4.4615,4.4615,4.3168,4.1997,4.1997,4.108,4.015,3.9499,4.0545,4.1379,4.1389,4.1991,4.2646,4.325,4.329,4.329,4.329,4.329,4.329,4.329,4.329,4.329,4.329,4.329,4.329,4.329,4.329,4.3638,4.4311,4.4975,4.5663,4.633,4.6988,4.7309,4.7309,4.7309,4.7309,4.7309,4.7309,4.7309,4.7309,4.7309,4.7309,4.7309,4.7309,4.7309,4.7309,4.7309,4.7309,4.7309,4.7309,4.7309,4.7309,4.7309,4.7309,4.7309,4.7309,4.7309,4.7459,4.8139,4.8798,4.8758,4.6608,4.6615,4.6357,4.3602,4.3002,4.3002,4.3002,4.3002,4.3002,4.3002,4.3002,4.3002,4.3002,4.3002,4.3002,4.3002,4.3002,4.3002,4.3002,4.3002,4.3002,4.3002,4.3002,4.3002,4.3002,4.3002,4.3002,4.3002,4.3002,4.3002,4.3002,4.3002,4.3002,4.3002,4.3002,4.3002,4.3002,4.3002,4.3002,0.0,0.0,0.0,0.0,0.0,0.0,0.0,0.0,0.0,4.3254,4.4045,4.4615,4.4615,4.3168,4.1997,4.1997,4.0585,3.9445,3.9406,4.0014,4.0692,4.1328,4.1991,4.2646,4.325,4.329,4.329,4.329,4.329,4.329,4.329,4.329,4.329,4.329,4.329,4.329,4.329,4.329,4.3638,4.4311,4.4975,4.5663,4.633,4.6988,4.7309,4.7309,4.7309,4.7309,4.7309,4.7309,4.7309,4.7309,4.7309,4.7309,4.7309,4.7309,4.7309,4.7309,4.7309,4.7309,4.7309,4.7309,4.7309,4.7309,4.7309,4.7309,4.7309,4.7309,4.7309,4.7459,4.8139,4.8798,4.8758,4.6608,4.6615,4.6357,4.3602,4.3002,4.3002,4.3002,4.3002,4.3002,4.3002,4.3002,4.3002,4.3002,4.3002,4.3002,4.3002,4.3002,4.3002,4.3002,4.3002,4.3002,4.3002,4.3002,4.3002,4.3002,4.3002,4.3002,4.3002,4.3002,4.3002,4.3002,4.3002,4.3002,4.3002,4.3002,4.3002,4.3002,4.3002,4.3002,0.0,0.0,0.0,0.0,0.0,0.0,0.0,4.1437,4.2371,4.2642,4.3704,4.4426,4.3858,4.2801,4.1997,4.1997,4.0533,3.9406,3.9406,4.0352,4.1134,4.1373,4.2327,4.3055,4.3275,4.329,4.329,4.329,4.329,4.329,4.329,4.329,4.329,4.329,4.329,4.329,4.329,4.329,4.3848,4.4945,4.5185,4.5888,4.6943,4.7189,4.7309,4.7309,4.7309,4.7309,4.7309,4.7309,4.7309,4.7309,4.7309,4.7309,4.7309,4.7309,4.7309,4.7309,4.7309,4.7309,4.7309,4.7309,4.7309,4.7309,4.7309,4.7309,4.7309,4.7309,4.7309,4.7549,4.8663,4.8441,4.751,4.58,4.4916,4.4195,4.3212,4.3002,4.3002,4.3002,4.3002,4.3002,4.3002,4.3002,4.3002,4.3002,4.3002,4.3002,4.3002,4.3002,4.3002,4.3002,4.3002,4.3002,4.3002,4.3002,4.3002,4.3002,4.3002,4.3002,4.3002,4.3002,4.3002,4.3002,4.3002,4.3002,4.3002,4.3002,4.3002,4.3002,4.3002,4.3002,0.0,0.0,0.0,0.0,0.0,4.0096,4.0096,0.0,4.1999,4.2249,4.3301,4.4094,4.3794,4.2769,4.1901,4.1609,4.0359,3.9406,3.9406,4.0367,4.1149,4.1373,4.2342,4.307,4.3275,4.329,4.329,4.329,4.329,0.0,4.329,4.329,4.329,4.329,4.329,4.329,4.329,4.329,4.3967,4.5289,4.5289,4.6007,4.7309,4.7309,4.7309,4.7309,4.7309,4.7309,4.7309,4.7309,4.7309,4.7309,4.7309,4.7309,4.7309,4.7309,4.7309,4.7309,4.7309,4.7309,4.7309,4.7309,4.7309,4.7309,4.7309,4.7309,4.7309,4.7309,4.7459,4.7878,4.9007,4.859,4.7515,4.6037,4.4657,4.3547,4.3113,4.3002,4.3002,4.3002,4.3002,4.3002,4.3002,4.3002,4.3002,4.3002,4.3002,4.3002,4.3002,4.3002,4.3002,4.3002,4.3002,4.3002,4.3002,4.3002,4.3002,4.3002,4.3002,4.3002,4.3002,4.3002,4.3002,4.3002,4.3002,4.3002,4.3002,4.3002,4.3002,4.3002,4.3002,4.3002,0.0,0.0,0.0,0.0,0.0,0.0,4.0096,0.0,4.1407,4.213,4.2865,4.3612,4.4359,4.3121,4.1707,4.0811,3.9955,3.9406,3.9406,3.9993,4.0651,4.1328,4.1991,4.2646,4.325,4.329,4.329,4.329,4.329,4.329,4.329,4.329,4.329,4.329,4.329,4.329,4.329,4.329,4.3967,4.5289,4.5289,4.6007,4.7309,4.7309,4.7309,4.7309,4.7309,4.7309,4.7309,4.7309,4.7309,4.7309,4.7309,4.7309,4.7309,4.7309,4.7309,4.7309,4.7309,4.7309,4.7309,4.7309,4.7309,4.7309,4.7309,4.7309,4.7309,4.7309,4.7773,4.8446,4.9097,4.9237,4.8826,4.7376,4.599,4.463,4.3295,4.3002,4.3002,4.3002,4.3002,4.3002,4.3002,4.3002,4.3002,4.3002,4.3002,4.3002,4.3002,4.3002,4.3002,4.3002,4.3002,4.3002,4.3002,4.3002,4.3002,4.3002,4.3002,4.3002,4.3002,4.3002,4.3002,4.3002,4.3002,4.3002,4.3002,4.3002,4.3002,4.3002,4.3002,4.3002,4.0096,0.0,0.0,0.0,0.0,0.0,4.0096,4.0675,4.1271,4.1457,4.251,4.3107,4.2123,4.1962,4.1511,3.999,3.9556,3.9406,3.9406,3.9993,4.0651,4.1328,4.1991,4.2646,4.325,4.329,4.329,0.0,4.329,4.329,4.329,4.329,4.329,4.329,4.329,4.329,4.329,4.329,4.3967,4.5289,4.5289,4.6007,4.7309,4.7309,4.7309,4.7309,4.7309,4.7309,4.7309,4.7309,4.7309,4.7309,4.7309,4.7309,4.7309,4.7309,4.7309,4.7309,4.7309,4.7309,4.7309,4.7309,4.7309,4.7309,4.7309,4.7309,4.7309,4.7309,4.7773,4.8321,4.8477,4.8861,4.8589,4.6148,4.5276,4.463,4.3295,4.3002,4.3002,4.3002,4.3002,4.3002,4.3002,4.3002,4.3002,4.3002,4.3002,4.3002,4.3002,4.3002,4.3002,4.3002,4.3002,4.3002,4.3002,4.3002,4.3002,4.3002,4.3002,4.3002,4.3002,4.3002,4.3002,4.3002,4.3002,4.3002,4.3002,4.3002,4.3002,4.3002,4.3002,4.3002,0.0,0.0,0.0,0.0,0.0,0.0,4.0096,4.0422,4.0737,4.0748,4.1664,4.2274,4.1611,4.1513,4.1308,4.0591,3.9864,3.9406,3.9406,3.9735,4.0232,4.0909,4.1568,4.2226,4.2865,4.3145,4.329,4.329,4.329,4.329,4.329,4.329,4.329,4.329,4.329,4.329,4.329,4.3579,4.4252,4.5289,4.5589,4.6277,4.7309,4.7309,4.7309,4.7309,4.7309,4.7309,4.7309,4.7309,4.7309,4.7309,4.7309,4.7309,4.7309,4.7309,4.7309,4.7309,4.7309,4.7309,4.7309,4.7309,4.7309,4.7309,4.7309,4.7309,4.7309,4.7309,4.7982,4.8828,4.9319,4.9754,4.9333,4.6539,4.5899,4.5356,4.3421,4.3002,4.3002,4.3002,4.3002,4.3002,4.3002,4.3002,4.3002,4.3002,4.3002,4.3002,4.3002,4.3002,4.3002,4.3002,4.3002,4.3002,4.3002,4.3002,4.3002,4.3002,4.3002,4.3002,4.3002,4.3002,4.3002,4.3002,4.3002,4.3002,4.3002,4.3002,4.3002,4.3002,4.3002,4.3002,0.0,0.0,0.0,0.0,0.0,0.0,4.0096,4.0096,4.0087,4.0112,4.0695,4.1372,4.1925,4.1479,4.1229,4.1773,4.0567,3.9517,3.9409,3.9406,3.9645,4.0322,4.0939,4.1583,4.2336,4.2895,4.3235,4.329,4.329,4.329,4.329,4.329,4.329,4.329,4.329,4.329,4.329,4.3967,4.4646,4.5304,4.5971,4.6644,4.7309,4.7309,4.7309,4.7309,4.7309,4.7309,4.7309,4.7309,4.7309,4.7309,4.7309,4.7309,4.7309,4.7309,4.7309,4.7309,4.7309,4.7309,4.7309,4.7309,4.7309,4.7309,4.7309,4.7309,4.7339,4.7474,4.8379,4.9591,5.087,5.1097,5.0311,4.7721,4.6966,4.6148,4.3547,4.3002,4.3002,4.3002,4.3002,4.3002,4.3002,4.3002,4.3002,4.3002,4.3002,4.3002,4.3002,4.3002,4.3002,4.3002,4.3002,4.3002,4.3002,4.3002,4.3002,4.3002,4.3002,4.3002,4.3002,4.3002,4.3002,4.3002,4.3002,4.3002,4.3002,4.3002,4.3002,4.3002,4.3002,4.3002,0.0,0.0,0.0,0.0,0.0,0.0,4.0096,4.0096,4.0109,4.0087,4.0687,4.1013,4.0402,4.12,4.1741,4.107,4.0673,4.0187,3.9499,3.9406,3.9645,4.0322,4.0516,4.1074,4.2291,4.2515,4.2776,4.3245,4.329,4.329,4.329,4.329,4.329,4.329,4.329,4.329,4.329,4.3967,4.4646,4.5304,4.5971,4.6644,4.7309,4.7309,4.7309,4.7309,4.7309,4.7309,4.7309,4.7309,4.7309,4.7309,4.7309,4.7309,4.7309,4.7309,4.7309,4.7309,4.7309,4.7309,4.7309,4.7309,4.7309,4.7309,4.7309,4.7309,4.7534,4.8603,4.9097,4.9591,5.087,5.0397,4.9186,4.7517,4.6226,4.4968,4.3338,4.3002,4.3002,4.3002,4.3002,4.3002,4.3002,4.3002,4.3002,4.3002,4.3002,4.3002,4.3002,4.3002,4.3002,4.3002,4.3002,4.3002,4.3002,4.3002,4.3002,4.3002,4.3002,4.3002,4.3002,4.3002,4.3002,4.3002,4.3002,4.3002,4.3002,4.3002,4.3002,4.3002,4.3002,4.3002,0.0,0.0,0.0,4.0096,0.0,0.0,0.0,3.9795,3.9398,3.9022,3.9534,3.9795,3.8913,3.998,4.0824,4.0288,4.0128,3.99,3.9463,3.9406,3.9526,3.9855,4.0202,4.0651,4.1343,4.2021,4.2646,4.3265,4.329,4.329,4.329,4.329,4.329,4.329,4.329,4.329,4.329,4.4296,4.4975,4.5304,4.6322,4.6958,4.7309,4.7309,4.7309,4.7309,4.7309,4.7309,4.7309,4.7309,4.7309,4.7309,4.7309,4.7309,4.7309,4.7309,4.7309,4.7309,4.7309,4.7309,4.7309,4.7309,4.7309,4.7309,4.7309,4.7534,4.7997,4.9007,4.9531,4.9972,5.0936,5.0698,4.9664,4.7594,4.6565,4.5475,4.3449,4.3002,4.3002,4.3002,4.3002,4.3002,4.3002,4.3002,4.3002,4.3002,4.3002,4.3002,4.3002,4.3002,4.3002,4.3002,4.3002,4.3002,4.3002,4.3002,4.3002,4.3002,4.3002,4.3002,4.3002,4.3002,4.3002,4.3002,4.3002,4.3002,4.3002,4.3002,4.3002,4.3002,4.3002,4.3002,0.0,0.0,0.0,0.0,0.0,4.0096,0.0,0.0,0.0,0.0,0.0,0.0,0.0,0.0,0.0,0.0,0.0,0.0,0.0,3.9409,0.0,3.9406,3.9888,4.0262,4.0382,4.1613,4.2601,4.3085,4.3235,4.329,4.329,4.329,4.329,4.329,4.329,4.329,4.329,4.4631,4.5289,4.5304,4.6666,4.7309,4.7309,4.7309,4.7309,4.7309,4.7309,4.7309,4.7309,4.7309,4.7309,4.7309,4.7309,4.7309,4.7309,4.7309,4.7309,4.7309,4.7309,4.7309,4.7309,4.7309,4.7309,4.7309,4.7309,4.7758,4.8438,4.9097,4.9733,5.0345,5.1026,5.1011,5.0191,4.7695,4.6888,4.6017,4.3547,4.3002,4.3002,4.3002,4.3002,4.3002,4.3002,4.3002,4.3002,4.3002,4.3002,4.3002,4.3002,4.3002,4.3002,4.3002,4.3002,4.3002,4.3002,4.3002,4.3002,4.3002,4.3002,4.3002,4.3002,4.3002,4.3002,4.3002,4.3002,4.3002,4.3002,4.3002,4.3002,4.3002,4.3002,4.3002,0.0,0.0,0.0,0.0,4.0096,0.0,0.0,0.0,3.9744,3.8951,0.0,0.0,0.0,0.0,0.0,0.0,0.0,0.0,3.9673,3.9503,3.9406,3.9406,3.9466,3.975,4.0337,4.1613,4.2425,4.2515,4.3015,4.329,4.329,4.329,4.329,4.329,4.329,4.329,4.329,4.4631,4.5289,4.5304,4.6666,4.7309,4.7309,4.7309,4.7309,4.7309,4.7309,4.7309,4.7309,4.7309,4.7309,4.7309,4.7309,4.7309,4.7309,4.7309,4.7309,4.7309,4.7309,4.7309,4.7309,4.7309,4.7309,4.7309,4.7309,4.7758,4.8438,4.9097,4.9733,5.0345,5.1026,5.0311,4.9024,4.7466,4.6148,4.4833,4.331,4.3002,4.3002,4.3002,4.3002,4.3002,4.3002,4.3002,4.3002,4.3002,4.3002,4.3002,4.3002,4.3002,4.3002,4.3002,4.3002,4.3002,4.3002,4.3002,4.3002,4.3002,4.3002,4.3002,4.3002,4.3002,4.3002,4.3002,4.3002,4.3002,4.3002,4.3002,4.3002,4.3002,4.3002,4.3002,0.0,0.0,0.0,0.0,0.0,0.0,4.0096,0.0,3.8665,0.0,0.0,0.0,0.0,0.0,0.0,0.0,3.8774,0.0,0.0,0.0,3.9406,0.0,0.0,0.0,4.0337,4.0905,4.1553,4.2336,4.2631,4.294,4.3275,4.329,4.329,4.329,4.329,4.329,4.329,4.4631,4.5289,4.5304,4.6666,4.7309,4.7309,4.7309,4.7309,4.7309,4.7309,4.7309,4.7309,4.7309,4.7309,4.7309,4.7309,4.7309,4.7309,4.7309,4.7309,4.7309,4.7309,4.7309,4.7309,4.7309,4.7309,4.7309,4.7309,4.8027,4.8932,4.9217,5.0002,5.0847,5.1131,5.0215,4.8851,4.7427,4.6017,4.463,4.3295,4.3002,4.3002,4.3002,4.3002,4.3002,4.3002,4.3002,4.3002,4.3002,4.3002,4.3002,4.3002,4.3002,4.3002,4.3002,4.3002,4.3002,4.3002,4.3002,4.3002,4.3002,4.3002,4.3002,4.3002,4.3002,4.3002,4.3002,4.3002,4.3002,4.3002,4.3002,4.3002,4.3002,4.3002,4.3002,4.0096,0.0,0.0,0.0,0.0,0.0,0.0,0.0,0.0,0.0,0.0,0.0,0.0,0.0,0.0,0.0,0.0,3.7945,0.0,3.8706,0.0,0.0,0.0,0.0,0.0,4.0292,4.0894,4.2051,4.2306,4.2661,4.326,4.329,4.329,4.329,4.329,4.329,4.329,4.4631,4.5289,4.5304,4.6666,4.7309,4.7309,4.7309,4.7309,4.7309,4.7309,4.7309,4.7309,4.7309,4.7309,4.7309,4.7309,4.7309,4.7309,4.7309,4.7309,4.7309,4.7309,4.7309,4.7309,4.7309,4.7309,4.7309,4.7309,4.8244,4.9292,4.9292,5.0212,5.1191,5.1191,5.0469,4.9308,4.7517,4.6331,4.5088,4.3366,4.3002,4.3002,4.3002,4.3002,4.3002,4.3002,4.3002,4.3002,4.3002,4.3002,4.3002,4.3002,4.3002,4.3002,4.3002,4.3002,4.3002,4.3002,4.3002,4.3002,4.3002,4.3002,4.3002,4.3002,4.3002,4.3002,4.3002,4.3002,4.3002,4.3002,4.3002,4.3002,4.3002,4.3002,4.3002,0.0,0.0,0.0,4.0096,0.0,0.0,0.0,0.0,3.9808,0.0,0.0,0.0,0.0,0.0,0.0,0.0,0.0,0.0,0.0,0.0,0.0,0.0,0.0,0.0,0.0,4.0004,4.0681,0.0,4.2017,4.2661,4.326,4.329,4.329,4.329,4.329,4.329,4.329,4.4631,4.5289,4.5304,4.6666,4.7309,4.7309,4.7309,4.7309,4.7309,4.7309,4.7309,4.7309,4.7309,4.7309,4.7309,4.7309,4.7309,4.7309,4.7309,4.7309,4.7309,4.7309,4.7309,4.7309,4.7309,4.7309,4.7309,4.7309,4.8244,4.9292,4.9292,5.0212,5.1191,5.1191,5.1167,5.0445,4.7746,4.7069,4.6279,4.3575,4.3002,4.3002,4.3002,4.3002,4.3002,4.3002,4.3002,4.3002,4.3002,4.3002,4.3002,4.3002,4.3002,4.3002,4.3002,4.3002,4.3002,4.3002,4.3002,4.3002,4.3002,4.3002,4.3002,4.3002,4.3002,4.3002,4.3002,4.3002,4.3002,4.3002,4.3002,4.3002,4.3002,4.3002,4.3002,0.0,0.0,4.1555,4.1555,0.0,0.0,0.0,0.0,0.0,0.0,0.0,0.0,0.0,0.0,0.0,0.0,0.0,0.0,0.0,0.0,0.0,0.0,0.0,0.0,0.0,0.0,0.0,0.0,4.1358,0.0,4.2676,4.307,4.329,4.329,4.329,4.329,4.329,4.4192,4.487,4.5304,4.6196,4.6869,4.7309,4.7309,4.7309,4.7309,4.7309,4.7309,4.7309,4.7309,4.7309,4.7309,4.7309,4.7309,4.7309,4.7309,4.7309,4.7309,4.7309,4.7309,4.7309,4.7309,4.7309,4.7384,4.7818,4.8588,4.9381,4.9778,5.0518,5.1191,5.1191,4.9849,4.825,4.7325,4.5714,4.414,4.3212,4.3002,4.3002,4.3002,4.3002,4.3002,4.3002,4.3002,4.3002,4.3002,4.3002,4.3002,4.3002,4.3002,4.3002,4.3002,4.3002,4.3002,4.3002,4.3002,4.3002,4.3002,4.3002,4.3002,4.3002,4.3002,4.3002,4.3002,4.3002,4.3002,4.3002,4.3002,4.3002,4.3002,4.3002,4.3002,4.23,4.23,0.0,4.23,4.23,0.0,4.23,0.0,4.1429,0.0,0.0,0.0,0.0,0.0,0.0,0.0,0.0,0.0,0.0,3.8078,0.0,0.0,0.0,0.0,0.0,0.0,0.0,0.0,0.0,0.0,0.0,4.297,4.329,4.329,4.329,4.329,4.329,4.3967,4.4646,4.5304,4.5971,4.6644,4.7309,4.7309,4.7309,4.7309,4.7309,4.7309,4.7309,4.7309,4.7309,4.7309,4.7309,4.7309,4.7309,4.7309,4.7309,4.7309,4.7309,4.7309,4.7309,4.7309,4.7309,4.7429,4.8087,4.8768,4.9426,5.0024,5.0682,5.1191,5.1191,4.9543,4.7721,4.7223,4.5356,4.3575,4.3113,4.3002,4.3002,4.3002,4.3002,4.3002,4.3002,4.3002,4.3002,4.3002,4.3002,4.3002,4.3002,4.3002,4.3002,4.3002,4.3002,4.3002,4.3002,4.3002,4.3002,4.3002,4.3002,4.3002,4.3002,4.3002,4.3002,4.3002,4.3002,4.3002,4.3002,4.3002,4.3002,4.3002,4.3002,4.3002]}]]